[[{"header":{"parameterUnit":"m.s-1","parameterCategory":1,"la1":31.0,"la2":29.5877,"lo1":-88.7671,"lo2":-86.6584,"dy":0.0162,"dx":0.0185,"nx":115,"ny":88,"refTime":"2024-04-28T06:00:00:Z","depth":0,"parameterNumber":2,"parameterNumberName":"U-component_of_WINDS"},"data":[0.0,0.0,0.0,0.0,0.0,0.0,0.0,0.0,0.0,0.0,0.0,0.0,0.0,0.0,0.0,0.0,0.0,0.0,0.0,0.0,0.0,0.0,0.0,0.0,0.0,0.0,0.0,0.0,0.0,0.0,0.0,0.0,0.0,0.0,0.0,0.0,0.0,0.0,0.0,0.0,0.0,0.0,0.0,0.0,0.0,0.0,0.0,0.0,0.0,0.0,0.0,0.0,0.0,0.0,0.0,0.0,0.0,0.0,0.0,0.0,0.0,0.0,0.0,0.0,0.0,0.0,0.0,0.0,0.0,0.0,0.0,0.0,0.0,0.0,0.0,0.0,0.0,0.0,0.0,0.0,0.0,0.0,0.0,0.0,0.0,0.0,0.0,0.0,0.0,0.0,0.0,0.0,0.0,0.0,0.0,0.0,0.0,0.0,0.0,0.0,0.0,0.0,0.0,0.0,0.0,0.0,0.0,0.0,0.0,0.0,0.0,0.0,0.0,0.0,0.0,0.0,0.0,0.0,0.0,0.0,0.0,0.0,0.0,0.0,0.0,0.0,0.0,0.0,0.0,0.0,0.0,0.0,0.0,0.0,0.0,0.0,0.0,0.0,0.0,0.0,0.0,0.0,0.0,0.0,0.0,0.0,0.0,0.0,0.0,0.0,0.0,0.0,0.0,0.0,0.0,0.0,0.0,0.0,0.0,0.0,0.0,0.0,0.0,0.0,0.0,0.0,0.0,0.0,0.0,0.0,0.0,0.0,0.0,0.0,0.0,0.0,0.0,0.0,0.0,0.0,0.0,0.0,0.0,0.0,0.0,0.0,0.0,0.0,0.0,0.0,0.0,0.0,0.0,0.0,0.0,0.0,0.0,0.0,0.0,0.0,0.0,0.0,0.0,0.0,0.0,0.0,0.0,0.0,0.0,0.0,0.0,0.0,0.0,0.0,0.0,0.0,0.0,0.0,0.0,0.0,0.0,0.0,0.0,0.0,0.0,0.0,0.0,0.0,0.0,0.0,0.0,0.0,0.0,0.0,0.0,0.0,0.0,0.0,0.0,0.0,0.0,0.0,0.0,0.0,0.0,0.0,0.0,0.0,0.0,0.0,0.0,0.0,0.0,0.0,0.0,0.0,0.0,0.0,0.0,0.0,0.0,0.0,0.0,0.0,0.0,0.0,0.0,0.0,0.0,0.0,0.0,0.0,0.0,0.0,0.0,0.0,0.0,0.0,0.0,0.0,0.0,0.0,0.0,0.0,0.0,0.0,0.0,0.0,0.0,0.0,0.0,0.0,0.0,0.0,0.0,0.0,0.0,0.0,0.0,0.0,0.0,0.0,0.0,0.0,0.0,0.0,0.0,0.0,0.0,0.0,0.0,0.0,0.0,0.0,0.0,0.0,0.0,0.0,0.0,0.0,0.0,0.0,0.0,0.0,0.0,0.0,0.0,0.0,0.0,0.0,0.0,0.0,0.0,0.0,0.0,0.0,0.0,0.0,0.0,0.0,0.0,0.0,0.0,0.0,0.0,0.0,0.0,0.0,0.0,0.0,0.0,0.0,0.0,0.0,0.0,0.0,0.0,0.0,0.0,0.0,0.0,0.0,0.0,0.0,0.0,0.0,0.0,0.0,0.0,0.0,0.0,0.0,0.0,0.0,0.0,0.0,0.0,0.0,0.0,0.0,0.0,0.0,0.0,0.0,0.0,0.0,0.0,0.0,0.0,0.0,0.0,0.0,0.0,0.0,0.0,0.0,0.0,0.0,0.0,0.0,0.0,0.0,0.0,0.0,0.0,0.0,0.0,0.0,0.0,0.0,0.0,0.0,0.0,0.0,0.0,0.0,0.0,0.0,0.0,0.0,0.0,0.0,0.0,0.0,0.0,0.0,0.0,0.0,0.0,0.0,0.0,0.0,0.0,0.0,0.0,0.0,0.0,0.0,0.0,0.0,0.0,0.0,0.0,0.0,0.0,0.0,0.0,0.0,0.0,0.0,0.0,0.0,0.0,0.0,0.0,0.0,0.0,0.0,0.0,0.0,0.0,0.0,0.0,0.0,0.0,0.0,0.0,0.0,0.0,0.0,0.0,0.0,0.0,0.0,0.0,0.0,0.0,0.0,0.0,0.0,0.0,0.0,0.0,0.0,0.0,0.0,0.0,0.0,0.0,0.0,0.0,0.0,0.0,0.0,0.0,0.0,0.0,0.0,0.0,0.0,0.0,0.0,0.0,0.0,0.0,0.0,0.0,0.0,0.0,0.0,0.0,0.0,0.0,0.0,0.0,0.0,0.0,0.0,0.0,0.0,0.0,0.0,0.0,0.0,0.0,0.0,0.0,0.0,0.0,0.0,0.0,0.0,0.0,0.0,0.0,0.0,0.0,0.0,0.0,0.0,0.0,0.0,0.0,0.0,0.0,0.0,0.0,0.0,0.0,0.0,0.0,0.0,0.0,0.0,0.0,0.0,0.0,0.0,0.0,0.0,0.0,0.0,0.0,0.0,0.0,0.0,0.0,0.0,0.0,0.0,0.0,0.0,0.0,0.0,0.0,0.0,0.0,0.0,0.0,0.0,0.0,0.0,0.0,0.0,0.0,0.0,0.0,0.0,0.0,0.0,0.0,0.0,0.0,0.0,0.0,0.0,0.0,0.0,0.0,0.0,0.0,0.0,0.0,0.0,0.0,0.0,0.0,0.0,0.0,0.0,0.0,0.0,0.0,0.0,0.0,0.0,0.0,0.0,0.0,0.0,0.0,0.0,0.0,0.0,0.0,0.0,0.0,0.0,0.0,0.0,0.0,0.0,0.0,0.0,0.0,0.0,0.0,0.0,0.0,0.0,0.0,0.0,0.0,0.0,0.0,0.0,0.0,0.0,0.0,0.0,0.0,0.0,0.0,0.0,0.0,0.0,0.0,0.0,0.0,0.0,0.0,0.0,0.0,0.0,0.0,0.0,0.0,0.0,0.0,0.0,0.0,0.0,0.0,0.0,0.0,0.0,0.0,0.0,0.0,0.0,0.0,0.0,0.0,0.0,0.0,0.0,0.0,0.0,0.0,0.0,0.0,0.0,0.0,0.0,0.0,0.0,0.0,0.0,0.0,0.0,0.0,0.0,0.0,0.0,0.0,0.0,0.0,0.0,0.0,0.0,0.0,0.0,0.0,0.0,0.0,0.0,0.0,0.0,0.0,0.0,0.0,0.0,0.0,0.0,0.0,0.0,0.0,0.0,0.0,0.0,0.0,0.0,0.0,0.0,0.0,0.0,0.0,0.0,0.0,0.0,0.0,0.0,0.0,0.0,0.0,0.0,0.0,0.0,0.0,0.0,0.0,0.0,0.0,0.0,0.0,0.0,0.0,0.0,0.0,0.0,0.0,0.0,0.0,0.0,0.0,0.0,0.0,0.0,0.0,0.0,0.0,0.0,0.0,0.0,0.0,0.0,0.0,0.0,0.0,0.0,0.0,0.0,0.0,0.0,0.0,0.0,0.0,0.0,0.0,0.0,0.0,0.0,0.0,0.0,0.0,0.0,0.0,0.0,0.0,0.0,0.0,0.0,0.0,0.0,0.0,0.0,0.0,0.0,0.0,0.0,0.0,0.0,0.0,0.0,0.0,0.0,0.0,0.0,0.0,0.0,0.0,0.0,0.0,0.0,0.0,0.0,0.0,0.0,0.0,0.0,0.0,0.0,0.0,0.0,0.0,0.0,0.0,0.0,0.0,0.0,0.0,0.0,0.0,0.0,0.0,0.0,0.0,0.0,0.0,0.0,0.0,0.0,0.0,0.0,0.0,0.0,0.0,0.0,0.0,0.0,0.0,0.0,0.0,0.0,0.0,0.0,0.0,0.0,0.0,0.0,0.0,0.0,0.0,0.0,0.0,0.0,0.0,0.0,0.0,0.0,0.0,0.0,0.0,0.0,0.0,0.0,0.0,0.0,0.0,0.0,0.0,0.0,0.0,0.0,0.0,0.0,0.0,0.0,0.0,0.0,0.0,0.0,0.0,0.0,0.0,0.0,0.0,0.0,0.0,0.0,0.0,0.0,0.0,0.0,0.0,0.0,0.0,0.0,0.0,0.0,0.0,0.0,0.0,0.0,0.0,0.0,0.0,0.0,0.0,0.0,0.0,0.0,0.0,0.0,0.0,0.0,0.0,0.0,0.0,0.0,0.0,0.0,0.0,0.0,0.0,0.0,0.0,0.0,0.0,0.0,0.0,0.0,0.0,0.0,0.0,0.0,0.0,0.0,0.0,0.0,0.0,0.0,0.0,0.0,0.0,0.0,-1.0196,0.0,0.0,0.0,0.0,0.0,0.0,0.0,0.0,0.0,0.0,0.0,0.0,0.0,0.0,0.0,0.0,0.0,0.0,0.0,0.0,0.0,0.0,0.0,0.0,0.0,0.0,0.0,0.0,0.0,0.0,0.0,0.0,0.0,0.0,0.0,0.0,0.0,0.0,0.0,0.0,0.0,0.0,0.0,0.0,0.0,0.0,0.0,0.0,0.0,0.0,0.0,0.0,0.0,0.0,0.0,0.0,0.0,0.0,0.0,0.0,0.0,0.0,0.0,0.0,0.0,0.0,0.0,0.0,0.0,0.0,0.0,0.0,0.0,0.0,0.0,0.0,0.0,0.0,0.0,0.0,0.0,0.0,0.0,0.0,0.0,0.0,0.0,0.0,0.0,0.0,0.0,0.0,0.0,0.0,0.0,0.0,0.0,0.0,0.0,0.0,0.0,0.0,0.0,0.0,0.0,0.0,0.0,0.0,0.0,0.0,-1.0202,-1.0196,-1.0186,-1.0188,-1.0196,0.0,0.0,0.0,0.0,0.0,0.0,0.0,0.0,0.0,0.0,0.0,0.0,0.0,0.0,0.0,0.0,0.0,0.0,0.0,0.0,0.0,0.0,0.0,0.0,0.0,0.0,0.0,0.0,0.0,0.0,0.0,0.0,0.0,0.0,0.0,0.0,0.0,0.0,0.0,0.0,0.0,0.0,0.0,0.0,0.0,0.0,0.0,0.0,0.0,0.0,0.0,0.0,0.0,0.0,0.0,0.0,0.0,0.0,0.0,0.0,0.0,0.0,0.0,0.0,0.0,0.0,0.0,0.0,0.0,0.0,0.0,0.0,0.0,0.0,0.0,0.0,0.0,0.0,0.0,0.0,0.0,0.0,0.0,0.0,0.0,0.0,0.0,0.0,0.0,0.0,0.0,0.0,0.0,0.0,0.0,0.0,0.0,0.0,0.0,0.0,0.0,0.0,0.0,0.0,0.0,0.0,0.0,0.0,0.0,0.0,0.0,0.0,-1.0485,-1.0488,-1.0515,0.0,0.0,0.0,0.0,0.0,0.0,0.0,0.0,0.0,0.0,0.0,0.0,0.0,0.0,0.0,0.0,0.0,0.0,0.0,0.0,0.0,0.0,0.0,0.0,0.0,0.0,0.0,0.0,0.0,0.0,0.0,0.0,0.0,0.0,0.0,0.0,0.0,0.0,0.0,0.0,0.0,0.0,0.0,0.0,0.0,0.0,0.0,0.0,0.0,0.0,0.0,0.0,0.0,0.0,0.0,0.0,0.0,0.0,0.0,0.0,0.0,0.0,0.0,0.0,0.0,0.0,0.0,0.0,0.0,0.0,0.0,0.0,0.0,0.0,0.0,0.0,0.0,0.0,0.0,0.0,0.0,0.0,0.0,0.0,0.0,0.0,0.0,0.0,0.0,0.0,0.0,0.0,0.0,0.0,0.0,0.0,0.0,0.0,0.0,0.0,0.0,0.0,0.0,0.0,0.0,0.0,0.0,0.0,0.0,0.0,-1.0576,-1.1347,-1.137,0.0,-1.1438,0.0,0.0,0.0,0.0,0.0,0.0,0.0,0.0,0.0,0.0,0.0,0.0,0.0,0.0,0.0,0.0,0.0,0.0,0.0,0.0,0.0,0.0,0.0,0.0,0.0,0.0,0.0,0.0,0.0,0.0,0.0,0.0,0.0,0.0,0.0,0.0,0.0,0.0,0.0,0.0,0.0,0.0,0.0,0.0,0.0,0.0,0.0,0.0,0.0,0.0,0.0,0.0,0.0,0.0,0.0,0.0,0.0,0.0,0.0,0.0,0.0,0.0,0.0,0.0,0.0,0.0,0.0,0.0,0.0,0.0,0.0,0.0,0.0,0.0,0.0,0.0,0.0,0.0,0.0,0.0,0.0,0.0,0.0,0.0,0.0,0.0,0.0,0.0,0.0,0.0,0.0,0.0,0.0,0.0,0.0,0.0,0.0,0.0,0.0,0.0,0.0,0.0,0.0,0.0,0.0,0.0,0.0,0.0,0.0,0.0,-1.1666,-1.1512,-1.1506,-1.1509,0.0,0.0,0.0,0.0,0.0,0.0,0.0,0.0,0.0,0.0,0.0,0.0,0.0,0.0,0.0,0.0,0.0,0.0,0.0,0.0,0.0,0.0,0.0,0.0,0.0,0.0,0.0,0.0,0.0,0.0,0.0,0.0,0.0,0.0,0.0,0.0,0.0,0.0,0.0,0.0,0.0,0.0,0.0,0.0,0.0,0.0,0.0,0.0,0.0,0.0,0.0,0.0,0.0,0.0,0.0,0.0,0.0,0.0,0.0,0.0,0.0,0.0,0.0,0.0,0.0,0.0,0.0,0.0,0.0,0.0,0.0,0.0,0.0,0.0,0.0,0.0,0.0,0.0,0.0,0.0,0.0,0.0,0.0,0.0,0.0,0.0,0.0,0.0,0.0,0.0,0.0,0.0,0.0,0.0,0.0,0.0,0.0,0.0,0.0,0.0,0.0,0.0,0.0,0.0,0.0,0.0,0.0,0.0,0.0,0.0,-1.2595,-1.2493,-1.1909,-1.1861,-1.1745,-1.1515,0.0,0.0,0.0,0.0,0.0,0.0,0.0,0.0,0.0,0.0,0.0,0.0,0.0,0.0,0.0,0.0,0.0,0.0,0.0,0.0,0.0,0.0,0.0,0.0,0.0,0.0,0.0,0.0,0.0,0.0,0.0,0.0,0.0,0.0,0.0,0.0,0.0,0.0,0.0,0.0,0.0,0.0,0.0,0.0,0.0,0.0,0.0,0.0,0.0,0.0,0.0,0.0,0.0,0.0,0.0,0.0,0.0,0.0,0.0,0.0,0.0,0.0,0.0,0.0,0.0,0.0,0.0,0.0,0.0,0.0,0.0,0.0,0.0,0.0,0.0,0.0,0.0,0.0,0.0,0.0,0.0,0.0,0.0,0.0,0.0,0.0,0.0,0.0,0.0,0.0,0.0,0.0,0.0,0.0,0.0,0.0,0.0,0.0,0.0,0.0,0.0,0.0,0.0,0.0,0.0,0.0,0.0,0.0,-1.3936,-1.322,-1.2803,-1.2766,-1.2743,-1.2355,0.0,0.0,0.0,0.0,0.0,0.0,0.0,0.0,0.0,0.0,0.0,0.0,0.0,0.0,0.0,0.0,0.0,0.0,0.0,0.0,0.0,0.0,0.0,0.0,0.0,0.0,0.0,0.0,0.0,0.0,0.0,0.0,0.0,0.0,0.0,0.0,0.0,0.0,0.0,0.0,0.0,0.0,0.0,0.0,0.0,0.0,0.0,0.0,0.0,0.0,0.0,0.0,0.0,0.0,0.0,0.0,0.0,0.0,0.0,0.0,0.0,0.0,0.0,0.0,0.0,0.0,0.0,0.0,0.0,0.0,0.0,0.0,0.0,0.0,0.0,0.0,0.0,0.0,0.0,0.0,0.0,0.0,0.0,0.0,0.0,0.0,0.0,0.0,0.0,0.0,0.0,0.0,0.0,0.0,0.0,0.0,0.0,0.0,0.0,0.0,0.0,0.0,0.0,0.0,0.0,0.0,0.0,0.0,0.0,-1.4868,-1.4087,-1.3892,-1.4395,-1.3376,-1.2651,0.0,0.0,0.0,0.0,0.0,0.0,0.0,0.0,0.0,0.0,0.0,0.0,0.0,0.0,0.0,0.0,0.0,0.0,0.0,0.0,0.0,0.0,0.0,0.0,0.0,0.0,0.0,0.0,0.0,0.0,0.0,0.0,0.0,0.0,0.0,0.0,0.0,0.0,0.0,0.0,0.0,0.0,0.0,0.0,0.0,0.0,0.0,0.0,0.0,0.0,0.0,0.0,0.0,0.0,0.0,0.0,0.0,0.0,0.0,0.0,0.0,0.0,0.0,0.0,0.0,0.0,0.0,0.0,0.0,0.0,0.0,0.0,0.0,0.0,0.0,0.0,0.0,0.0,0.0,0.0,0.0,0.0,0.0,0.0,0.0,0.0,0.0,0.0,0.0,0.0,0.0,0.0,0.0,0.0,0.0,0.0,0.0,0.0,0.0,0.0,0.0,0.0,0.0,0.0,0.0,0.0,0.0,0.0,0.0,-1.5784,0.0,-1.5097,-1.5346,-1.3992,-1.297,0.0,0.0,0.0,0.0,0.0,0.0,0.0,0.0,0.0,0.0,0.0,0.0,0.0,0.0,0.0,0.0,0.0,0.0,0.0,0.0,0.0,0.0,0.0,0.0,0.0,0.0,0.0,0.0,0.0,0.0,0.0,0.0,0.0,0.0,0.0,0.0,0.0,0.0,0.0,0.0,0.0,0.0,0.0,0.0,0.0,0.0,0.0,0.0,0.0,0.0,0.0,0.0,0.0,0.0,0.0,0.0,0.0,0.0,0.0,0.0,0.0,0.0,0.0,0.0,0.0,0.0,0.0,0.0,0.0,0.0,0.0,0.0,0.0,0.0,0.0,0.0,0.0,0.0,0.0,0.0,0.0,0.0,0.0,0.0,0.0,0.0,0.0,0.0,0.0,0.0,0.0,0.0,0.0,0.0,0.0,0.0,0.0,0.0,0.0,0.0,0.0,0.0,0.0,0.0,0.0,0.0,0.0,0.0,-1.5855,-1.6641,-1.6662,-1.6306,-1.5463,-1.4603,-1.3317,0.0,0.0,0.0,0.0,0.0,0.0,0.0,0.0,0.0,0.0,0.0,0.0,0.0,0.0,0.0,0.0,0.0,0.0,0.0,0.0,0.0,0.0,0.0,0.0,0.0,0.0,0.0,0.0,0.0,0.0,0.0,0.0,0.0,0.0,0.0,0.0,0.0,0.0,0.0,0.0,0.0,0.0,0.0,0.0,0.0,0.0,0.0,0.0,0.0,0.0,0.0,0.0,0.0,0.0,0.0,0.0,0.0,0.0,0.0,0.0,0.0,0.0,0.0,0.0,0.0,0.0,0.0,0.0,0.0,0.0,0.0,0.0,0.0,0.0,0.0,0.0,0.0,0.0,0.0,0.0,0.0,0.0,0.0,0.0,0.0,0.0,0.0,0.0,0.0,0.0,0.0,0.0,0.0,0.0,0.0,0.0,0.0,0.0,0.0,0.0,0.0,0.0,0.0,0.0,0.0,0.0,0.0,0.0,0.0,-1.6719,-1.7293,-1.7471,-1.7156,-1.5766,-1.4471,0.0,0.0,0.0,0.0,0.0,0.0,0.0,0.0,0.0,0.0,0.0,0.0,0.0,0.0,0.0,0.0,0.0,0.0,0.0,0.0,0.0,0.0,0.0,0.0,0.0,0.0,0.0,0.0,0.0,0.0,0.0,0.0,0.0,0.0,0.0,0.0,0.0,0.0,0.0,0.0,0.0,0.0,0.0,0.0,0.0,0.0,0.0,0.0,0.0,0.0,0.0,0.0,0.0,0.0,0.0,0.0,0.0,0.0,0.0,0.0,0.0,0.0,0.0,0.0,0.0,0.0,0.0,0.0,0.0,0.0,0.0,0.0,0.0,0.0,0.0,0.0,0.0,0.0,0.0,0.0,0.0,0.0,0.0,0.0,0.0,0.0,0.0,0.0,0.0,0.0,0.0,0.0,0.0,0.0,0.0,0.0,0.0,0.0,0.0,0.0,0.0,0.0,0.0,0.0,0.0,0.0,0.0,0.0,0.0,-1.8672,-1.9441,-1.9735,-1.9441,-1.7719,-1.6114,-1.4609,0.0,0.0,0.0,0.0,0.0,0.0,0.0,0.0,0.0,0.0,0.0,0.0,0.0,0.0,0.0,0.0,0.0,0.0,0.0,0.0,0.0,0.0,0.0,0.0,0.0,0.0,0.0,0.0,0.0,0.0,0.0,0.0,0.0,0.0,0.0,0.0,0.0,0.0,0.0,0.0,0.0,0.0,0.0,0.0,0.0,0.0,0.0,0.0,0.0,0.0,0.0,0.0,0.0,0.0,0.0,0.0,0.0,0.0,0.0,0.0,0.0,0.0,0.0,0.0,0.0,0.0,0.0,0.0,0.0,0.0,0.0,0.0,0.0,0.0,0.0,0.0,0.0,0.0,0.0,0.0,0.0,0.0,0.0,0.0,0.0,0.0,0.0,0.0,0.0,0.0,0.0,0.0,0.0,0.0,0.0,0.0,0.0,0.0,0.0,0.0,0.0,0.0,0.0,0.0,0.0,0.0,0.0,0.0,-2.1874,-2.2873,-2.2927,-2.2037,-2.0199,-1.813,0.0,0.0,0.0,0.0,0.0,0.0,0.0,0.0,0.0,0.0,0.0,0.0,0.0,0.0,0.0,0.0,0.0,0.0,0.0,0.0,0.0,0.0,0.0,0.0,0.0,0.0,0.0,0.0,0.0,0.0,0.0,0.0,0.0,0.0,0.0,0.0,0.0,0.0,0.0,0.0,0.0,0.0,0.0,0.0,0.0,0.0,0.0,0.0,0.0,0.0,0.0,0.0,0.0,0.0,0.0,0.0,0.0,0.0,0.0,0.0,0.0,0.0,0.0,0.0,0.0,0.0,0.0,0.0,0.0,0.0,0.0,0.0,0.0,0.0,0.0,0.0,0.0,0.0,0.0,0.0,0.0,0.0,0.0,0.0,0.0,0.0,0.0,0.0,0.0,0.0,0.0,0.0,0.0,0.0,0.0,0.0,0.0,0.0,0.0,0.0,0.0,0.0,0.0,0.0,0.0,0.0,0.0,0.0,0.0,-2.2926,-2.5446,-2.6128,-2.4602,-2.1708,-1.9561,0.0,0.0,0.0,0.0,0.0,0.0,0.0,0.0,0.0,0.0,0.0,0.0,0.0,0.0,0.0,0.0,0.0,0.0,0.0,0.0,0.0,0.0,0.0,0.0,0.0,0.0,0.0,0.0,0.0,0.0,0.0,0.0,0.0,0.0,0.0,0.0,0.0,0.0,0.0,0.0,0.0,0.0,0.0,0.0,0.0,0.0,0.0,0.0,0.0,0.0,0.0,0.0,0.0,0.0,0.0,0.0,0.0,0.0,0.0,0.0,0.0,0.0,0.0,0.0,0.0,0.0,0.0,0.0,0.0,0.0,0.0,0.0,0.0,0.0,0.0,0.0,0.0,0.0,0.0,0.0,0.0,0.0,0.0,0.0,0.0,0.0,0.0,0.0,0.0,0.0,0.0,0.0,0.0,0.0,0.0,0.0,0.0,0.0,0.0,0.0,0.0,0.0,0.0,0.0,0.0,0.0,0.0,0.0,-2.4417,-2.419,-2.7478,-2.8771,-2.7756,-2.4108,-2.1374,0.0,0.0,0.0,0.0,0.0,0.0,0.0,0.0,0.0,0.0,0.0,0.0,0.0,0.0,0.0,0.0,0.0,0.0,0.0,0.0,0.0,0.0,0.0,0.0,0.0,0.0,0.0,0.0,0.0,0.0,0.0,0.0,0.0,0.0,0.0,0.0,0.0,0.0,0.0,0.0,0.0,0.0,0.0,0.0,0.0,0.0,0.0,0.0,0.0,0.0,0.0,0.0,0.0,0.0,0.0,0.0,0.0,0.0,0.0,0.0,0.0,0.0,0.0,0.0,0.0,0.0,0.0,0.0,0.0,0.0,0.0,0.0,0.0,0.0,0.0,0.0,0.0,0.0,0.0,0.0,0.0,0.0,0.0,0.0,0.0,0.0,0.0,0.0,0.0,0.0,0.0,0.0,0.0,0.0,0.0,0.0,0.0,0.0,0.0,0.0,0.0,0.0,0.0,0.0,0.0,0.0,0.0,0.0,-2.4147,-2.5723,-2.8971,-3.069,-3.0581,-2.6612,-2.3257,0.0,0.0,0.0,0.0,0.0,0.0,0.0,0.0,0.0,0.0,0.0,0.0,0.0,0.0,0.0,0.0,0.0,0.0,0.0,0.0,0.0,0.0,0.0,0.0,0.0,0.0,0.0,0.0,0.0,0.0,0.0,0.0,0.0,0.0,0.0,0.0,0.0,0.0,0.0,0.0,0.0,0.0,0.0,0.0,0.0,0.0,0.0,0.0,0.0,0.0,0.0,0.0,0.0,0.0,0.0,0.0,0.0,0.0,0.0,0.0,0.0,0.0,0.0,0.0,0.0,0.0,0.0,0.0,0.0,0.0,0.0,0.0,0.0,0.0,0.0,0.0,0.0,0.0,0.0,0.0,0.0,0.0,0.0,0.0,0.0,0.0,0.0,0.0,0.0,0.0,0.0,0.0,0.0,0.0,0.0,0.0,0.0,0.0,0.0,0.0,0.0,0.0,0.0,0.0,0.0,0.0,0.0,0.0,-2.5587,-2.6646,-2.9283,-3.069,-3.0671,-2.6612,-2.3813,0.0,0.0,0.0,0.0,0.0,0.0,0.0,0.0,0.0,0.0,0.0,0.0,0.0,0.0,0.0,0.0,0.0,0.0,0.0,0.0,0.0,0.0,0.0,0.0,0.0,0.0,0.0,0.0,0.0,0.0,0.0,0.0,0.0,0.0,0.0,0.0,0.0,0.0,0.0,0.0,0.0,0.0,0.0,0.0,0.0,0.0,0.0,0.0,-1.1533,0.0,0.0,0.0,0.0,0.0,0.0,0.0,0.0,0.0,0.0,0.0,0.0,0.0,0.0,0.0,0.0,0.0,0.0,0.0,0.0,0.0,0.0,0.0,0.0,0.0,0.0,0.0,0.0,0.0,0.0,0.0,0.0,0.0,0.0,0.0,0.0,0.0,0.0,0.0,0.0,0.0,0.0,0.0,0.0,0.0,0.0,0.0,0.0,0.0,0.0,0.0,0.0,0.0,0.0,0.0,0.0,0.0,0.0,0.0,-2.7878,-2.7585,-2.9599,-3.069,-3.0581,-2.777,-2.5223,0.0,0.0,0.0,0.0,0.0,0.0,0.0,0.0,0.0,0.0,0.0,0.0,0.0,0.0,0.0,0.0,0.0,0.0,0.0,0.0,0.0,0.0,0.0,0.0,0.0,0.0,0.0,0.0,0.0,0.0,0.0,0.0,0.0,0.0,0.0,0.0,0.0,0.0,0.0,0.0,0.0,0.0,0.0,0.0,0.0,0.0,0.0,0.0,0.0,0.0,0.0,0.0,0.0,0.0,0.0,0.0,0.0,0.0,0.0,0.0,0.0,0.0,0.0,0.0,0.0,0.0,0.0,0.0,0.0,0.0,0.0,0.0,0.0,0.0,0.0,0.0,0.0,0.0,0.0,0.0,0.0,0.0,0.0,0.0,0.0,0.0,0.0,0.0,0.0,0.0,0.0,0.0,0.0,0.0,0.0,0.0,0.0,0.0,0.0,0.0,0.0,0.0,0.0,0.0,0.0,0.0,0.0,-2.7586,-3.0147,-2.892,-3.0033,-3.0768,-3.0865,-2.9135,-2.6651,-2.34,0.0,0.0,0.0,0.0,0.0,0.0,0.0,0.0,0.0,0.0,0.0,0.0,0.0,0.0,0.0,0.0,0.0,0.0,0.0,0.0,0.0,0.0,0.0,0.0,0.0,0.0,0.0,0.0,0.0,0.0,0.0,0.0,0.0,0.0,0.0,0.0,0.0,0.0,-0.9875,-1.0402,0.0,0.0,0.0,0.0,0.0,0.0,0.0,0.0,-1.1412,0.0,0.0,0.0,0.0,0.0,0.0,0.0,0.0,0.0,0.0,0.0,0.0,0.0,0.0,0.0,0.0,0.0,0.0,0.0,0.0,0.0,0.0,0.0,0.0,0.0,0.0,0.0,0.0,0.0,0.0,0.0,0.0,0.0,0.0,0.0,0.0,0.0,0.0,0.0,0.0,0.0,0.0,0.0,0.0,0.0,0.0,0.0,0.0,0.0,0.0,0.0,0.0,0.0,0.0,0.0,0.0,-2.4782,-2.8779,-3.1011,-3.1446,-3.0959,-3.104,-3.1681,-2.946,-2.6904,-2.4199,0.0,0.0,0.0,0.0,0.0,0.0,0.0,0.0,0.0,0.0,0.0,0.0,0.0,0.0,0.0,0.0,0.0,0.0,0.0,0.0,0.0,0.0,0.0,0.0,0.0,0.0,0.0,0.0,0.0,0.0,0.0,0.0,0.0,0.0,0.0,0.0,0.0,0.0,0.0,-1.1825,-1.208,0.0,0.0,0.0,0.0,0.0,0.0,0.0,0.0,-1.2456,0.0,0.0,0.0,0.0,0.0,0.0,0.0,0.0,0.0,0.0,0.0,0.0,0.0,0.0,0.0,0.0,0.0,0.0,0.0,0.0,0.0,0.0,0.0,0.0,0.0,0.0,0.0,0.0,0.0,0.0,0.0,0.0,0.0,0.0,0.0,0.0,0.0,0.0,0.0,0.0,0.0,0.0,0.0,0.0,0.0,0.0,0.0,0.0,0.0,0.0,0.0,0.0,0.0,0.0,0.0,-2.4934,-3.0605,-3.3257,-3.2789,-3.2307,-3.2252,-3.2577,-2.9769,-2.6958,0.0,0.0,0.0,0.0,0.0,0.0,0.0,0.0,0.0,0.0,0.0,0.0,0.0,0.0,0.0,0.0,0.0,0.0,0.0,0.0,0.0,0.0,0.0,0.0,0.0,0.0,0.0,0.0,0.0,0.0,0.0,0.0,0.0,0.0,0.0,0.0,0.0,0.0,0.0,0.0,-1.3072,-1.3503,-1.5228,0.0,0.0,0.0,0.0,0.0,0.0,-1.3309,-1.2573,0.0,0.0,0.0,0.0,0.0,0.0,0.0,0.0,0.0,0.0,0.0,0.0,0.0,0.0,0.0,0.0,0.0,0.0,0.0,0.0,0.0,0.0,0.0,0.0,0.0,0.0,0.0,0.0,0.0,0.0,0.0,0.0,0.0,0.0,0.0,0.0,0.0,0.0,0.0,0.0,0.0,0.0,0.0,0.0,0.0,0.0,0.0,0.0,0.0,0.0,0.0,0.0,0.0,0.0,0.0,-2.4694,-3.1913,-3.498,-3.373,-3.3434,-3.3379,-3.3481,-2.9912,-2.6868,0.0,0.0,0.0,0.0,0.0,0.0,0.0,0.0,0.0,0.0,0.0,0.0,0.0,0.0,0.0,0.0,0.0,0.0,0.0,0.0,0.0,0.0,0.0,0.0,0.0,0.0,0.0,0.0,0.0,0.0,0.0,0.0,0.0,0.0,0.0,0.0,0.0,0.0,0.0,0.0,0.0,-1.4995,-1.6714,-1.5565,0.0,0.0,0.0,0.0,-1.4641,-1.4009,0.0,0.0,0.0,0.0,0.0,0.0,0.0,0.0,0.0,0.0,0.0,0.0,0.0,0.0,0.0,0.0,0.0,0.0,0.0,0.0,0.0,0.0,0.0,0.0,0.0,0.0,0.0,0.0,0.0,0.0,0.0,0.0,0.0,0.0,0.0,0.0,0.0,0.0,0.0,0.0,0.0,0.0,0.0,0.0,0.0,0.0,0.0,0.0,0.0,0.0,0.0,0.0,0.0,0.0,0.0,0.0,-2.5637,-3.1386,-3.4453,-3.4512,-3.3722,-3.3654,-3.4361,-2.9643,-2.6558,0.0,0.0,0.0,0.0,0.0,0.0,0.0,0.0,0.0,0.0,0.0,0.0,0.0,0.0,0.0,0.0,0.0,0.0,0.0,0.0,0.0,0.0,0.0,0.0,0.0,0.0,0.0,0.0,0.0,0.0,0.0,0.0,0.0,0.0,0.0,0.0,0.0,0.0,0.0,0.0,0.0,-1.6203,-1.6887,-1.5565,-1.4519,0.0,0.0,-1.626,-1.6486,-1.7349,0.0,0.0,0.0,0.0,0.0,0.0,0.0,0.0,0.0,0.0,0.0,0.0,0.0,0.0,0.0,0.0,0.0,0.0,0.0,0.0,0.0,0.0,0.0,0.0,0.0,0.0,0.0,0.0,0.0,0.0,0.0,0.0,0.0,0.0,0.0,0.0,0.0,0.0,0.0,0.0,0.0,0.0,0.0,0.0,0.0,0.0,0.0,0.0,0.0,0.0,0.0,0.0,0.0,0.0,0.0,-2.3419,-2.5808,-3.1983,-3.5284,-3.5421,-3.5,-3.496,-3.5293,-2.9863,-2.6484,0.0,0.0,0.0,0.0,0.0,0.0,0.0,0.0,0.0,0.0,0.0,0.0,0.0,0.0,0.0,0.0,0.0,0.0,0.0,0.0,0.0,0.0,0.0,0.0,0.0,0.0,0.0,0.0,0.0,0.0,0.0,0.0,0.0,0.0,0.0,0.0,0.0,0.0,0.0,0.0,0.0,0.0,-1.7587,-1.7346,0.0,0.0,0.0,-1.7484,-1.6313,0.0,0.0,0.0,0.0,0.0,0.0,0.0,0.0,0.0,0.0,0.0,0.0,0.0,0.0,0.0,0.0,0.0,0.0,0.0,0.0,0.0,0.0,0.0,0.0,0.0,0.0,0.0,0.0,0.0,0.0,0.0,0.0,0.0,0.0,0.0,0.0,0.0,0.0,0.0,0.0,0.0,0.0,0.0,0.0,0.0,0.0,0.0,0.0,0.0,0.0,0.0,0.0,0.0,0.0,0.0,0.0,0.0,-2.5785,-3.2519,-3.601,-3.6013,-3.5948,-3.5912,-3.5833,-3.0914,0.0,0.0,0.0,0.0,0.0,0.0,0.0,0.0,0.0,0.0,0.0,0.0,0.0,0.0,0.0,0.0,0.0,0.0,0.0,0.0,0.0,0.0,0.0,0.0,0.0,0.0,0.0,-0.6852,0.0,0.0,0.0,0.0,0.0,0.0,0.0,0.0,0.0,0.0,0.0,0.0,0.0,0.0,-1.6964,-1.8188,-1.8748,-1.8949,0.0,0.0,-1.8333,-1.6867,-1.8215,-1.8111,0.0,0.0,0.0,0.0,0.0,0.0,0.0,0.0,0.0,0.0,0.0,0.0,0.0,0.0,0.0,0.0,0.0,0.0,0.0,0.0,0.0,0.0,0.0,0.0,0.0,0.0,0.0,0.0,0.0,0.0,0.0,0.0,0.0,0.0,0.0,0.0,0.0,0.0,0.0,0.0,0.0,0.0,0.0,0.0,0.0,0.0,0.0,0.0,0.0,0.0,0.0,0.0,0.0,0.0,0.0,-2.5922,-3.25,-3.601,-3.601,-3.5994,-3.5988,-3.5951,-3.3223,-2.9829,0.0,0.0,0.0,0.0,0.0,0.0,0.0,0.0,0.0,0.0,0.0,0.0,0.0,0.0,0.0,0.0,0.0,0.0,0.0,0.0,0.0,0.0,0.0,0.0,0.0,0.0,0.0,0.0,0.0,0.0,0.0,0.0,0.0,0.0,0.0,0.0,0.0,0.0,0.0,0.0,0.0,-1.8316,-1.8465,-1.8944,-1.9481,0.0,0.0,-1.8883,-1.9336,-2.0381,-1.9682,-1.547,0.0,0.0,0.0,0.0,0.0,0.0,0.0,0.0,0.0,0.0,0.0,0.0,0.0,0.0,0.0,0.0,0.0,0.0,0.0,0.0,0.0,0.0,0.0,0.0,0.0,0.0,0.0,0.0,0.0,0.0,0.0,0.0,0.0,0.0,0.0,0.0,0.0,0.0,0.0,0.0,0.0,0.0,0.0,0.0,0.0,0.0,0.0,0.0,0.0,0.0,0.0,0.0,0.0,-2.569,-2.5776,-3.2494,-3.601,-3.601,-3.6007,-3.602,-3.5994,-3.347,-3.0088,0.0,0.0,0.0,0.0,0.0,0.0,0.0,0.0,0.0,0.0,0.0,0.0,0.0,0.0,0.0,0.0,0.0,0.0,0.0,0.0,0.0,0.0,0.0,0.0,0.0,0.0,0.0,0.0,-1.3709,-1.3937,-1.28,0.0,0.0,0.0,0.0,0.0,0.0,0.0,0.0,0.0,0.0,-1.8156,-1.9543,-2.0281,0.0,0.0,-2.0154,-1.9899,-1.9294,-1.9814,-1.9141,-1.5775,-1.4767,0.0,0.0,0.0,0.0,0.0,0.0,0.0,0.0,0.0,0.0,0.0,0.0,0.0,0.0,0.0,0.0,0.0,0.0,0.0,0.0,0.0,0.0,0.0,0.0,0.0,0.0,0.0,0.0,0.0,0.0,0.0,0.0,0.0,0.0,0.0,0.0,0.0,0.0,0.0,0.0,0.0,0.0,0.0,0.0,0.0,0.0,0.0,0.0,0.0,0.0,0.0,0.0,-2.5707,-2.5729,-3.2492,-3.601,-3.601,-3.6007,-3.602,-3.5958,-3.4207,-3.1371,0.0,0.0,0.0,0.0,0.0,0.0,0.0,0.0,0.0,0.0,0.0,0.0,0.0,0.0,0.0,0.0,0.0,0.0,0.0,0.0,0.0,0.0,0.0,0.0,0.0,0.0,0.0,0.0,-1.4703,-1.4556,-1.3259,0.0,0.0,0.0,0.0,0.0,0.0,0.0,0.0,0.0,0.0,-1.8801,-2.0406,-2.1027,-2.107,-2.0422,-2.0381,-2.0145,-1.9244,-1.9368,-1.8682,-1.6186,0.0,0.0,0.0,0.0,0.0,0.0,0.0,0.0,0.0,0.0,0.0,0.0,0.0,0.0,0.0,0.0,0.0,0.0,0.0,0.0,0.0,0.0,0.0,0.0,0.0,0.0,0.0,0.0,0.0,0.0,-1.4536,0.0,0.0,0.0,0.0,0.0,0.0,0.0,0.0,0.0,0.0,0.0,0.0,0.0,0.0,0.0,0.0,0.0,0.0,0.0,0.0,0.0,0.0,-2.5707,-2.5788,-3.2514,-3.601,-3.601,-3.601,-3.6004,-3.6005,-3.5927,-3.4237,-3.0726,0.0,0.0,0.0,0.0,0.0,0.0,0.0,0.0,0.0,0.0,0.0,0.0,0.0,0.0,0.0,0.0,0.0,0.0,0.0,0.0,0.0,0.0,0.0,0.0,0.0,0.0,-1.0669,-1.2122,-1.3335,0.0,0.0,0.0,0.0,0.0,0.0,0.0,0.0,0.0,0.0,-1.8786,-2.062,-2.0937,-2.0907,-2.081,-2.0627,-1.9866,-1.9354,-1.9567,-1.935,-1.8605,0.0,0.0,0.0,0.0,0.0,0.0,0.0,0.0,0.0,0.0,0.0,0.0,0.0,0.0,0.0,0.0,0.0,0.0,0.0,0.0,0.0,0.0,0.0,0.0,0.0,0.0,0.0,-1.6496,-1.6269,0.0,0.0,0.0,0.0,0.0,0.0,0.0,0.0,0.0,0.0,0.0,-2.2563,-2.2852,0.0,0.0,0.0,0.0,0.0,0.0,0.0,0.0,0.0,0.0,0.0,0.0,-2.5954,-2.6747,-3.2762,-3.601,-3.6004,-3.6004,-3.602,-3.6013,-3.5942,-3.4311,-3.0896,0.0,0.0,0.0,0.0,0.0,0.0,0.0,0.0,0.0,0.0,0.0,0.0,0.0,0.0,0.0,0.0,0.0,0.0,0.0,0.0,0.0,0.0,0.0,0.0,0.0,-1.3487,0.0,0.0,0.0,0.0,0.0,0.0,0.0,0.0,0.0,0.0,0.0,-1.7178,-1.7879,-1.8838,-1.9828,-2.0813,-2.1331,-2.1557,0.0,0.0,0.0,0.0,0.0,0.0,0.0,0.0,0.0,0.0,0.0,0.0,0.0,0.0,-1.3207,-1.0606,-1.0352,-1.047,-1.0273,0.0,0.0,0.0,0.0,0.0,0.0,0.0,0.0,0.0,0.0,0.0,0.0,0.0,0.0,-2.0252,0.0,-2.0099,0.0,0.0,0.0,0.0,0.0,0.0,0.0,0.0,-2.4784,-2.5437,-2.5178,-2.573,-2.6892,0.0,-2.6357,-2.316,0.0,0.0,0.0,0.0,0.0,0.0,0.0,0.0,-2.6373,-2.7136,-3.2911,-3.6004,-3.6013,-3.6017,-3.5978,-3.597,-3.5914,-3.4867,-3.2635,-2.9245,-2.6381,0.0,0.0,0.0,0.0,0.0,0.0,0.0,0.0,0.0,0.0,0.0,0.0,0.0,0.0,0.0,0.0,0.0,0.0,0.0,0.0,0.0,0.0,0.0,-1.4459,0.0,0.0,0.0,0.0,0.0,0.0,0.0,0.0,0.0,-1.4716,-1.6902,-1.8789,-1.9445,-1.9876,-2.0435,-2.1324,0.0,0.0,0.0,0.0,0.0,0.0,0.0,-1.8757,-1.8252,-1.7753,-1.7503,-1.7718,-1.7725,-1.7562,-1.719,0.0,0.0,-1.2834,-1.249,-1.2545,-1.2357,-1.2004,-1.1726,-1.1647,-1.1469,-1.1231,0.0,0.0,0.0,0.0,0.0,0.0,0.0,0.0,-2.5862,-2.5439,0.0,-2.307,0.0,0.0,0.0,0.0,0.0,-2.4712,0.0,0.0,-3.1478,-3.0868,-2.5869,-2.8803,-3.036,-3.0245,-2.8854,-2.6913,-2.4639,-2.5302,0.0,0.0,0.0,0.0,0.0,0.0,-2.6926,-2.724,-3.2939,-3.5955,-3.5947,-3.5994,-3.597,-3.589,-3.5899,-3.5869,-3.5752,-3.2694,-3.0886,-3.0642,-2.3676,0.0,0.0,0.0,0.0,0.0,0.0,0.0,0.0,0.0,0.0,0.0,0.0,0.0,0.0,0.0,0.0,0.0,0.0,0.0,0.0,-1.4705,0.0,0.0,0.0,0.0,0.0,0.0,0.0,0.0,0.0,0.0,-1.5773,-1.8107,-2.0198,-2.0985,0.0,0.0,0.0,0.0,-2.2302,-2.1441,-2.1286,-2.1114,-2.0597,-2.079,-2.1044,-2.1069,0.0,0.0,-1.9936,-1.9099,-1.827,-1.7192,-1.7349,-1.7048,-1.6002,-1.5168,-1.4588,-1.4212,-1.3825,-1.3538,-1.3509,-1.3558,-1.3613,-3.1562,0.0,0.0,0.0,0.0,-2.7622,-2.839,-3.0037,-2.9246,-2.8217,-2.7093,-2.6998,0.0,0.0,0.0,0.0,0.0,0.0,-2.9091,-3.1371,-3.2507,-3.2743,-3.2317,-3.3271,-3.3777,-3.3764,-3.3945,-3.3957,-3.3849,-3.3465,-2.9056,-2.0901,0.0,0.0,0.0,0.0,-2.7827,-2.978,-3.3239,-3.5077,-3.5076,-3.5646,-3.5909,-3.5894,-3.588,-3.5899,-3.5889,-3.4954,-3.3283,-3.088,-2.8111,0.0,0.0,0.0,0.0,0.0,0.0,0.0,0.0,0.0,0.0,0.0,0.0,0.0,0.0,0.0,0.0,0.0,0.0,0.0,-1.4788,-1.6608,-1.6792,0.0,0.0,0.0,0.0,0.0,0.0,0.0,0.0,0.0,-1.8818,-1.9593,-2.0517,0.0,0.0,-2.1236,-2.1712,-2.2611,-2.3091,-2.2677,0.0,0.0,0.0,-2.2161,-2.1999,-2.1842,-2.2781,-2.3323,-2.2763,-2.2018,-2.1338,-2.0903,-1.9879,-1.8961,-1.85,-1.7601,-1.6878,-1.6585,-1.6075,-1.5719,-1.5695,-1.5434,-1.5092,-3.7213,-3.3687,-3.1789,-3.1832,-3.3011,-3.1943,-3.2746,-3.4761,-3.364,-3.2592,-3.1574,-3.0779,-2.9714,-2.8474,-2.8055,0.0,0.0,0.0,-3.1751,-3.4111,-3.4139,-3.4871,-3.6088,-3.5171,-3.5627,-3.7152,-3.6408,-3.6293,-3.6805,-3.6285,-3.2453,-2.5524,0.0,0.0,-2.4572,-2.6758,-2.8675,-3.033,-3.2869,-3.4195,-3.4194,-3.4969,-3.5393,-3.5432,-3.5744,-3.5899,-3.5889,-3.5889,-3.4959,-3.2898,-3.1012,-2.7971,0.0,0.0,0.0,0.0,0.0,0.0,0.0,0.0,0.0,0.0,0.0,-1.4905,-1.253,0.0,0.0,0.0,-1.6003,-1.6112,-1.6622,-1.7708,0.0,0.0,0.0,0.0,0.0,0.0,0.0,-1.5838,-1.8666,-2.0771,-2.0985,-2.1424,-2.204,-2.2973,-2.2583,-2.2439,-2.3106,0.0,-2.4521,-2.4325,-2.4526,-2.4589,-2.4178,-2.4042,-2.3903,-2.3698,-2.4405,-2.4856,-2.4551,-2.3869,-2.3322,-2.283,-2.1758,-2.0639,-2.0147,-1.9354,-1.8633,-1.8286,-1.7682,-1.722,-1.718,-1.6763,-1.6287,-4.1956,-4.091,-3.6379,-3.5781,-3.7592,-3.6131,-3.7151,-3.9735,-3.8212,-3.7581,-3.7287,-3.4321,-3.2577,-3.1776,-2.9697,0.0,-3.1694,-3.324,-3.4567,-3.5579,-3.6415,-3.7116,-3.7587,-3.5452,-3.6307,-3.9778,-3.6913,-3.5525,-3.5637,-3.5557,-3.4649,-3.299,-3.1399,-2.9436,-2.7307,-2.8677,-2.9527,-2.9624,-3.1964,-3.3255,-3.341,-3.4121,-3.4574,-3.4681,-3.5407,-3.5811,-3.5889,-3.5889,-3.5889,-3.5791,-3.2879,-3.072,-2.9507,0.0,0.0,0.0,0.0,0.0,0.0,0.0,0.0,0.0,0.0,0.0,0.0,0.0,0.0,0.0,-1.9161,0.0,-1.929,-1.8578,0.0,0.0,0.0,-1.7576,-1.7517,-1.8739,-1.954,-1.9423,0.0,0.0,-2.2596,-2.3376,-2.4369,-2.578,-2.5345,-2.5129,-2.578,-2.6178,-2.6371,-2.6028,-2.6284,-2.6312,-2.5852,-2.6011,-2.6167,-2.609,-2.6138,-2.603,-2.5592,-2.4975,-2.4347,-2.3606,-2.2884,-2.2044,-2.0923,-2.0461,-2.0079,-1.9356,-1.8625,-1.805,-1.8015,-1.7578,-1.718,-4.3094,-4.2727,-4.0359,-3.9717,-4.0139,-3.9197,-3.9197,-3.979,-3.8836,-3.8065,-3.7452,-3.667,-3.6211,-3.6046,-3.6111,-3.6389,-3.6897,-3.7704,-3.8225,-3.8505,-3.9108,-3.8783,-3.7714,-3.7769,-3.7294,-3.6474,-3.691,-3.7498,-3.8125,-3.7513,-3.6393,-3.4784,-3.3114,-3.1395,-2.9717,-3.0023,-3.0288,-3.0414,-3.1023,-3.2026,-3.3361,-3.358,-3.397,-3.4589,-3.4822,-3.5226,-3.5869,-3.5889,-3.5889,-3.5869,-3.5115,-3.3414,-3.058,-2.5847,0.0,0.0,0.0,0.0,0.0,0.0,0.0,0.0,0.0,-1.62,-1.2767,0.0,-1.7514,0.0,-2.0037,-2.2073,-2.2652,-2.1951,0.0,0.0,-1.9021,-1.8953,-2.0115,-2.0734,-2.1343,-2.2068,-2.3267,-2.432,-2.4909,-2.5177,-2.6007,-2.7818,-2.6702,-2.5869,-2.6561,-2.727,-2.7589,-2.7232,-2.723,-2.7106,-2.6656,-2.6854,-2.721,-2.7461,-2.7504,-2.7372,-2.6961,-2.5952,-2.4944,-2.421,-2.3125,-2.2187,-2.1415,-2.1002,-2.065,-2.0037,-1.8951,-1.8084,-1.8084,-1.7645,-1.7222,-4.4562,-4.4488,-4.3608,-4.2635,-4.157,-4.0781,-4.0634,-4.0891,-4.012,-3.9515,-3.9056,-3.834,-3.7826,-3.7496,-3.7588,-3.7684,-3.7811,-3.8503,-3.8683,-3.8558,-3.9216,-3.8861,-3.7734,-3.8191,-3.7677,-3.6365,-3.7274,-3.8379,-3.9487,-3.8359,-3.7704,-3.7546,-3.6278,-3.4822,-3.3147,-3.0656,-2.9579,-2.9938,-3.0475,-3.1237,-3.2216,-3.2625,-3.2659,-3.2352,-3.2703,-3.2756,-3.2433,-3.2433,-3.2263,-3.1913,-3.1893,-3.0881,-2.8554,-2.4767,-2.1601,0.0,0.0,0.0,0.0,0.0,0.0,0.0,0.0,0.0,0.0,0.0,-1.927,-1.8401,-2.1707,-2.359,-2.2802,-2.2653,-2.2486,-2.2255,-2.1814,-2.2147,-2.3685,-2.3866,-2.4192,-2.5003,-2.5502,-2.6004,-2.6676,-2.6686,-2.7179,-2.8715,-2.8235,-2.789,-2.8159,-2.8591,-2.8685,-2.8406,-2.8331,-2.8112,-2.7715,-2.7814,-2.7965,-2.8061,-2.8039,-2.7905,-2.7604,-2.6586,-2.5583,-2.49,-2.3903,-2.2834,-2.2021,-2.1686,-2.1223,-2.0306,-1.9333,-1.8525,-1.8185,-1.7645,-1.7222,-4.5993,-4.5902,-4.5902,-4.469,-4.2708,-4.2029,-4.1717,-4.1625,-4.0836,-4.0616,-4.0726,-3.9551,-3.8615,-3.7918,-3.7221,-3.7034,-3.7238,-3.7904,-3.8016,-3.7737,-3.8428,-3.8516,-3.802,-3.7922,-3.7924,-3.802,-3.779,-3.8534,-4.0062,-3.861,-3.8514,-3.9737,-3.9122,-3.7838,-3.5886,-3.1091,-2.8756,-2.902,-3.0049,-3.0642,-3.0784,-3.131,-3.0872,-2.943,-3.0053,-2.973,-2.819,-2.8112,-2.7801,-2.7107,-2.7048,-2.6879,-2.6359,-2.3135,-2.1074,0.0,-1.7372,0.0,0.0,0.0,0.0,0.0,0.0,0.0,0.0,-2.1885,-2.172,-2.1152,-2.3697,-2.4504,-2.2435,-2.284,-2.3745,-2.5029,-2.5191,-2.5792,-2.7118,-2.7084,-2.7108,-2.7688,-2.7335,-2.7307,-2.7855,-2.7906,-2.817,-2.9,-2.9685,-3.0053,-3.0189,-2.998,-2.9783,-2.9732,-2.9389,-2.9009,-2.8748,-2.8622,-2.8494,-2.822,-2.8088,-2.7955,-2.7675,-2.6916,-2.6108,-2.5384,-2.4557,-2.3735,-2.2614,-2.2305,-2.1782,-2.0723,-1.9873,-1.9097,-1.8299,-1.7645,-1.7278,-4.6507,-4.5902,-4.5902,-4.5626,-4.5223,-4.5039,-4.247,-3.834,-3.7551,-3.7936,-3.9221,-4.0212,-4.0561,-4.0432,-4.0267,-4.0226,-4.0233,-3.997,-3.9826,-3.973,-3.9675,-3.9707,-3.9753,-3.909,-3.9143,-3.9695,-3.8397,-3.8228,-3.9221,-3.8916,-3.8246,-3.723,-3.7075,-3.5809,-3.3561,0.0,0.0,0.0,-2.9284,-2.9768,-3.0552,-2.9454,-2.8713,-2.8365,-2.852,0.0,-2.819,-2.817,-2.8112,-2.7976,-2.7957,0.0,0.0,0.0,0.0,0.0,0.0,0.0,0.0,0.0,0.0,0.0,-2.3403,-2.2734,-2.1903,-2.2338,-2.345,-2.52,-2.5274,-2.5803,-2.7287,-2.6858,-2.6598,-2.6873,-2.6889,-2.7191,-2.8067,-2.8017,-2.81,-2.858,-2.847,-2.8234,-2.8063,-2.847,-2.91,-2.9751,-3.0527,-3.123,-3.1826,-3.1422,-3.1117,-3.0937,-3.0084,-2.9335,-2.8889,-2.8684,-2.8525,-2.8284,-2.8103,-2.779,-2.724,-2.6811,-2.6014,-2.4964,-2.4465,-2.3989,-2.3094,-2.2807,-2.2452,-2.1728,-2.08,-1.9757,-1.8389,-1.7667,-1.7155,-4.7462,0.0,-4.7095,-4.6416,0.0,-4.5314,-4.302,-3.9313,-4.012,-4.0689,-4.1093,-4.1515,-4.1699,-4.1644,-4.0451,-3.9918,-3.9863,-3.8815,-3.8812,-3.9677,-3.9544,-3.9779,-4.0271,-4.0131,-4.0558,-4.1436,-3.9794,-3.9642,-4.0769,-4.0043,-3.9412,-3.8953,-3.857,-3.7747,-3.6539,-3.6498,-3.4697,-3.1064,-3.1708,-3.199,-3.1748,-3.0583,-2.9564,-2.8727,0.0,0.0,0.0,0.0,0.0,0.0,0.0,0.0,0.0,0.0,0.0,-2.8076,-2.6205,-2.5918,-2.7943,-2.738,-2.7636,-2.9286,-2.9011,-2.7483,-2.4549,-2.5793,-2.7251,-2.8412,-2.8038,-2.8372,-2.9888,-2.9298,-2.8886,-2.92,-2.8853,-2.8747,-2.9055,-2.897,-2.8949,-2.9084,-2.8952,-2.8682,-2.8388,-2.8862,-2.9473,-3.011,-3.0771,-3.1493,-3.2178,-3.1948,-3.1414,-3.073,-3.0081,-2.938,-2.8951,-2.8763,-2.8636,-2.8444,-2.8235,-2.794,-2.7524,-2.6967,-2.6269,-2.5231,-2.4681,-2.406,-2.3437,-2.3078,-2.2795,-2.2061,-2.1352,-2.0449,-1.9039,-1.8113,-1.7379,-4.8398,-4.8526,-4.8526,-4.7407,-4.5571,-4.5553,-4.4287,-4.2286,0.0,0.0,0.0,-4.3075,-4.2855,-4.258,-4.0653,-3.9698,-3.946,-3.8046,-3.8195,-3.9629,-3.9556,-3.9858,-4.0481,-4.1033,-4.1689,-4.2297,-4.1246,-4.138,-4.2488,-4.1323,-4.1074,-4.159,-4.0922,-4.0444,-4.0329,-4.031,-3.8216,-3.4236,-3.4783,-3.4564,-3.3222,-3.2154,-3.0776,-2.9068,-2.8489,-2.7684,-2.6695,-2.6668,-2.6751,-2.6893,-2.6893,-2.6859,-2.6734,-2.6734,-2.6948,-2.7381,-2.7405,-2.8649,-3.1387,-3.1001,-3.1757,-3.444,-3.3793,-3.1754,-2.8048,-2.97,-3.0816,-3.0623,-3.0598,-3.0825,-3.1377,-3.0767,-3.0548,-3.1168,-3.0433,-2.9888,-2.9855,-2.968,-2.9514,-2.9456,-2.9193,-2.8906,-2.8767,-2.9331,-2.9812,-3.0325,-3.1023,-3.1632,-3.2161,-3.202,-3.1376,-3.0427,-2.9978,-2.9589,-2.9059,-2.8842,-2.8779,-2.8621,-2.8381,-2.8137,-2.7775,-2.7225,-2.6467,-2.5494,-2.4781,-2.4176,-2.3569,-2.3198,-2.2867,-2.2206,-2.1714,-2.1091,-1.9838,-1.87,-1.7846,-4.8728,-4.9407,-4.9407,-4.9205,-4.8893,-4.8893,-4.7884,-4.6122,-4.4433,-4.3608,-4.3571,-4.4856,-4.5021,-4.436,-4.4011,-4.3479,-4.2782,-4.1882,-4.1603,0.0,-4.1385,-4.1089,-4.1045,-4.1776,-4.1613,-4.0824,-4.1873,-4.2163,-4.1781,-4.2221,-4.2526,-4.2507,-4.1762,-4.0979,-4.0368,-4.031,-3.9583,-3.8129,-3.6182,-3.4769,-3.3853,-3.1667,-2.974,-2.8112,-2.8076,-2.7257,-2.5689,-2.5803,-2.6129,-2.6848,-2.6887,-2.8163,-3.089,-3.1084,-3.2108,-3.4227,-3.4442,-3.4676,-3.5103,-3.5059,-3.4863,-3.4562,-3.3803,-3.2718,-3.1448,-3.1518,-3.1359,-3.0731,-3.1144,-3.145,-3.1546,-3.1331,-3.115,-3.1232,-3.0484,-2.9891,-2.9823,-2.979,-2.9701,-2.951,-2.9373,-2.9228,-2.9163,-3.0024,-3.0631,-3.0724,-3.1551,-3.2382,-3.237,-3.2232,-3.1748,-3.0908,-3.0543,-3.0038,-2.9212,-2.8904,-2.8842,-2.8636,-2.8493,-2.8137,-2.7509,-2.7174,-2.6467,-2.5106,-2.4781,-2.4279,-2.3628,-2.3271,-2.304,-2.271,-2.2258,-2.1518,-2.0435,-1.9354,-1.8441,-4.9884,-5.0215,-5.0233,-5.0233,-5.0215,-4.9774,-4.9169,-4.8324,-4.6783,-4.5608,-4.4892,-4.559,-4.57,-4.5278,-4.4433,-4.3846,-4.3442,-4.2213,-4.1882,-4.2286,-4.2507,-4.2519,-4.253,-4.3567,-4.3932,-4.3649,-4.3969,-4.4169,-4.4208,-4.4188,-4.3902,-4.3405,-4.2144,-4.1304,-4.0941,-4.052,-4.01,-3.9699,-3.8548,-3.713,-3.5376,-3.3868,-3.2481,-3.1251,-3.054,-2.999,-2.9648,-2.9751,-3.0214,-3.1031,-3.1518,-3.2517,-3.3988,-3.4105,-3.4656,-3.5791,-3.5889,-3.5899,-3.5895,-3.5893,-3.572,-3.5341,-3.4915,-3.4309,-3.3485,-3.2909,-3.2477,-3.2108,-3.23,-3.259,-3.2916,-3.207,-3.1618,-3.1968,-3.0836,-2.9994,-2.9874,-2.9806,-2.9924,-3.0171,-2.9832,-2.9808,-3.0454,-3.1009,-3.1378,-3.1454,-3.2166,-3.2521,-3.2422,-3.2354,-3.2073,-3.1376,-3.0988,-3.0444,-2.9629,-2.9332,-2.9136,-2.8826,-2.8621,-2.8317,-2.786,-2.761,-2.7019,-2.6147,-2.5659,-2.5063,-2.4176,-2.3839,-2.3484,-2.2957,-2.2687,-2.2014,-2.0906,-1.95,-1.8215,-5.0912,-5.1077,-5.1077,-5.1077,-5.0986,-5.0196,-4.9848,-4.9756,-4.8948,-4.7884,-4.6801,-4.6544,-4.6342,-4.6049,-4.4856,-4.4213,-4.3864,-4.2763,-4.2525,-4.3149,-4.3754,-4.411,-4.4294,-4.5319,-4.5951,-4.6195,-4.5879,-4.5878,-4.605,-4.5734,-4.5029,-4.3978,-4.2698,-4.1877,-4.1476,-4.0693,-4.0311,-4.0329,-4.031,-3.9239,-3.7139,-3.6144,-3.5225,-3.4323,-3.307,-3.254,-3.2859,-3.3174,-3.3646,-3.4275,-3.5124,-3.5694,-3.5889,-3.5889,-3.5889,-3.5889,-3.5889,-3.5889,-3.5894,-3.5887,-3.5891,-3.5898,-3.584,-3.5554,-3.4911,-3.4289,-3.3689,-3.339,-3.3324,-3.3625,-3.3917,-3.3038,-3.2363,-3.2791,-3.16,-3.0773,-3.0544,-3.0459,-3.0634,-3.1128,-3.0696,-3.0771,-3.1621,-3.1953,-3.2097,-3.2429,-3.2581,-3.2555,-3.2491,-3.2422,-3.2196,-3.1858,-3.1432,-3.0811,-3.0074,-2.9761,-2.9483,-2.8982,-2.8748,-2.8589,-2.8348,-2.8152,-2.774,-2.6967,-2.6549,-2.5783,-2.4794,-2.4292,-2.3839,-2.3138,-2.2859,-2.2416,-2.0906,-1.9324,-1.8045,-5.1242,-5.1848,-5.1885,-5.1885,-5.1793,-5.1022,-5.0692,-5.0582,-4.9829,-4.9407,-4.904,-4.8416,-4.7645,-4.704,-4.6764,-4.6342,-4.5681,-4.5535,-4.5443,-4.5498,-4.5645,-4.592,-4.6265,-4.6357,-4.6099,-4.5923,-4.6627,-4.6417,-4.5355,-4.597,-4.5583,-4.4188,-4.3845,-4.2985,-4.1628,-4.0712,-4.0311,-4.0329,-4.031,-3.9794,-3.8782,-3.7215,-3.599,-3.5111,-3.4323,-3.3211,-3.2016,-3.2686,-3.3242,-3.3393,-3.4269,-3.5109,-3.5791,-3.5889,-3.5889,-3.5889,-3.5889,-3.5889,-3.5894,-3.5887,-3.5886,-3.5891,-3.5893,-3.5834,-3.5671,-3.5632,-3.497,-3.3884,-3.3944,-3.4323,-3.436,-3.4005,-3.3755,-3.3738,-3.2924,-3.2432,-3.2238,-3.2336,-3.2307,-3.2166,-3.1977,-3.2109,-3.2235,-3.2646,-3.3013,-3.3158,-3.2875,-3.2639,-3.2557,-3.2473,-3.2406,-3.2232,-3.1875,-3.1128,-3.0269,-2.9903,-2.9657,-2.9136,-2.8858,-2.87,-2.846,-2.8217,-2.7806,-2.7306,-2.6759,-2.6122,-2.5133,-2.435,-2.406,-2.3386,-2.2952,-2.2344,-2.0779,-1.9233,-1.8235,-5.2417,-5.2711,-5.2711,-5.2729,-5.2601,-5.1848,-5.1499,-5.1426,-5.0637,-5.0031,-4.9572,-4.9205,-4.86,-4.7829,-4.7829,-4.7627,-4.7333,-4.7315,-4.7058,-4.6691,-4.7095,-4.6929,-4.636,-4.7363,-4.7478,-4.6861,-4.747,-4.755,-4.7074,-4.6691,-4.5908,-4.4819,-4.4265,-4.3654,-4.2889,-4.1189,-4.0521,-4.0979,-4.0559,-4.0119,-3.9699,-3.861,-3.7349,-3.6048,-3.5273,-3.4326,-3.3276,-3.3664,-3.3965,-3.402,-3.4866,-3.5519,-3.5869,-3.5889,-3.5889,-3.5889,-3.5889,-3.5889,-3.5889,-3.5895,-3.5896,-3.5893,-3.5895,-3.5895,-3.5871,-3.5856,-3.5515,-3.5048,-3.5091,-3.5233,-3.5126,-3.4638,-3.4222,-3.4032,-3.3316,-3.28,-3.2661,-3.2632,-3.2699,-3.3067,-3.2637,-3.2713,-3.3463,-3.3761,-3.3753,-3.3616,-3.3196,-3.2894,-3.2654,-3.2473,-3.2406,-3.2354,-3.2179,-3.1731,-3.0937,-3.051,-3.0107,-2.9556,-2.9106,-2.8811,-2.8652,-2.8411,-2.8054,-2.7625,-2.7306,-2.6774,-2.596,-2.5189,-2.4624,-2.3839,-2.248,-2.1576,-2.0475,-1.9364,-1.8713,-5.3206,-5.3206,-5.3206,-5.3206,-5.3151,-5.2582,-5.2325,-5.2234,-5.1481,-5.0784,-5.0251,-5.0031,-4.9462,-4.8691,-4.8416,-4.8324,-4.8324,-4.8324,-4.8012,-4.7535,-4.8049,-4.77,-4.6801,-4.7959,-4.8344,-4.793,-4.8124,-4.8345,-4.8304,-4.7072,-4.6085,-4.5478,-4.4739,-4.4246,-4.3843,-4.2316,-4.159,-4.1418,-4.0693,-4.0311,-4.0234,-3.9699,-3.8648,-3.7254,-3.6205,-3.5307,-3.4443,-3.4615,-3.4623,-3.442,-3.5305,-3.5846,-3.5846,-3.5878,-3.5889,-3.5889,-3.5889,-3.5889,-3.5889,-3.5889,-3.5885,-3.5888,-3.589,-3.5893,-3.5897,-3.5857,-3.586,-3.5839,-3.5864,-3.5771,-3.566,-3.5127,-3.4707,-3.4475,-3.3916,-3.3547,-3.3448,-3.335,-3.3565,-3.3989,-3.3617,-3.3431,-3.4447,-3.448,-3.416,-3.3891,-3.3496,-3.3154,-3.2798,-3.2623,-3.2457,-3.2422,-3.2406,-3.2108,-3.1565,-3.1167,-3.0608,-2.9935,-2.9422,-2.9106,-2.8873,-2.8556,-2.8348,-2.794,-2.779,-2.7357,-2.6549,-2.5837,-2.4983,-2.4023,-2.2706,-2.1343,-2.0767,-1.9721,-1.9183,-5.3206,-5.3206,-5.3206,-5.3206,-5.3188,-5.3151,-5.3115,-5.3004,-5.2289,-5.1885,-5.1665,-5.1059,-5.0306,-4.9499,-4.8728,-4.8324,-4.8324,-4.8324,-4.8288,-4.8196,-4.8288,-4.8269,-4.8214,-4.8269,-4.8326,-4.8236,-4.8492,-4.8464,-4.8082,-4.6868,-4.6108,-4.6038,-4.5513,-4.4838,-4.4246,-4.4553,-4.3847,-4.182,-4.0788,-4.033,-4.033,-4.0272,-3.9756,-3.8801,-3.733,-3.6124,-3.5318,-3.5297,-3.5014,-3.4186,-3.5166,-3.5721,-3.5729,-3.584,-3.5889,-3.5889,-3.5889,-3.5889,-3.5889,-3.5889,-3.5894,-3.5899,-3.5888,-3.5893,-3.5891,-3.5878,-3.5882,-3.588,-3.5883,-3.5845,-3.5791,-3.5601,-3.5493,-3.5372,-3.529,-3.5134,-3.5015,-3.4843,-3.5026,-3.4994,-3.4808,-3.4699,-3.4771,-3.4495,-3.434,-3.4154,-3.3752,-3.3332,-3.3154,-3.283,-3.2573,-3.2439,-3.2388,-3.2196,-3.1731,-3.1452,-3.0993,-3.0302,-2.9821,-2.9499,-2.8998,-2.8604,-2.8396,-2.8186,-2.7989,-2.7575,-2.6916,-2.6126,-2.5188,-2.4133,-2.284,-2.1693,-2.0704,-2.014,-1.9662,-5.3206,-5.3206,-5.3206,-5.3206,-5.3206,-5.3206,-5.3206,-5.317,-5.2913,-5.2454,-5.1995,-5.1683,-5.1114,-5.0325,-4.9499,-4.882,-4.8343,-4.8324,-4.8324,-4.8324,-4.8324,-4.8324,-4.8324,-4.8324,-4.8324,-4.8306,-4.8439,-4.8251,-4.7863,-4.7674,-4.7124,-4.6247,-4.61,-4.564,-4.5029,-4.5126,-4.4515,-4.3061,-4.1303,-4.054,-4.096,-4.0578,-4.0138,-3.9794,-3.8725,-3.7674,-3.6814,-3.6439,-3.6065,-3.5776,-3.572,-3.566,-3.5721,-3.5814,-3.5889,-3.5889,-3.5889,-3.5889,-3.5889,-3.5889,-3.5889,-3.5889,-3.588,-3.5884,-3.589,-3.5891,-3.5898,-3.5884,-3.5896,-3.5875,-3.5872,-3.581,-3.5728,-3.5637,-3.5593,-3.5496,-3.536,-3.532,-3.5289,-3.5176,-3.5108,-3.502,-3.4849,-3.4706,-3.4539,-3.4316,-3.403,-3.3725,-3.3361,-3.3032,-3.2734,-3.259,-3.2439,-3.2354,-3.2196,-3.1785,-3.1338,-3.0633,-3.0064,-2.9556,-2.909,-2.8826,-2.8636,-2.8332,-2.8152,-2.789,-2.7291,-2.6226,-2.527,-2.3743,-2.2472,-2.1794,-2.0387,-2.0373,-2.0072,-5.2968,-5.3188,-5.3206,-5.3206,-5.3206,-5.3206,-5.3206,-5.3206,-5.3206,-5.2876,-5.2454,-5.238,-5.194,-5.1206,-5.06,-4.9719,-4.8746,-4.8453,-4.8324,-4.8324,-4.8324,-4.8324,-4.8324,-4.8324,-4.8324,-4.8324,-4.8324,-4.8145,-4.7881,-4.8128,-4.7654,-4.6685,-4.6486,-4.61,-4.5608,-4.539,-4.4878,-4.3806,-4.2219,-4.1495,-4.1476,-4.0979,-4.0559,-4.0272,-3.9718,-3.9011,-3.8151,-3.7428,-3.6861,-3.6622,-3.619,-3.5869,-3.5743,-3.5833,-3.5889,-3.5889,-3.5889,-3.5889,-3.5889,-3.5889,-3.5889,-3.5889,-3.5889,-3.5885,-3.5888,-3.589,-3.5912,-3.5917,-3.5903,-3.5896,-3.5883,-3.5852,-3.581,-3.5728,-3.5707,-3.5612,-3.5422,-3.5412,-3.5335,-3.5226,-3.5126,-3.502,-3.4908,-3.4829,-3.4687,-3.4473,-3.4293,-3.3979,-3.357,-3.3255,-3.2952,-3.2719,-3.2557,-3.2507,-3.2405,-3.2126,-3.162,-3.0971,-3.0651,-3.0027,-2.9319,-2.9091,-2.8857,-2.8556,-2.8299,-2.8088,-2.7444,-2.6414,-2.5061,-2.3514,-2.2851,-2.2292,-2.1487,-2.0976,-2.0772,-5.2509,-5.317,-5.3206,-5.3206,-5.3206,-5.3206,-5.3206,-5.3206,-5.3206,-5.3151,-5.3041,-5.3133,-5.2674,-5.2087,-5.1793,-5.1041,-4.9774,-4.8857,-4.8379,-4.8324,-4.8324,-4.8324,-4.8324,-4.8324,-4.8324,-4.8324,-4.8324,-4.8306,-4.8254,-4.7953,-4.7694,-4.7406,-4.6685,-4.6297,-4.6089,-4.5506,-4.4853,-4.413,-4.3498,-4.2792,-4.1724,-4.1552,-4.117,-4.0482,-4.0329,-3.989,-3.903,-3.8188,-3.7424,-3.681,-3.6688,-3.6376,-3.592,-3.5859,-3.5883,-3.5889,-3.5889,-3.5889,-3.5889,-3.5889,-3.5889,-3.5889,-3.5889,-3.5889,-3.588,-3.5888,-3.5913,-3.5953,-3.5937,-3.5882,-3.5892,-3.5889,-3.5838,-3.5737,-3.5728,-3.5635,-3.5476,-3.5412,-3.535,-3.5223,-3.5143,-3.511,-3.5057,-3.4927,-3.4788,-3.4727,-3.4495,-3.4154,-3.3787,-3.3496,-3.3243,-3.2943,-3.2737,-3.2623,-3.2557,-3.2422,-3.1894,-3.1372,-3.1219,-3.0792,-2.9907,-2.943,-2.9217,-2.892,-2.8444,-2.825,-2.7875,-2.6805,-2.5714,-2.442,-2.3738,-2.2827,-2.204,-2.15,-2.1724,-5.2986,-5.3206,-5.3206,-5.3206,-5.3206,-5.3206,-5.3206,-5.3206,-5.3206,-5.3206,-5.3206,-5.3206,-5.3059,-5.2729,-5.227,-5.172,-5.1132,-4.9866,-4.8893,-4.8416,-4.8324,-4.8324,-4.8324,-4.8324,-4.8324,-4.8324,-4.8324,-4.8324,-4.8327,-4.8345,-4.8169,-4.7657,-4.7522,-4.6994,-4.6107,-4.5299,-4.4808,-4.4775,-4.3751,-4.314,-4.3137,-4.2679,-4.1991,-4.1227,-4.1113,-4.0731,-3.9928,-3.9069,-3.8495,-3.819,-3.7668,-3.7113,-3.6547,-3.6015,-3.5801,-3.5883,-3.5889,-3.5889,-3.5908,-3.5908,-3.5928,-3.5908,-3.5908,-3.5889,-3.5889,-3.588,-3.5923,-3.5952,-3.5906,-3.5897,-3.5886,-3.589,-3.5968,-3.585,-3.5801,-3.5786,-3.5736,-3.5553,-3.5379,-3.5335,-3.5242,-3.5162,-3.5111,-3.4984,-3.4945,-3.4809,-3.4623,-3.4344,-3.3986,-3.3752,-3.3458,-3.3081,-3.2943,-3.277,-3.2672,-3.2573,-3.2214,-3.18,-3.1619,-3.119,-3.0356,-2.9839,-2.9633,-2.914,-2.8715,-2.8332,-2.791,-2.7208,-2.6107,-2.5098,-2.4162,-2.3244,-2.2235,-2.2122,-2.2463,-5.2931,-5.3206,-5.3206,-5.3206,-5.3206,-5.3206,-5.3206,-5.3206,-5.3206,-5.3206,-5.3206,-5.3206,-5.3206,-5.3096,-5.2656,-5.227,-5.1903,-5.0894,-4.9866,-4.8857,-4.8398,-4.8324,-4.8324,-4.8324,-4.8324,-4.8324,-4.8324,-4.8324,-4.8306,-4.8477,-4.8328,-4.7974,-4.7909,-4.7529,-4.661,-4.5735,-4.5337,-4.5252,-4.4425,-4.3862,-4.3776,-4.346,-4.2851,-4.2087,-4.1667,-4.1246,-4.0731,-3.9928,-3.9336,-3.8934,-3.8204,-3.7602,-3.7193,-3.6871,-3.6709,-3.6774,-3.6832,-3.6883,-3.6824,-3.6629,-3.6376,-3.6356,-3.6103,-3.5908,-3.5889,-3.5889,-3.5982,-3.6325,-3.6411,-3.6528,-3.6795,-3.6884,-3.6886,-3.6863,-3.6533,-3.6412,-3.6512,-3.6491,-3.6411,-3.643,-3.6351,-3.6026,-3.5715,-3.5494,-3.523,-3.4963,-3.4749,-3.4539,-3.4179,-3.3935,-3.3643,-3.335,-3.3099,-3.2961,-3.2834,-3.2654,-3.2506,-3.2249,-3.2027,-3.1353,-3.0584,-3.0346,-3.0124,-2.9354,-2.8811,-2.8541,-2.8122,-2.753,-2.6607,-2.5625,-2.4789,-2.4134,-2.3523,-2.3192,-2.3264,-5.2527,-5.317,-5.3206,-5.3206,-5.3164,-5.3206,-5.3164,-5.3164,-5.3206,-5.3206,-5.3206,-5.3206,-5.3164,-5.3164,-5.3096,-5.2747,-5.2142,-5.1867,-5.1077,-4.9866,-4.9077,-4.8618,-4.8361,-4.8324,-4.8324,-4.8324,-4.8324,-4.8324,-4.8324,-4.8344,-4.8306,-4.8235,-4.792,-4.763,-4.7281,-4.6591,-4.5951,-4.5555,-4.5304,-4.4653,-4.3815,-4.3926,-4.3651,-4.283,-4.2182,-4.1686,-4.1304,-4.0597,-3.9871,-3.9125,-3.8443,-3.8043,-3.8017,-3.8175,-3.8054,-3.8071,-3.8357,-3.8312,-3.8221,-3.7642,-3.7292,-3.7233,-3.6688,-3.6045,-3.6298,-3.6415,-3.6645,-3.7195,-3.7277,-3.7577,-3.8144,-3.8278,-3.8324,-3.8428,-3.7683,-3.7486,-3.8044,-3.8013,-3.7752,-3.7752,-3.7828,-3.7571,-3.6659,-3.6458,-3.6007,-3.5477,-3.5171,-3.4891,-3.4554,-3.4334,-3.3983,-3.368,-3.3339,-3.3178,-3.3037,-3.2898,-3.2705,-3.2473,-3.2283,-3.176,-3.0998,-3.0717,-3.0277,-2.9518,-2.9029,-2.8716,-2.8332,-2.778,-2.7195,-2.6451,-2.5841,-2.5343,-2.4827,-2.4279,-2.3806,-5.3004,-5.3206,-5.3206,-5.3146,-5.3103,-5.3164,-5.3146,-5.306,-5.3164,-5.3206,-5.3206,-5.3206,-5.3164,-5.306,-5.3164,-5.3017,-5.2645,-5.221,-5.1825,-5.1174,-5.0486,-4.9407,-4.8526,-4.8324,-4.8324,-4.8324,-4.8324,-4.8324,-4.8324,-4.8324,-4.8324,-4.8306,-4.8181,-4.7922,-4.7575,-4.7095,-4.6387,-4.5675,-4.5357,-4.4918,-4.4339,-4.4391,-4.4193,-4.3475,-4.3302,-4.264,-4.159,-4.0731,-4.0234,-3.9947,-3.9143,-3.8767,-3.8804,-3.8406,-3.8264,-3.8423,-3.8419,-3.8447,-3.8488,-3.8305,-3.8168,-3.8168,-3.7837,-3.7818,-3.7818,-3.7818,-3.794,-3.8166,-3.8146,-3.8252,-3.8489,-3.8573,-3.8805,-3.9232,-3.8669,-3.8237,-3.8364,-3.8246,-3.816,-3.8105,-3.8084,-3.7867,-3.76,-3.7368,-3.7128,-3.6749,-3.6235,-3.566,-3.5255,-3.4759,-3.4383,-3.3931,-3.3597,-3.3426,-3.325,-3.3086,-3.2898,-3.2639,-3.2439,-3.2267,-3.149,-3.0958,-3.0258,-2.9409,-2.9182,-2.892,-2.8668,-2.8268,-2.7745,-2.721,-2.673,-2.6187,-2.5439,-2.4827,-2.4443,-5.3103,-5.3103,-5.3164,-5.3164,-5.3103,-5.3103,-5.3103,-5.3121,-5.3158,-5.3201,-5.3182,-5.3206,-5.3121,-5.2999,-5.3103,-5.3042,-5.2882,-5.2566,-5.2163,-5.1621,-5.0871,-5.0006,-4.9132,-4.8636,-4.8324,-4.8324,-4.8324,-4.8324,-4.8324,-4.8324,-4.8324,-4.8324,-4.8324,-4.8144,-4.7922,-4.7479,-4.6812,-4.5876,-4.5475,-4.5013,-4.4325,-4.4511,-4.4493,-4.4056,-4.3954,-4.3071,-4.1666,-4.1036,-4.0673,-4.031,-3.9833,-3.9582,-3.9629,-3.9288,-3.908,-3.9228,-3.9315,-3.9457,-3.94,-3.9241,-3.9045,-3.8948,-3.8772,-3.8539,-3.8461,-3.8519,-3.8558,-3.8987,-3.9026,-3.9234,-3.953,-3.9584,-3.9841,-4.0192,-3.9842,-3.9526,-3.9493,-3.9489,-3.9354,-3.927,-3.9174,-3.8878,-3.8535,-3.835,-3.8056,-3.7623,-3.7091,-3.6518,-3.5977,-3.5396,-3.4809,-3.4383,-3.402,-3.3825,-3.3578,-3.339,-3.3129,-3.288,-3.2573,-3.242,-3.1932,-3.1223,-3.0608,-2.9951,-2.9556,-2.9182,-2.8967,-2.8716,-2.8284,-2.781,-2.7429,-2.6901,-2.6201,-2.555,-2.5119,-5.2999,-5.2999,-5.3103,-5.3164,-5.3103,-5.3042,-5.3042,-5.3121,-5.3152,-5.306,-5.2938,-5.2981,-5.2785,-5.2827,-5.2724,-5.2827,-5.2806,-5.2802,-5.2437,-5.1809,-5.1098,-5.0446,-5.0343,-4.9056,-4.8488,-4.8361,-4.8324,-4.8324,-4.8324,-4.8324,-4.8306,-4.8306,-4.8324,-4.8306,-4.8143,-4.7885,-4.7128,-4.621,-4.5755,-4.5127,-4.4358,-4.4304,-4.4363,-4.4493,-4.3999,-4.3238,-4.2238,-4.1686,-4.1304,-4.0482,-4.0368,-4.0234,-4.0271,-4.0372,-4.0396,-4.0357,-4.0435,-4.0606,-4.0742,-4.0147,-3.9916,-3.9818,-3.926,-3.8792,-3.8987,-3.9084,-3.9318,-3.9902,-3.9922,-4.0237,-4.0688,-4.0973,-4.0914,-4.0929,-4.0968,-4.1022,-4.1025,-4.1003,-4.0935,-4.0846,-4.0773,-4.0275,-3.9721,-3.925,-3.9013,-3.8704,-3.8117,-3.7547,-3.6992,-3.6455,-3.5687,-3.4895,-3.4582,-3.4284,-3.3991,-3.3715,-3.339,-3.3099,-3.2719,-3.2454,-3.2162,-3.1603,-3.1089,-3.0608,-3.0192,-2.9733,-2.9364,-2.9059,-2.8748,-2.8348,-2.7925,-2.7494,-2.7004,-2.6414,-2.5932,-5.2868,-5.285,-5.2999,-5.2999,-5.2912,-5.2937,-5.2955,-5.2912,-5.2941,-5.2594,-5.2053,-5.1822,-5.1791,-5.1843,-5.209,-5.2229,-5.2599,-5.2761,-5.2678,-5.2514,-5.158,-5.1682,-5.1522,-5.0112,-4.8888,-4.8469,-4.8324,-4.8306,-4.8267,-4.8247,-4.8247,-4.8267,-4.8247,-4.8265,-4.8251,-4.8162,-4.7701,-4.6818,-4.6103,-4.5365,-4.4518,-4.4124,-4.4181,-4.4436,-4.4151,-4.3819,-4.3442,-4.2851,-4.2125,-4.1342,-4.0731,-4.0482,-4.0329,-4.0328,-4.0396,-4.0492,-4.0549,-4.0681,-4.081,-4.0731,-4.0696,-4.0676,-4.0506,-4.0545,-4.0545,-4.0448,-4.0565,-4.0818,-4.0838,-4.0855,-4.1055,-4.1101,-4.1113,-4.1108,-4.1103,-4.1094,-4.1067,-4.1013,-4.0968,-4.0926,-4.0848,-4.0699,-4.0456,-4.0169,-3.9903,-3.9687,-3.9218,-3.8632,-3.8042,-3.7451,-3.6707,-3.5809,-3.5327,-3.5042,-3.4554,-3.4178,-3.3753,-3.3459,-3.3078,-3.28,-3.2493,-3.1985,-3.1511,-3.1128,-3.0788,-3.0335,-2.9908,-2.9633,-2.9393,-2.8889,-2.8411,-2.8024,-2.758,-2.7108,-2.6692,-5.2698,-5.2698,-5.285,-5.2893,-5.2912,-5.2831,-5.285,-5.285,-5.2798,-5.2324,-5.1711,-5.1481,-5.1449,-5.1482,-5.165,-5.1988,-5.2454,-5.2599,-5.269,-5.2563,-5.2109,-5.2199,-5.2138,-5.0751,-4.9255,-4.8352,-4.8229,-4.8229,-4.8247,-4.8208,-4.8226,-4.8247,-4.8169,-4.8187,-4.8247,-4.8247,-4.7807,-4.709,-4.6596,-4.579,-4.4638,-4.4251,-4.4101,-4.4355,-4.434,-4.4268,-4.3878,-4.3554,-4.2887,-4.22,-4.1647,-4.1017,-4.0406,-4.0329,-4.0346,-4.0379,-4.0492,-4.0574,-4.0754,-4.0869,-4.0932,-4.1085,-4.111,-4.111,-4.111,-4.111,-4.111,-4.111,-4.1091,-4.1109,-4.1109,-4.1104,-4.1103,-4.1112,-4.1113,-4.1107,-4.1091,-4.1037,-4.0991,-4.0968,-4.0917,-4.0856,-4.0745,-4.0615,-4.0462,-4.0076,-4.0008,-3.9427,-3.8746,-3.8195,-3.77,-3.6957,-3.6329,-3.5792,-3.5202,-3.4684,-3.4152,-3.3834,-3.3544,-3.3359,-3.3191,-3.2582,-3.1967,-3.1603,-3.1278,-3.0948,-3.0567,-3.0293,-2.9908,-2.9348,-2.892,-2.8542,-2.8107,-2.7645,-2.7342,-5.2563,-5.2608,-5.2717,-5.285,-5.2893,-5.268,-5.2743,-5.2831,-5.2698,-5.2108,-5.1486,-5.1358,-5.1133,-5.11,-5.1191,-5.1683,-5.2345,-5.2498,-5.2554,-5.2545,-5.2454,-5.2436,-5.2152,-5.0889,-4.9337,-4.8134,-4.8108,-4.8148,-4.8187,-4.8187,-4.8187,-4.8187,-4.809,-4.809,-4.813,-4.8151,-4.7874,-4.7305,-4.6939,-4.6464,-4.5184,-4.4729,-4.4315,-4.4207,-4.4523,-4.4507,-4.4224,-4.4043,-4.3743,-4.298,-4.2883,-4.2065,-4.1112,-4.0692,-4.0578,-4.0578,-4.0684,-4.0696,-4.0694,-4.0776,-4.0917,-4.1045,-4.1085,-4.111,-4.111,-4.111,-4.111,-4.111,-4.111,-4.1103,-4.11,-4.1105,-4.1101,-4.1101,-4.1112,-4.1113,-4.1108,-4.1055,-4.1011,-4.0999,-4.096,-4.0898,-4.0848,-4.075,-4.0629,-4.0515,-4.045,-4.0197,-3.9503,-3.8993,-3.8536,-3.8118,-3.7509,-3.6444,-3.5748,-3.5396,-3.484,-3.4326,-3.4008,-3.3961,-3.377,-3.3044,-3.242,-3.2091,-3.1748,-3.147,-3.1145,-3.0851,-3.0385,-2.9848,-2.9377,-2.8982,-2.8574,-2.8186,-2.7875,-5.2526,-5.2526,-5.2627,-5.2654,-5.2654,-5.2608,-5.2635,-5.2654,-5.2554,-5.1674,-5.054,-5.0384,-5.005,-4.9778,-5.0166,-5.1139,-5.21,-5.2444,-5.248,-5.2508,-5.2498,-5.2499,-5.2182,-5.0994,-4.9347,-4.817,-4.8016,-4.816,-4.8148,-4.809,-4.8108,-4.8148,-4.805,-4.801,-4.805,-4.8148,-4.8032,-4.7642,-4.7262,-4.6843,-4.6567,-4.5219,-4.4236,-4.4003,-4.4412,-4.4537,-4.4649,-4.4775,-4.4601,-4.3798,-4.3662,-4.3107,-4.25,-4.2314,-4.201,-4.1476,-4.1323,-4.1238,-4.0935,-4.081,-4.0834,-4.0917,-4.1186,-4.1221,-4.1221,-4.1208,-4.1364,-4.1188,-4.1149,-4.1117,-4.1097,-4.1109,-4.1106,-4.1113,-4.1111,-4.1105,-4.1113,-4.1082,-4.1055,-4.1061,-4.1013,-4.0952,-4.0907,-4.0858,-4.0769,-4.0655,-4.0596,-4.0492,-4.0098,-3.9785,-3.9561,-3.9107,-3.867,-3.7433,-3.625,-3.602,-3.5603,-3.4982,-3.4652,-3.4587,-3.4225,-3.3404,-3.2838,-3.2666,-3.2319,-3.1948,-3.1657,-3.1376,-3.0914,-3.0427,-2.9919,-2.9406,-2.8966,-2.8527,-2.8073,-5.2322,-5.2096,-5.2397,-5.2426,-5.225,-5.2426,-5.2581,-5.2545,-5.2203,-5.156,-5.0697,-5.0037,-4.9658,-4.9521,-4.9409,-5.0405,-5.1629,-5.2371,-5.2462,-5.2498,-5.248,-5.2508,-5.2409,-5.1239,-4.9567,-4.8385,-4.8194,-4.8252,-4.8043,-4.8006,-4.8006,-4.8006,-4.7907,-4.7866,-4.7966,-4.8006,-4.7984,-4.7775,-4.7561,-4.7438,-4.7492,-4.5488,-4.4382,-4.4291,-4.4178,-4.4299,-4.4617,-4.4739,-4.4735,-4.4505,-4.441,-4.4224,-4.3999,-4.3776,-4.3418,-4.2448,-4.2163,-4.2087,-4.1824,-4.1874,-4.2041,-4.2208,-4.2216,-4.2315,-4.2383,-4.2435,-4.2124,-4.1753,-4.1227,-4.111,-4.111,-4.111,-4.1103,-4.11,-4.11,-4.1111,-4.1112,-4.1112,-4.1101,-4.1097,-4.1033,-4.0984,-4.0988,-4.0936,-4.0877,-4.0815,-4.0742,-4.0636,-4.0511,-4.0338,-4.014,-3.9789,-3.9278,-3.8309,-3.7224,-3.6919,-3.6593,-3.5923,-3.5437,-3.5361,-3.499,-3.4316,-3.3803,-3.3494,-3.3066,-3.2354,-3.2108,-3.1785,-3.1376,-3.101,-3.0534,-3.0074,-2.9435,-2.8904,-2.8463,-5.1982,-5.1482,-5.2048,-5.2096,-5.1848,-5.2144,-5.2333,-5.2268,-5.1848,-5.1321,-5.0825,-4.999,-4.9572,-4.9523,-4.9432,-4.9848,-5.1258,-5.2007,-5.2304,-5.2498,-5.2498,-5.248,-5.2281,-5.1556,-5.0218,-4.8836,-4.8537,-4.8557,-4.8047,-4.7902,-4.792,-4.7902,-4.7801,-4.7759,-4.7842,-4.7884,-4.7861,-4.7861,-4.7902,-4.7811,-4.7007,-4.5794,-4.4617,-4.4581,-4.4113,-4.4085,-4.4213,-4.4493,-4.4643,-4.4757,-4.4849,-4.4934,-4.5038,-4.508,-4.4475,-4.3435,-4.3115,-4.3044,-4.2887,-4.2896,-4.283,-4.2969,-4.3266,-4.3393,-4.3444,-4.3233,-4.3215,-4.2591,-4.187,-4.1442,-4.1461,-4.1188,-4.113,-4.1117,-4.1106,-4.1113,-4.1101,-4.1112,-4.1112,-4.1091,-4.1031,-4.1013,-4.0999,-4.0984,-4.0924,-4.0927,-4.0849,-4.0787,-4.0674,-4.0588,-4.04,-4.0197,-3.9729,-3.901,-3.8307,-3.7965,-3.7623,-3.716,-3.6656,-3.637,-3.5975,-3.5438,-3.4895,-3.4171,-3.3191,-3.2521,-3.2335,-3.2144,-3.1785,-3.1452,-3.1167,-3.0657,-2.9859,-2.9255,-2.8779,-5.1363,-5.0858,-5.1449,-5.1669,-5.1601,-5.1651,-5.1719,-5.1701,-5.1551,-5.0835,-4.9992,-4.998,-4.9429,-4.8715,-4.8954,-4.9952,-5.0984,-5.1527,-5.1958,-5.2304,-5.2452,-5.2498,-5.2389,-5.1665,-5.0814,-4.9549,-4.9104,-4.8539,-4.8042,-4.7879,-4.792,-4.7861,-4.7842,-4.7819,-4.7759,-4.7819,-4.7819,-4.7759,-4.7861,-4.7552,-4.6835,-4.6345,-4.5461,-4.4744,-4.4436,-4.4312,-4.404,-4.4314,-4.4605,-4.4591,-4.4783,-4.4895,-4.4919,-4.4986,-4.5019,-4.4646,-4.4198,-4.3497,-4.3159,-4.3214,-4.3319,-4.3458,-4.3479,-4.3432,-4.3704,-4.3744,-4.3682,-4.3487,-4.2669,-4.2098,-4.1929,-4.15,-4.1247,-4.111,-4.1103,-4.1111,-4.1097,-4.1107,-4.1113,-4.1107,-4.107,-4.1037,-4.1013,-4.1,-4.0986,-4.0984,-4.0971,-4.0897,-4.0819,-4.073,-4.0559,-4.0342,-4.0185,-3.9541,-3.9221,-3.8879,-3.867,-3.8308,-3.7831,-3.7409,-3.7099,-3.659,-3.5436,-3.4659,-3.3611,-3.277,-3.2438,-3.2249,-3.2108,-3.1839,-3.149,-3.0914,-3.0201,-2.9641,-2.9118,-5.046,-5.0293,-5.0876,-5.0876,-5.0696,-5.0947,-5.1087,-5.1034,-5.0733,-5.0503,-5.01,-4.9555,-4.8868,-4.8276,-4.8582,-4.9243,-5.0098,-5.0717,-5.1343,-5.2012,-5.2275,-5.2498,-5.2426,-5.2063,-5.1393,-5.0307,-4.9637,-4.8858,-4.8212,-4.7819,-4.7801,-4.7819,-4.7759,-4.7759,-4.7699,-4.7759,-4.7759,-4.7717,-4.7723,-4.7578,-4.7156,-4.6721,-4.6178,-4.5472,-4.5199,-4.4711,-4.4407,-4.4549,-4.4682,-4.458,-4.4732,-4.4895,-4.4895,-4.4919,-4.4967,-4.5,-4.4756,-4.4443,-4.4303,-4.423,-4.423,-4.4357,-4.448,-4.4744,-4.4741,-4.4526,-4.4338,-4.4325,-4.3546,-4.2942,-4.2468,-4.2007,-4.1559,-4.1325,-4.1247,-4.1134,-4.1124,-4.1116,-4.1112,-4.1111,-4.1099,-4.1078,-4.1047,-4.1025,-4.1013,-4.1,-4.1006,-4.0964,-4.0904,-4.082,-4.063,-4.0403,-4.0298,-4.0112,-3.9927,-3.9719,-3.9661,-3.9319,-3.8766,-3.8422,-3.834,-3.7706,-3.6451,-3.5277,-3.4274,-3.3478,-3.276,-3.2371,-3.2179,-3.1984,-3.1785,-3.1206,-3.0575,-3.0074,-2.9419,-4.9674,-4.9715,-5.0276,-5.0237,-4.993,-5.0331,-5.0497,-5.0442,-5.0085,-5.0028,-4.9972,-4.9214,-4.8573,-4.8352,-4.8344,-4.8643,-4.9376,-4.9859,-5.0702,-5.1437,-5.2,-5.234,-5.2415,-5.2335,-5.1828,-5.0641,-5.0206,-4.9329,-4.8405,-4.7844,-4.7717,-4.7699,-4.7717,-4.7699,-4.7699,-4.7735,-4.779,-4.8116,-4.7844,-4.7808,-4.7808,-4.7228,-4.6794,-4.6341,-4.591,-4.5319,-4.4894,-4.4791,-4.4711,-4.4617,-4.4605,-4.4707,-4.4732,-4.4827,-4.4919,-4.4991,-4.4919,-4.4947,-4.4963,-4.5027,-4.5282,-4.5362,-4.547,-4.5383,-4.5723,-4.5432,-4.5195,-4.5202,-4.4442,-4.3682,-4.3117,-4.2864,-4.2241,-4.1831,-4.152,-4.1329,-4.1174,-4.1225,-4.1179,-4.111,-4.1113,-4.1099,-4.1078,-4.1047,-4.1031,-4.1025,-4.1025,-4.1019,-4.0967,-4.0894,-4.0759,-4.0549,-4.0466,-4.0383,-4.0283,-4.0232,-4.0309,-4.0195,-3.9641,-3.9185,-3.8937,-3.8228,-3.7071,-3.596,-3.4911,-3.4063,-3.3268,-3.274,-3.2249,-3.2091,-3.1894,-3.1528,-3.1016,-3.0435,-2.9713,-4.9063,-4.9124,-4.9715,-4.993,-4.989,-4.993,-4.9948,-4.993,-4.9873,-4.9615,-4.9274,-4.8877,-4.8941,-4.8958,-4.829,-4.834,-4.9398,-4.909,-4.996,-5.1012,-5.1687,-5.2071,-5.227,-5.2394,-5.2317,-5.1874,-5.0733,-4.9531,-4.8786,-4.7935,-4.779,-4.7699,-4.7699,-4.7699,-4.7699,-4.7717,-4.7989,-4.8261,-4.8116,-4.8152,-4.8242,-4.788,-4.7246,-4.6703,-4.6432,-4.6092,-4.5334,-4.5077,-4.4851,-4.4767,-4.4647,-4.4672,-4.4783,-4.4764,-4.4846,-4.4943,-4.4986,-4.5014,-4.5084,-4.5148,-4.5125,-4.5175,-4.5323,-4.5536,-4.5815,-4.5947,-4.5939,-4.587,-4.5176,-4.4773,-4.4364,-4.4014,-4.3176,-4.2572,-4.2202,-4.2032,-4.1783,-4.1397,-4.1339,-4.1169,-4.1108,-4.1112,-4.1101,-4.1081,-4.1081,-4.1057,-4.1072,-4.1072,-4.1013,-4.0945,-4.0848,-4.0707,-4.0636,-4.054,-4.0419,-4.0389,-4.0408,-4.0396,-4.0074,-3.96,-3.9223,-3.8366,-3.7658,-3.6578,-3.5501,-3.4633,-3.3761,-3.3165,-3.2619,-3.2301,-3.1966,-3.164,-3.1111,-3.0452,-2.9772,-4.9018,-4.9001,-4.929,-4.9333,-4.9333,-4.9333,-4.9333,-4.9333,-4.9333,-4.9229,-4.8984,-4.8967,-4.8912,-4.8752,-4.8301,-4.79,-4.837,-4.8765,-4.9316,-5.0082,-5.0873,-5.1854,-5.2233,-5.2225,-5.2102,-5.1928,-5.0556,-4.937,-4.8833,-4.8085,-4.7808,-4.7699,-4.7699,-4.7699,-4.7699,-4.7717,-4.7953,-4.8206,-4.8412,-4.8654,-4.8007,-4.7971,-4.7554,-4.7301,-4.7246,-4.6812,-4.6205,-4.6136,-4.5773,-4.5368,-4.5036,-4.4934,-4.4927,-4.4812,-4.4782,-4.4895,-4.4919,-4.4943,-4.501,-4.5057,-4.5103,-4.5129,-4.5263,-4.5472,-4.5776,-4.5829,-4.5966,-4.592,-4.5952,-4.5694,-4.4871,-4.4559,-4.4072,-4.341,-4.3059,-4.2922,-4.2623,-4.2281,-4.1788,-4.1737,-4.1372,-4.1113,-4.1112,-4.1105,-4.1094,-4.1101,-4.1097,-4.109,-4.1042,-4.1007,-4.0918,-4.0848,-4.0759,-4.0687,-4.0544,-4.0535,-4.0506,-4.0454,-4.0411,-4.0036,-3.96,-3.9069,-3.829,-3.7181,-3.6083,-3.5142,-3.4278,-3.3549,-3.2983,-3.2504,-3.2109,-3.1731,-3.115,-3.0493,-2.9946,-4.9018,-4.9018,-4.9018,-4.9018,-4.9018,-4.9018,-4.9018,-4.9018,-4.9001,-4.9018,-4.9018,-4.8984,-4.8914,-4.8677,-4.8158,-4.8048,-4.8077,-4.8226,-4.8655,-4.9361,-5.0291,-5.1458,-5.19,-5.1776,-5.1274,-5.118,-5.0378,-4.9198,-4.8983,-4.8163,-4.7861,-4.7747,-4.7699,-4.7699,-4.7699,-4.7717,-4.7808,-4.8249,-4.8345,-4.8787,-4.8061,-4.7826,-4.7717,-4.7645,-4.7627,-4.7428,-4.6907,-4.671,-4.6387,-4.5955,-4.5622,-4.5319,-4.5183,-4.5001,-4.4785,-4.4775,-4.4865,-4.4914,-4.4976,-4.5252,-4.5285,-4.516,-4.5516,-4.5666,-4.5782,-4.6001,-4.6331,-4.686,-4.6844,-4.65,-4.5698,-4.5706,-4.5356,-4.4783,-4.4591,-4.4423,-4.3923,-4.3512,-4.2816,-4.2339,-4.1905,-4.1474,-4.1112,-4.1113,-4.1103,-4.1111,-4.1104,-4.1101,-4.109,-4.1047,-4.1019,-4.096,-4.0894,-4.0801,-4.0707,-4.0696,-4.068,-4.05,-4.0441,-4.0392,-3.9998,-3.9543,-3.8783,-3.7605,-3.6534,-3.5619,-3.4758,-3.3947,-3.3248,-3.2654,-3.2249,-3.1894,-3.1507,-3.0931,-3.051,-4.9018,-4.9018,-4.9018,-4.9018,-4.9018,-4.9018,-4.9018,-4.9018,-4.9018,-4.9018,-4.9018,-4.9018,-4.9001,-4.8809,-4.8291,-4.825,-4.8293,-4.7674,-4.7885,-4.9171,-4.9392,-5.0477,-5.1152,-5.1191,-5.0434,-4.9414,-4.9205,-4.9199,-4.9151,-4.8322,-4.794,-4.7674,-4.7554,-4.7615,-4.7699,-4.7699,-4.8098,-4.8623,-4.8116,-4.8442,-4.8369,-4.8061,-4.7935,-4.7699,-4.7699,-4.7572,-4.7433,-4.7034,-4.6771,-4.6579,-4.6044,-4.5626,-4.5197,-4.54,-4.5207,-4.4833,-4.4971,-4.5035,-4.5047,-4.5748,-4.5816,-4.5352,-4.5693,-4.6275,-4.647,-4.6704,-4.7,-4.7544,-4.7934,-4.78,-4.7504,-4.7144,-4.6521,-4.6325,-4.6135,-4.5767,-4.526,-4.441,-4.3682,-4.2752,-4.2403,-4.2054,-4.1465,-4.1108,-4.1111,-4.1099,-4.1111,-4.1108,-4.1101,-4.1094,-4.1072,-4.1045,-4.0974,-4.0945,-4.0857,-4.0885,-4.083,-4.0623,-4.0515,-4.0481,-4.0389,-4.0076,-3.9163,-3.7982,-3.7148,-3.6324,-3.5302,-3.4288,-3.3625,-3.2952,-3.2438,-3.202,-3.1711,-3.1393,-3.0971,-4.9018,-4.9018,-4.9018,-4.9018,-4.9018,-4.9018,-4.9018,-4.9018,-4.9018,-4.9018,-4.9018,-4.9018,-4.9018,-4.89,-4.8765,-4.8528,-4.8173,-4.8071,-4.8311,-4.8498,-4.8627,-4.921,-4.9959,-5.0275,-4.9738,-4.9214,-4.9084,-4.9118,-4.9192,-4.8354,-4.7647,-4.7331,-4.7214,-4.7363,-4.7597,-4.7717,-4.7916,-4.8242,-4.8629,-4.9053,-4.8279,-4.8279,-4.8206,-4.7735,-4.7699,-4.7699,-4.7699,-4.7301,-4.7228,-4.712,-4.6615,-4.6205,-4.592,-4.6107,-4.582,-4.584,-4.6177,-4.6342,-4.6675,-4.715,-4.6815,-4.6152,-4.6196,-4.6839,-4.6538,-4.7078,-4.7588,-4.8041,-4.8458,-4.8294,-4.8056,-4.7512,-4.7155,-4.7641,-4.752,-4.705,-4.6461,-4.5319,-4.4332,-4.3221,-4.2551,-4.1876,-4.1273,-4.1097,-4.1093,-4.109,-4.1086,-4.1114,-4.1108,-4.1104,-4.1094,-4.1096,-4.1075,-4.1045,-4.1039,-4.1007,-4.094,-4.0781,-4.0672,-4.0642,-4.0535,-4.0372,-3.935,-3.8091,-3.7583,-3.7034,-3.5642,-3.4423,-3.3906,-3.3325,-3.2872,-3.2352,-3.1984,-3.1765,-3.1542,-4.9018,-4.9018,-4.9018,-4.9018,-4.9018,-4.9018,-4.9018,-4.9018,-4.9018,-4.9018,-4.9018,-4.9018,-4.9018,-4.9018,-4.8951,-4.8849,-4.824,-4.7682,-4.8105,-4.8115,-4.8046,-4.855,-4.9061,-4.9376,-4.9325,-4.9017,-4.8877,-4.8834,-4.8537,-4.8093,-4.7413,-4.6814,-4.666,-4.6908,-4.7258,-4.7511,-4.7735,-4.7989,-4.8448,-4.8557,-4.8116,-4.8043,-4.8188,-4.7844,-4.7699,-4.7699,-4.7699,-4.7699,-4.7699,-4.7536,-4.7288,-4.688,-4.6715,-4.6599,-4.6284,-4.6545,-4.681,-4.6996,-4.7394,-4.8079,-4.7453,-4.6259,-4.7188,-4.7517,-4.7283,-4.7815,-4.8337,-4.8719,-4.8815,-4.8797,-4.8638,-4.8063,-4.8087,-4.8572,-4.8302,-4.7823,-4.7155,-4.6013,-4.4927,-4.3798,-4.2695,-4.1922,-4.1154,-4.1121,-4.1084,-4.1073,-4.1073,-4.1087,-4.1116,-4.1111,-4.1108,-4.1113,-4.1105,-4.1096,-4.1076,-4.1076,-4.1011,-4.0909,-4.0846,-4.0771,-4.061,-4.0389,-3.9295,-3.8295,-3.7749,-3.6974,-3.5571,-3.4551,-3.4176,-3.3828,-3.3449,-3.2934,-3.237,-3.2073,-3.1875,-4.9018,-4.9018,-4.9018,-4.9018,-4.9018,-4.9018,-4.9018,-4.9018,-4.9018,-4.9018,-4.9018,-4.9018,-4.9018,-4.9018,-4.9018,-4.89,-4.8528,-4.7428,-4.78,-4.8071,-4.7598,-4.8132,-4.8673,-4.9046,-4.9101,-4.909,-4.8897,-4.8538,-4.7769,-4.7262,-4.6725,-4.6315,-4.6116,-4.6406,-4.6845,-4.7392,-4.7626,-4.7838,-4.791,-4.8025,-4.7826,-4.7916,-4.7971,-4.779,-4.7699,-4.7699,-4.7699,-4.7699,-4.7699,-4.7663,-4.7627,-4.7192,-4.6953,-4.69,-4.6524,-4.6523,-4.6978,-4.7285,-4.7834,-4.8636,-4.8386,-4.7545,-4.8211,-4.859,-4.8624,-4.858,-4.9091,-4.9461,-4.9635,-4.9529,-4.9367,-4.908,-4.8842,-4.8832,-4.8632,-4.8136,-4.7576,-4.6641,-4.5585,-4.4467,-4.33,-4.233,-4.1323,-4.1061,-4.1078,-4.1058,-4.1069,-4.1074,-4.1091,-4.1099,-4.1116,-4.1108,-4.1101,-4.1117,-4.1117,-4.1117,-4.107,-4.0972,-4.0935,-4.0846,-4.0688,-4.0384,-3.9437,-3.8562,-3.789,-3.6892,-3.5493,-3.4851,-3.4632,-3.4269,-3.3887,-3.3288,-3.2699,-3.2335,-3.2056,-4.9018,-4.9018,-4.9018,-4.9018,-4.9018,-4.9018,-4.9018,-4.9018,-4.9018,-4.9018,-4.9018,-4.9018,-4.9018,-4.9018,-4.9001,-4.8697,-4.8037,-4.7479,-4.7564,-4.7513,-4.731,-4.7936,-4.8528,-4.9018,-4.9018,-4.8984,-4.8843,-4.8396,-4.7481,-4.6749,-4.6221,-4.6052,-4.5665,-4.59,-4.6447,-4.7194,-4.7419,-4.7644,-4.7644,-4.7711,-4.7856,-4.8134,-4.8043,-4.7844,-4.7717,-4.7699,-4.7699,-4.7699,-4.7699,-4.7699,-4.7699,-4.7482,-4.7446,-4.7988,-4.8311,-4.9132,-4.8916,-4.8516,-4.9019,-4.8694,-4.8484,-4.8777,-4.9211,-4.9064,-4.9072,-4.9212,-4.9682,-4.9885,-4.9849,-4.9592,-4.9374,-4.9162,-4.8861,-4.8595,-4.8354,-4.793,-4.7427,-4.6999,-4.593,-4.4569,-4.3413,-4.228,-4.1312,-4.1052,-4.1056,-4.1042,-4.1046,-4.1062,-4.1093,-4.1092,-4.1103,-4.1116,-4.1108,-4.1104,-4.1104,-4.1104,-4.1101,-4.1051,-4.0998,-4.0942,-4.0846,-4.043,-3.9593,-3.857,-3.7429,-3.6419,-3.5386,-3.5,-3.487,-3.4653,-3.4292,-3.366,-3.3069,-3.2713,-3.2283,-4.9018,-4.9018,-4.9018,-4.9018,-4.9018,-4.9018,-4.9018,-4.9018,-4.9018,-4.9018,-4.9018,-4.9018,-4.9018,-4.9018,-4.8968,-4.8629,-4.7902,-4.7242,-4.7242,-4.7631,-4.7141,-4.7902,-4.8545,-4.9018,-4.9018,-4.8951,-4.8562,-4.8048,-4.7102,-4.5908,-4.5249,-4.5407,-4.5142,-4.5372,-4.5784,-4.6133,-4.6713,-4.7187,-4.7565,-4.7669,-4.791,-4.8206,-4.7989,-4.7844,-4.7717,-4.7699,-4.7699,-4.7699,-4.7699,-4.7699,-4.7699,-4.7699,-4.7826,-4.8424,-4.938,-5.0006,-4.9967,-4.9842,-5.0114,-4.9504,-4.9482,-4.9602,-4.9784,-4.9514,-4.9492,-4.9622,-4.98,-4.9929,-4.9645,-4.9363,-4.9178,-4.8964,-4.8587,-4.821,-4.7889,-4.7546,-4.7319,-4.7117,-4.5953,-4.4555,-4.3306,-4.2149,-4.1463,-4.1217,-4.1038,-4.1033,-4.1042,-4.107,-4.1082,-4.1113,-4.1111,-4.1105,-4.1116,-4.1108,-4.1111,-4.1111,-4.1104,-4.1081,-4.1055,-4.1008,-4.0987,-4.056,-3.98,-3.831,-3.6617,-3.5844,-3.5254,-3.5193,-3.5054,-3.4851,-3.4653,-3.4181,-3.3579,-3.3009,-3.2601,-4.9018,-4.9018,-4.9018,-4.9018,-4.9018,-4.9018,-4.9018,-4.9018,-4.9018,-4.9018,-4.9018,-4.9018,-4.9018,-4.8984,-4.8815,-4.8359,-4.7614,-4.6921,-4.6904,-4.7767,-4.7141,-4.7614,-4.8612,-4.9018,-4.9018,-4.8765,-4.8274,-4.7623,-4.6532,-4.5479,-4.472,-4.4587,-4.4682,-4.4906,-4.5214,-4.5148,-4.5673,-4.6566,-4.7259,-4.7698,-4.7693,-4.7735,-4.7699,-4.7717,-4.7699,-4.7699,-4.7699,-4.7699,-4.7699,-4.7699,-4.7826,-4.7862,-4.8532,-4.8912,-4.9877,-5.024,-5.046,-5.0585,-5.0617,-5.0102,-4.9945,-4.9944,-4.9928,-4.9698,-4.9683,-4.9776,-4.9887,-4.9811,-4.9549,-4.9334,-4.9153,-4.8659,-4.8217,-4.7741,-4.7326,-4.6862,-4.6424,-4.6264,-4.5736,-4.4415,-4.3257,-4.2168,-4.1807,-4.1571,-4.1035,-4.1011,-4.0999,-4.1039,-4.1066,-4.1084,-4.1093,-4.1093,-4.1107,-4.1099,-4.1116,-4.1116,-4.1111,-4.1108,-4.1085,-4.1078,-4.1028,-4.0598,-4.0054,-3.8374,-3.6697,-3.5886,-3.5326,-3.527,-3.5209,-3.5091,-3.487,-3.4674,-3.4157,-3.3487,-3.2934,-4.9018,-4.9018,-4.9018,-4.9018,-4.9018,-4.9018,-4.9018,-4.9018,-4.9018,-4.9018,-4.9018,-4.9018,-4.8968,-4.8883,-4.8426,-4.7851,-4.7039,-4.6515,-4.6515,-4.6887,-4.6802,-4.7513,-4.8731,-4.8968,-4.8968,-4.8765,-4.8189,-4.7124,-4.5991,-4.5077,-4.457,-4.457,-4.457,-4.4703,-4.4835,-4.4639,-4.5114,-4.595,-4.6955,-4.7535,-4.7633,-4.7657,-4.7699,-4.7699,-4.7699,-4.7699,-4.7699,-4.7699,-4.7699,-4.7735,-4.8369,-4.9202,-5.0379,-5.056,-5.1112,-5.1637,-5.1017,-5.1,-5.0884,-5.0508,-5.0062,-5.0027,-4.9958,-4.9827,-4.9792,-4.9863,-4.9841,-4.969,-4.9546,-4.9326,-4.8998,-4.8443,-4.7907,-4.739,-4.6743,-4.6164,-4.5599,-4.5481,-4.5359,-4.4461,-4.3283,-4.2683,-4.2306,-4.1769,-4.1194,-4.0971,-4.0935,-4.0941,-4.0993,-4.1033,-4.1069,-4.1086,-4.1113,-4.111,-4.1107,-4.1101,-4.1099,-4.1114,-4.1111,-4.1081,-4.1074,-4.0145,-3.9241,-3.8227,-3.6975,-3.6052,-3.5445,-3.5374,-3.53,-3.5209,-3.5073,-3.4832,-3.4529,-3.3938,-3.3375,-4.8714,-4.9001,-4.9018,-4.9018,-4.9018,-4.9018,-4.9018,-4.9018,-4.9018,-4.9018,-4.9018,-4.8984,-4.8849,-4.8595,-4.8071,-4.7225,-4.6447,-4.594,-4.6007,-4.6261,-4.6769,-4.7462,-4.8189,-4.8765,-4.8646,-4.8426,-4.7361,-4.6261,-4.5314,-4.4908,-4.457,-4.457,-4.457,-4.4609,-4.4575,-4.4647,-4.4849,-4.5355,-4.6632,-4.7119,-4.7356,-4.7511,-4.7657,-4.7699,-4.7699,-4.7699,-4.7699,-4.7699,-4.7699,-4.7916,-4.8442,-4.9329,-5.0325,-5.0886,-5.1593,-5.1973,-5.1819,-5.1357,-5.1357,-5.0926,-5.025,-5.0462,-4.9861,-4.9726,-5.0053,-5.0097,-4.9788,-4.9664,-4.9746,-4.9572,-4.9155,-4.8606,-4.827,-4.7834,-4.6691,-4.5744,-4.5572,-4.5573,-4.5688,-4.5649,-4.4564,-4.3659,-4.3152,-4.2373,-4.1857,-4.1544,-4.1429,-4.0945,-4.0957,-4.0972,-4.1006,-4.1051,-4.1082,-4.1093,-4.1113,-4.1112,-4.1105,-4.1101,-4.1116,-4.1108,-4.0925,-3.9544,-3.8361,-3.7851,-3.7111,-3.6018,-3.5549,-3.5483,-3.5402,-3.53,-3.5176,-3.502,-3.4674,-3.442,-3.3938,-4.8122,-4.8697,-4.8815,-4.8866,-4.89,-4.8968,-4.9018,-4.9018,-4.9018,-4.9018,-4.8951,-4.8832,-4.8426,-4.8105,-4.7733,-4.6769,-4.5991,-4.5534,-4.5551,-4.5906,-4.6329,-4.6989,-4.7648,-4.8257,-4.7953,-4.7378,-4.6447,-4.5585,-4.4722,-4.457,-4.457,-4.457,-4.457,-4.457,-4.457,-4.4609,-4.4814,-4.523,-4.5976,-4.6473,-4.686,-4.7345,-4.7597,-4.7699,-4.7699,-4.7699,-4.7699,-4.7699,-4.7699,-4.8116,-4.8677,-4.98,-5.0615,-5.1393,-5.181,-5.2245,-5.2353,-5.2208,-5.219,-5.1747,-5.1533,-5.1292,-5.0204,-4.9916,-5.0303,-5.0147,-4.9849,-4.9712,-4.9778,-4.969,-4.9273,-4.8818,-4.8522,-4.8074,-4.6754,-4.5668,-4.5709,-4.5633,-4.5824,-4.6148,-4.5381,-4.4376,-4.3788,-4.3001,-4.2432,-4.215,-4.174,-4.1282,-4.0952,-4.0924,-4.0929,-4.0981,-4.1033,-4.1062,-4.1101,-4.1112,-4.1112,-4.1108,-4.1103,-4.1116,-4.0756,-3.9478,-3.8588,-3.8195,-3.7352,-3.6091,-3.5659,-3.557,-3.5495,-3.543,-3.5285,-3.5176,-3.4982,-3.4734,-3.4483,-4.709,-4.7259,-4.7868,-4.8122,-4.8223,-4.8731,-4.9018,-4.9001,-4.9018,-4.9018,-4.8781,-4.8129,-4.7757,-4.7851,-4.7225,-4.6397,-4.5618,-4.5162,-4.5331,-4.572,-4.594,-4.643,-4.6887,-4.7259,-4.6769,-4.6261,-4.5805,-4.5314,-4.4671,-4.457,-4.457,-4.457,-4.457,-4.457,-4.457,-4.4626,-4.4682,-4.5066,-4.5388,-4.5873,-4.6137,-4.6707,-4.7554,-4.7699,-4.7699,-4.7699,-4.7699,-4.7699,-4.7699,-4.8116,-4.9021,-5.0325,-5.1194,-5.181,-5.2245,-5.2353,-5.2498,-5.2498,-5.2317,-5.2208,-5.2081,-5.1635,-5.0782,-5.0523,-5.062,-5.0266,-4.9977,-4.9687,-4.973,-4.9824,-4.95,-4.8932,-4.856,-4.8067,-4.708,-4.6478,-4.6197,-4.5669,-4.5304,-4.5278,-4.4934,-4.444,-4.4234,-4.3361,-4.2394,-4.2028,-4.1517,-4.1114,-4.1052,-4.0965,-4.0859,-4.0924,-4.0999,-4.105,-4.1094,-4.1101,-4.1112,-4.1113,-4.111,-4.1107,-4.0633,-3.9549,-3.8779,-3.8393,-3.7308,-3.6011,-3.5755,-3.5676,-3.5621,-3.5543,-3.543,-3.532,-3.5171,-3.5016,-3.4774]},{"header":{"parameterUnit":"m.s-1","parameterCategory":1,"la1":31.0,"la2":29.5877,"lo1":-88.7671,"lo2":-86.6584,"dy":0.0162,"dx":0.0185,"nx":115,"ny":88,"refTime":"2024-04-28T06:00:00:Z","depth":0,"parameterNumber":3,"parameterNumberName":"V-component_of_WINDS"},"data":[0.0,0.0,0.0,0.0,0.0,0.0,0.0,0.0,0.0,0.0,0.0,0.0,0.0,0.0,0.0,0.0,0.0,0.0,0.0,0.0,0.0,0.0,0.0,0.0,0.0,0.0,0.0,0.0,0.0,0.0,0.0,0.0,0.0,0.0,0.0,0.0,0.0,0.0,0.0,0.0,0.0,0.0,0.0,0.0,0.0,0.0,0.0,0.0,0.0,0.0,0.0,0.0,0.0,0.0,0.0,0.0,0.0,0.0,0.0,0.0,0.0,0.0,0.0,0.0,0.0,0.0,0.0,0.0,0.0,0.0,0.0,0.0,0.0,0.0,0.0,0.0,0.0,0.0,0.0,0.0,0.0,0.0,0.0,0.0,0.0,0.0,0.0,0.0,0.0,0.0,0.0,0.0,0.0,0.0,0.0,0.0,0.0,0.0,0.0,0.0,0.0,0.0,0.0,0.0,0.0,0.0,0.0,0.0,0.0,0.0,0.0,0.0,0.0,0.0,0.0,0.0,0.0,0.0,0.0,0.0,0.0,0.0,0.0,0.0,0.0,0.0,0.0,0.0,0.0,0.0,0.0,0.0,0.0,0.0,0.0,0.0,0.0,0.0,0.0,0.0,0.0,0.0,0.0,0.0,0.0,0.0,0.0,0.0,0.0,0.0,0.0,0.0,0.0,0.0,0.0,0.0,0.0,0.0,0.0,0.0,0.0,0.0,0.0,0.0,0.0,0.0,0.0,0.0,0.0,0.0,0.0,0.0,0.0,0.0,0.0,0.0,0.0,0.0,0.0,0.0,0.0,0.0,0.0,0.0,0.0,0.0,0.0,0.0,0.0,0.0,0.0,0.0,0.0,0.0,0.0,0.0,0.0,0.0,0.0,0.0,0.0,0.0,0.0,0.0,0.0,0.0,0.0,0.0,0.0,0.0,0.0,0.0,0.0,0.0,0.0,0.0,0.0,0.0,0.0,0.0,0.0,0.0,0.0,0.0,0.0,0.0,0.0,0.0,0.0,0.0,0.0,0.0,0.0,0.0,0.0,0.0,0.0,0.0,0.0,0.0,0.0,0.0,0.0,0.0,0.0,0.0,0.0,0.0,0.0,0.0,0.0,0.0,0.0,0.0,0.0,0.0,0.0,0.0,0.0,0.0,0.0,0.0,0.0,0.0,0.0,0.0,0.0,0.0,0.0,0.0,0.0,0.0,0.0,0.0,0.0,0.0,0.0,0.0,0.0,0.0,0.0,0.0,0.0,0.0,0.0,0.0,0.0,0.0,0.0,0.0,0.0,0.0,0.0,0.0,0.0,0.0,0.0,0.0,0.0,0.0,0.0,0.0,0.0,0.0,0.0,0.0,0.0,0.0,0.0,0.0,0.0,0.0,0.0,0.0,0.0,0.0,0.0,0.0,0.0,0.0,0.0,0.0,0.0,0.0,0.0,0.0,0.0,0.0,0.0,0.0,0.0,0.0,0.0,0.0,0.0,0.0,0.0,0.0,0.0,0.0,0.0,0.0,0.0,0.0,0.0,0.0,0.0,0.0,0.0,0.0,0.0,0.0,0.0,0.0,0.0,0.0,0.0,0.0,0.0,0.0,0.0,0.0,0.0,0.0,0.0,0.0,0.0,0.0,0.0,0.0,0.0,0.0,0.0,0.0,0.0,0.0,0.0,0.0,0.0,0.0,0.0,0.0,0.0,0.0,0.0,0.0,0.0,0.0,0.0,0.0,0.0,0.0,0.0,0.0,0.0,0.0,0.0,0.0,0.0,0.0,0.0,0.0,0.0,0.0,0.0,0.0,0.0,0.0,0.0,0.0,0.0,0.0,0.0,0.0,0.0,0.0,0.0,0.0,0.0,0.0,0.0,0.0,0.0,0.0,0.0,0.0,0.0,0.0,0.0,0.0,0.0,0.0,0.0,0.0,0.0,0.0,0.0,0.0,0.0,0.0,0.0,0.0,0.0,0.0,0.0,0.0,0.0,0.0,0.0,0.0,0.0,0.0,0.0,0.0,0.0,0.0,0.0,0.0,0.0,0.0,0.0,0.0,0.0,0.0,0.0,0.0,0.0,0.0,0.0,0.0,0.0,0.0,0.0,0.0,0.0,0.0,0.0,0.0,0.0,0.0,0.0,0.0,0.0,0.0,0.0,0.0,0.0,0.0,0.0,0.0,0.0,0.0,0.0,0.0,0.0,0.0,0.0,0.0,0.0,0.0,0.0,0.0,0.0,0.0,0.0,0.0,0.0,0.0,0.0,0.0,0.0,0.0,0.0,0.0,0.0,0.0,0.0,0.0,0.0,0.0,0.0,0.0,0.0,0.0,0.0,0.0,0.0,0.0,0.0,0.0,0.0,0.0,0.0,0.0,0.0,0.0,0.0,0.0,0.0,0.0,0.0,0.0,0.0,0.0,0.0,0.0,0.0,0.0,0.0,0.0,0.0,0.0,0.0,0.0,0.0,0.0,0.0,0.0,0.0,0.0,0.0,0.0,0.0,0.0,0.0,0.0,0.0,0.0,0.0,0.0,0.0,0.0,0.0,0.0,0.0,0.0,0.0,0.0,0.0,0.0,0.0,0.0,0.0,0.0,0.0,0.0,0.0,0.0,0.0,0.0,0.0,0.0,0.0,0.0,0.0,0.0,0.0,0.0,0.0,0.0,0.0,0.0,0.0,0.0,0.0,0.0,0.0,0.0,0.0,0.0,0.0,0.0,0.0,0.0,0.0,0.0,0.0,0.0,0.0,0.0,0.0,0.0,0.0,0.0,0.0,0.0,0.0,0.0,0.0,0.0,0.0,0.0,0.0,0.0,0.0,0.0,0.0,0.0,0.0,0.0,0.0,0.0,0.0,0.0,0.0,0.0,0.0,0.0,0.0,0.0,0.0,0.0,0.0,0.0,0.0,0.0,0.0,0.0,0.0,0.0,0.0,0.0,0.0,0.0,0.0,0.0,0.0,0.0,0.0,0.0,0.0,0.0,0.0,0.0,0.0,0.0,0.0,0.0,0.0,0.0,0.0,0.0,0.0,0.0,0.0,0.0,0.0,0.0,0.0,0.0,0.0,0.0,0.0,0.0,0.0,0.0,0.0,0.0,0.0,0.0,0.0,0.0,0.0,0.0,0.0,0.0,0.0,0.0,0.0,0.0,0.0,0.0,0.0,0.0,0.0,0.0,0.0,0.0,0.0,0.0,0.0,0.0,0.0,0.0,0.0,0.0,0.0,0.0,0.0,0.0,0.0,0.0,0.0,0.0,0.0,0.0,0.0,0.0,0.0,0.0,0.0,0.0,0.0,0.0,0.0,0.0,0.0,0.0,0.0,0.0,0.0,0.0,0.0,0.0,0.0,0.0,0.0,0.0,0.0,0.0,0.0,0.0,0.0,0.0,0.0,0.0,0.0,0.0,0.0,0.0,0.0,0.0,0.0,0.0,0.0,0.0,0.0,0.0,0.0,0.0,0.0,0.0,0.0,0.0,0.0,0.0,0.0,0.0,0.0,0.0,0.0,0.0,0.0,0.0,0.0,0.0,0.0,0.0,0.0,0.0,0.0,0.0,0.0,0.0,0.0,0.0,0.0,0.0,0.0,0.0,0.0,0.0,0.0,0.0,0.0,0.0,0.0,0.0,0.0,0.0,0.0,0.0,0.0,0.0,0.0,0.0,0.0,0.0,0.0,0.0,0.0,0.0,0.0,0.0,0.0,0.0,0.0,0.0,0.0,0.0,0.0,0.0,0.0,0.0,0.0,0.0,0.0,0.0,0.0,0.0,0.0,0.0,0.0,0.0,0.0,0.0,0.0,0.0,0.0,0.0,0.0,0.0,0.0,0.0,0.0,0.0,0.0,0.0,0.0,0.0,0.0,0.0,0.0,0.0,0.0,0.0,0.0,0.0,0.0,0.0,0.0,0.0,0.0,0.0,0.0,0.0,0.0,0.0,0.0,0.0,0.0,0.0,0.0,0.0,0.0,0.0,0.0,0.0,0.0,0.0,0.0,0.0,0.0,0.0,0.0,0.0,0.0,0.0,0.0,0.0,0.0,0.0,0.0,0.0,0.0,0.0,0.0,0.0,0.0,0.0,0.0,0.0,0.0,0.0,0.0,0.0,0.0,0.0,0.0,0.0,0.0,0.0,0.0,0.0,0.0,0.0,0.0,0.0,0.0,0.0,0.0,0.0,0.0,0.0,0.0,0.0,0.0,0.0,0.0,0.0,0.0,0.0,0.0,0.0,0.0,0.0,0.0,0.0,0.0,0.0,0.0,0.0,0.0,0.0,0.0,0.0,-0.141,0.0,0.0,0.0,0.0,0.0,0.0,0.0,0.0,0.0,0.0,0.0,0.0,0.0,0.0,0.0,0.0,0.0,0.0,0.0,0.0,0.0,0.0,0.0,0.0,0.0,0.0,0.0,0.0,0.0,0.0,0.0,0.0,0.0,0.0,0.0,0.0,0.0,0.0,0.0,0.0,0.0,0.0,0.0,0.0,0.0,0.0,0.0,0.0,0.0,0.0,0.0,0.0,0.0,0.0,0.0,0.0,0.0,0.0,0.0,0.0,0.0,0.0,0.0,0.0,0.0,0.0,0.0,0.0,0.0,0.0,0.0,0.0,0.0,0.0,0.0,0.0,0.0,0.0,0.0,0.0,0.0,0.0,0.0,0.0,0.0,0.0,0.0,0.0,0.0,0.0,0.0,0.0,0.0,0.0,0.0,0.0,0.0,0.0,0.0,0.0,0.0,0.0,0.0,0.0,0.0,0.0,0.0,0.0,0.0,0.0,-0.1366,-0.141,-0.1341,-0.1319,-0.141,0.0,0.0,0.0,0.0,0.0,0.0,0.0,0.0,0.0,0.0,0.0,0.0,0.0,0.0,0.0,0.0,0.0,0.0,0.0,0.0,0.0,0.0,0.0,0.0,0.0,0.0,0.0,0.0,0.0,0.0,0.0,0.0,0.0,0.0,0.0,0.0,0.0,0.0,0.0,0.0,0.0,0.0,0.0,0.0,0.0,0.0,0.0,0.0,0.0,0.0,0.0,0.0,0.0,0.0,0.0,0.0,0.0,0.0,0.0,0.0,0.0,0.0,0.0,0.0,0.0,0.0,0.0,0.0,0.0,0.0,0.0,0.0,0.0,0.0,0.0,0.0,0.0,0.0,0.0,0.0,0.0,0.0,0.0,0.0,0.0,0.0,0.0,0.0,0.0,0.0,0.0,0.0,0.0,0.0,0.0,0.0,0.0,0.0,0.0,0.0,0.0,0.0,0.0,0.0,0.0,0.0,0.0,0.0,0.0,0.0,0.0,0.0,-0.1311,-0.1288,-0.1384,0.0,0.0,0.0,0.0,0.0,0.0,0.0,0.0,0.0,0.0,0.0,0.0,0.0,0.0,0.0,0.0,0.0,0.0,0.0,0.0,0.0,0.0,0.0,0.0,0.0,0.0,0.0,0.0,0.0,0.0,0.0,0.0,0.0,0.0,0.0,0.0,0.0,0.0,0.0,0.0,0.0,0.0,0.0,0.0,0.0,0.0,0.0,0.0,0.0,0.0,0.0,0.0,0.0,0.0,0.0,0.0,0.0,0.0,0.0,0.0,0.0,0.0,0.0,0.0,0.0,0.0,0.0,0.0,0.0,0.0,0.0,0.0,0.0,0.0,0.0,0.0,0.0,0.0,0.0,0.0,0.0,0.0,0.0,0.0,0.0,0.0,0.0,0.0,0.0,0.0,0.0,0.0,0.0,0.0,0.0,0.0,0.0,0.0,0.0,0.0,0.0,0.0,0.0,0.0,0.0,0.0,0.0,0.0,0.0,0.0,-0.1369,-0.1494,-0.1472,0.0,-0.1404,0.0,0.0,0.0,0.0,0.0,0.0,0.0,0.0,0.0,0.0,0.0,0.0,0.0,0.0,0.0,0.0,0.0,0.0,0.0,0.0,0.0,0.0,0.0,0.0,0.0,0.0,0.0,0.0,0.0,0.0,0.0,0.0,0.0,0.0,0.0,0.0,0.0,0.0,0.0,0.0,0.0,0.0,0.0,0.0,0.0,0.0,0.0,0.0,0.0,0.0,0.0,0.0,0.0,0.0,0.0,0.0,0.0,0.0,0.0,0.0,0.0,0.0,0.0,0.0,0.0,0.0,0.0,0.0,0.0,0.0,0.0,0.0,0.0,0.0,0.0,0.0,0.0,0.0,0.0,0.0,0.0,0.0,0.0,0.0,0.0,0.0,0.0,0.0,0.0,0.0,0.0,0.0,0.0,0.0,0.0,0.0,0.0,0.0,0.0,0.0,0.0,0.0,0.0,0.0,0.0,0.0,0.0,0.0,0.0,0.0,-0.1303,-0.1439,-0.1489,-0.1464,0.0,0.0,0.0,0.0,0.0,0.0,0.0,0.0,0.0,0.0,0.0,0.0,0.0,0.0,0.0,0.0,0.0,0.0,0.0,0.0,0.0,0.0,0.0,0.0,0.0,0.0,0.0,0.0,0.0,0.0,0.0,0.0,0.0,0.0,0.0,0.0,0.0,0.0,0.0,0.0,0.0,0.0,0.0,0.0,0.0,0.0,0.0,0.0,0.0,0.0,0.0,0.0,0.0,0.0,0.0,0.0,0.0,0.0,0.0,0.0,0.0,0.0,0.0,0.0,0.0,0.0,0.0,0.0,0.0,0.0,0.0,0.0,0.0,0.0,0.0,0.0,0.0,0.0,0.0,0.0,0.0,0.0,0.0,0.0,0.0,0.0,0.0,0.0,0.0,0.0,0.0,0.0,0.0,0.0,0.0,0.0,0.0,0.0,0.0,0.0,0.0,0.0,0.0,0.0,0.0,0.0,0.0,0.0,0.0,0.0,-0.1241,-0.1285,-0.141,-0.1483,-0.1468,-0.1414,0.0,0.0,0.0,0.0,0.0,0.0,0.0,0.0,0.0,0.0,0.0,0.0,0.0,0.0,0.0,0.0,0.0,0.0,0.0,0.0,0.0,0.0,0.0,0.0,0.0,0.0,0.0,0.0,0.0,0.0,0.0,0.0,0.0,0.0,0.0,0.0,0.0,0.0,0.0,0.0,0.0,0.0,0.0,0.0,0.0,0.0,0.0,0.0,0.0,0.0,0.0,0.0,0.0,0.0,0.0,0.0,0.0,0.0,0.0,0.0,0.0,0.0,0.0,0.0,0.0,0.0,0.0,0.0,0.0,0.0,0.0,0.0,0.0,0.0,0.0,0.0,0.0,0.0,0.0,0.0,0.0,0.0,0.0,0.0,0.0,0.0,0.0,0.0,0.0,0.0,0.0,0.0,0.0,0.0,0.0,0.0,0.0,0.0,0.0,0.0,0.0,0.0,0.0,0.0,0.0,0.0,0.0,0.0,-0.1373,-0.1273,-0.1317,-0.1483,-0.1508,-0.1462,0.0,0.0,0.0,0.0,0.0,0.0,0.0,0.0,0.0,0.0,0.0,0.0,0.0,0.0,0.0,0.0,0.0,0.0,0.0,0.0,0.0,0.0,0.0,0.0,0.0,0.0,0.0,0.0,0.0,0.0,0.0,0.0,0.0,0.0,0.0,0.0,0.0,0.0,0.0,0.0,0.0,0.0,0.0,0.0,0.0,0.0,0.0,0.0,0.0,0.0,0.0,0.0,0.0,0.0,0.0,0.0,0.0,0.0,0.0,0.0,0.0,0.0,0.0,0.0,0.0,0.0,0.0,0.0,0.0,0.0,0.0,0.0,0.0,0.0,0.0,0.0,0.0,0.0,0.0,0.0,0.0,0.0,0.0,0.0,0.0,0.0,0.0,0.0,0.0,0.0,0.0,0.0,0.0,0.0,0.0,0.0,0.0,0.0,0.0,0.0,0.0,0.0,0.0,0.0,0.0,0.0,0.0,0.0,0.0,-0.1268,-0.1232,-0.1215,-0.1291,-0.1288,-0.1274,0.0,0.0,0.0,0.0,0.0,0.0,0.0,0.0,0.0,0.0,0.0,0.0,0.0,0.0,0.0,0.0,0.0,0.0,0.0,0.0,0.0,0.0,0.0,0.0,0.0,0.0,0.0,0.0,0.0,0.0,0.0,0.0,0.0,0.0,0.0,0.0,0.0,0.0,0.0,0.0,0.0,0.0,0.0,0.0,0.0,0.0,0.0,0.0,0.0,0.0,0.0,0.0,0.0,0.0,0.0,0.0,0.0,0.0,0.0,0.0,0.0,0.0,0.0,0.0,0.0,0.0,0.0,0.0,0.0,0.0,0.0,0.0,0.0,0.0,0.0,0.0,0.0,0.0,0.0,0.0,0.0,0.0,0.0,0.0,0.0,0.0,0.0,0.0,0.0,0.0,0.0,0.0,0.0,0.0,0.0,0.0,0.0,0.0,0.0,0.0,0.0,0.0,0.0,0.0,0.0,0.0,0.0,0.0,0.0,-0.1069,0.0,-0.1089,-0.1174,-0.1193,-0.122,0.0,0.0,0.0,0.0,0.0,0.0,0.0,0.0,0.0,0.0,0.0,0.0,0.0,0.0,0.0,0.0,0.0,0.0,0.0,0.0,0.0,0.0,0.0,0.0,0.0,0.0,0.0,0.0,0.0,0.0,0.0,0.0,0.0,0.0,0.0,0.0,0.0,0.0,0.0,0.0,0.0,0.0,0.0,0.0,0.0,0.0,0.0,0.0,0.0,0.0,0.0,0.0,0.0,0.0,0.0,0.0,0.0,0.0,0.0,0.0,0.0,0.0,0.0,0.0,0.0,0.0,0.0,0.0,0.0,0.0,0.0,0.0,0.0,0.0,0.0,0.0,0.0,0.0,0.0,0.0,0.0,0.0,0.0,0.0,0.0,0.0,0.0,0.0,0.0,0.0,0.0,0.0,0.0,0.0,0.0,0.0,0.0,0.0,0.0,0.0,0.0,0.0,0.0,0.0,0.0,0.0,0.0,0.0,-0.0866,-0.0799,-0.0764,-0.0855,-0.1183,-0.1149,-0.1282,0.0,0.0,0.0,0.0,0.0,0.0,0.0,0.0,0.0,0.0,0.0,0.0,0.0,0.0,0.0,0.0,0.0,0.0,0.0,0.0,0.0,0.0,0.0,0.0,0.0,0.0,0.0,0.0,0.0,0.0,0.0,0.0,0.0,0.0,0.0,0.0,0.0,0.0,0.0,0.0,0.0,0.0,0.0,0.0,0.0,0.0,0.0,0.0,0.0,0.0,0.0,0.0,0.0,0.0,0.0,0.0,0.0,0.0,0.0,0.0,0.0,0.0,0.0,0.0,0.0,0.0,0.0,0.0,0.0,0.0,0.0,0.0,0.0,0.0,0.0,0.0,0.0,0.0,0.0,0.0,0.0,0.0,0.0,0.0,0.0,0.0,0.0,0.0,0.0,0.0,0.0,0.0,0.0,0.0,0.0,0.0,0.0,0.0,0.0,0.0,0.0,0.0,0.0,0.0,0.0,0.0,0.0,0.0,0.0,-0.0803,-0.0642,-0.0572,-0.0637,-0.0688,-0.079,0.0,0.0,0.0,0.0,0.0,0.0,0.0,0.0,0.0,0.0,0.0,0.0,0.0,0.0,0.0,0.0,0.0,0.0,0.0,0.0,0.0,0.0,0.0,0.0,0.0,0.0,0.0,0.0,0.0,0.0,0.0,0.0,0.0,0.0,0.0,0.0,0.0,0.0,0.0,0.0,0.0,0.0,0.0,0.0,0.0,0.0,0.0,0.0,0.0,0.0,0.0,0.0,0.0,0.0,0.0,0.0,0.0,0.0,0.0,0.0,0.0,0.0,0.0,0.0,0.0,0.0,0.0,0.0,0.0,0.0,0.0,0.0,0.0,0.0,0.0,0.0,0.0,0.0,0.0,0.0,0.0,0.0,0.0,0.0,0.0,0.0,0.0,0.0,0.0,0.0,0.0,0.0,0.0,0.0,0.0,0.0,0.0,0.0,0.0,0.0,0.0,0.0,0.0,0.0,0.0,0.0,0.0,0.0,0.0,-0.0856,-0.0679,-0.0646,-0.0679,-0.0735,-0.0774,-0.0766,0.0,0.0,0.0,0.0,0.0,0.0,0.0,0.0,0.0,0.0,0.0,0.0,0.0,0.0,0.0,0.0,0.0,0.0,0.0,0.0,0.0,0.0,0.0,0.0,0.0,0.0,0.0,0.0,0.0,0.0,0.0,0.0,0.0,0.0,0.0,0.0,0.0,0.0,0.0,0.0,0.0,0.0,0.0,0.0,0.0,0.0,0.0,0.0,0.0,0.0,0.0,0.0,0.0,0.0,0.0,0.0,0.0,0.0,0.0,0.0,0.0,0.0,0.0,0.0,0.0,0.0,0.0,0.0,0.0,0.0,0.0,0.0,0.0,0.0,0.0,0.0,0.0,0.0,0.0,0.0,0.0,0.0,0.0,0.0,0.0,0.0,0.0,0.0,0.0,0.0,0.0,0.0,0.0,0.0,0.0,0.0,0.0,0.0,0.0,0.0,0.0,0.0,0.0,0.0,0.0,0.0,0.0,0.0,-0.0955,-0.0899,-0.1001,-0.1203,-0.1191,-0.1109,0.0,0.0,0.0,0.0,0.0,0.0,0.0,0.0,0.0,0.0,0.0,0.0,0.0,0.0,0.0,0.0,0.0,0.0,0.0,0.0,0.0,0.0,0.0,0.0,0.0,0.0,0.0,0.0,0.0,0.0,0.0,0.0,0.0,0.0,0.0,0.0,0.0,0.0,0.0,0.0,0.0,0.0,0.0,0.0,0.0,0.0,0.0,0.0,0.0,0.0,0.0,0.0,0.0,0.0,0.0,0.0,0.0,0.0,0.0,0.0,0.0,0.0,0.0,0.0,0.0,0.0,0.0,0.0,0.0,0.0,0.0,0.0,0.0,0.0,0.0,0.0,0.0,0.0,0.0,0.0,0.0,0.0,0.0,0.0,0.0,0.0,0.0,0.0,0.0,0.0,0.0,0.0,0.0,0.0,0.0,0.0,0.0,0.0,0.0,0.0,0.0,0.0,0.0,0.0,0.0,0.0,0.0,0.0,0.0,-0.1402,-0.1779,-0.1827,-0.1505,-0.1138,-0.1068,0.0,0.0,0.0,0.0,0.0,0.0,0.0,0.0,0.0,0.0,0.0,0.0,0.0,0.0,0.0,0.0,0.0,0.0,0.0,0.0,0.0,0.0,0.0,0.0,0.0,0.0,0.0,0.0,0.0,0.0,0.0,0.0,0.0,0.0,0.0,0.0,0.0,0.0,0.0,0.0,0.0,0.0,0.0,0.0,0.0,0.0,0.0,0.0,0.0,0.0,0.0,0.0,0.0,0.0,0.0,0.0,0.0,0.0,0.0,0.0,0.0,0.0,0.0,0.0,0.0,0.0,0.0,0.0,0.0,0.0,0.0,0.0,0.0,0.0,0.0,0.0,0.0,0.0,0.0,0.0,0.0,0.0,0.0,0.0,0.0,0.0,0.0,0.0,0.0,0.0,0.0,0.0,0.0,0.0,0.0,0.0,0.0,0.0,0.0,0.0,0.0,0.0,0.0,0.0,0.0,0.0,0.0,0.0,-0.1333,-0.1532,-0.2344,-0.258,-0.2306,-0.158,-0.1167,0.0,0.0,0.0,0.0,0.0,0.0,0.0,0.0,0.0,0.0,0.0,0.0,0.0,0.0,0.0,0.0,0.0,0.0,0.0,0.0,0.0,0.0,0.0,0.0,0.0,0.0,0.0,0.0,0.0,0.0,0.0,0.0,0.0,0.0,0.0,0.0,0.0,0.0,0.0,0.0,0.0,0.0,0.0,0.0,0.0,0.0,0.0,0.0,0.0,0.0,0.0,0.0,0.0,0.0,0.0,0.0,0.0,0.0,0.0,0.0,0.0,0.0,0.0,0.0,0.0,0.0,0.0,0.0,0.0,0.0,0.0,0.0,0.0,0.0,0.0,0.0,0.0,0.0,0.0,0.0,0.0,0.0,0.0,0.0,0.0,0.0,0.0,0.0,0.0,0.0,0.0,0.0,0.0,0.0,0.0,0.0,0.0,0.0,0.0,0.0,0.0,0.0,0.0,0.0,0.0,0.0,0.0,0.0,-0.1583,-0.1404,-0.2535,-0.3226,-0.3147,-0.2153,-0.1422,0.0,0.0,0.0,0.0,0.0,0.0,0.0,0.0,0.0,0.0,0.0,0.0,0.0,0.0,0.0,0.0,0.0,0.0,0.0,0.0,0.0,0.0,0.0,0.0,0.0,0.0,0.0,0.0,0.0,0.0,0.0,0.0,0.0,0.0,0.0,0.0,0.0,0.0,0.0,0.0,0.0,0.0,0.0,0.0,0.0,0.0,0.0,0.0,0.0,0.0,0.0,0.0,0.0,0.0,0.0,0.0,0.0,0.0,0.0,0.0,0.0,0.0,0.0,0.0,0.0,0.0,0.0,0.0,0.0,0.0,0.0,0.0,0.0,0.0,0.0,0.0,0.0,0.0,0.0,0.0,0.0,0.0,0.0,0.0,0.0,0.0,0.0,0.0,0.0,0.0,0.0,0.0,0.0,0.0,0.0,0.0,0.0,0.0,0.0,0.0,0.0,0.0,0.0,0.0,0.0,0.0,0.0,0.0,-0.1397,-0.1338,-0.2562,-0.3226,-0.3224,-0.2153,-0.1613,0.0,0.0,0.0,0.0,0.0,0.0,0.0,0.0,0.0,0.0,0.0,0.0,0.0,0.0,0.0,0.0,0.0,0.0,0.0,0.0,0.0,0.0,0.0,0.0,0.0,0.0,0.0,0.0,0.0,0.0,0.0,0.0,0.0,0.0,0.0,0.0,0.0,0.0,0.0,0.0,0.0,0.0,0.0,0.0,0.0,0.0,0.0,0.0,-0.61,0.0,0.0,0.0,0.0,0.0,0.0,0.0,0.0,0.0,0.0,0.0,0.0,0.0,0.0,0.0,0.0,0.0,0.0,0.0,0.0,0.0,0.0,0.0,0.0,0.0,0.0,0.0,0.0,0.0,0.0,0.0,0.0,0.0,0.0,0.0,0.0,0.0,0.0,0.0,0.0,0.0,0.0,0.0,0.0,0.0,0.0,0.0,0.0,0.0,0.0,0.0,0.0,0.0,0.0,0.0,0.0,0.0,0.0,0.0,-0.1339,-0.1325,-0.2525,-0.3226,-0.3147,-0.2369,-0.1874,0.0,0.0,0.0,0.0,0.0,0.0,0.0,0.0,0.0,0.0,0.0,0.0,0.0,0.0,0.0,0.0,0.0,0.0,0.0,0.0,0.0,0.0,0.0,0.0,0.0,0.0,0.0,0.0,0.0,0.0,0.0,0.0,0.0,0.0,0.0,0.0,0.0,0.0,0.0,0.0,0.0,0.0,0.0,0.0,0.0,0.0,0.0,0.0,0.0,0.0,0.0,0.0,0.0,0.0,0.0,0.0,0.0,0.0,0.0,0.0,0.0,0.0,0.0,0.0,0.0,0.0,0.0,0.0,0.0,0.0,0.0,0.0,0.0,0.0,0.0,0.0,0.0,0.0,0.0,0.0,0.0,0.0,0.0,0.0,0.0,0.0,0.0,0.0,0.0,0.0,0.0,0.0,0.0,0.0,0.0,0.0,0.0,0.0,0.0,0.0,0.0,0.0,0.0,0.0,0.0,0.0,0.0,-0.0783,-0.1316,-0.1199,-0.2496,-0.3234,-0.3244,-0.2677,-0.2156,-0.1636,0.0,0.0,0.0,0.0,0.0,0.0,0.0,0.0,0.0,0.0,0.0,0.0,0.0,0.0,0.0,0.0,0.0,0.0,0.0,0.0,0.0,0.0,0.0,0.0,0.0,0.0,0.0,0.0,0.0,0.0,0.0,0.0,0.0,0.0,0.0,0.0,0.0,0.0,-0.4423,-0.4631,0.0,0.0,0.0,0.0,0.0,0.0,0.0,0.0,-0.6523,0.0,0.0,0.0,0.0,0.0,0.0,0.0,0.0,0.0,0.0,0.0,0.0,0.0,0.0,0.0,0.0,0.0,0.0,0.0,0.0,0.0,0.0,0.0,0.0,0.0,0.0,0.0,0.0,0.0,0.0,0.0,0.0,0.0,0.0,0.0,0.0,0.0,0.0,0.0,0.0,0.0,0.0,0.0,0.0,0.0,0.0,0.0,0.0,0.0,0.0,0.0,0.0,0.0,0.0,0.0,0.0,0.0378,-0.0754,-0.1218,-0.1098,-0.2437,-0.3262,-0.333,-0.2772,-0.2176,-0.1692,0.0,0.0,0.0,0.0,0.0,0.0,0.0,0.0,0.0,0.0,0.0,0.0,0.0,0.0,0.0,0.0,0.0,0.0,0.0,0.0,0.0,0.0,0.0,0.0,0.0,0.0,0.0,0.0,0.0,0.0,0.0,0.0,0.0,0.0,0.0,0.0,0.0,0.0,0.0,-0.542,-0.5473,0.0,0.0,0.0,0.0,0.0,0.0,0.0,0.0,-0.7484,0.0,0.0,0.0,0.0,0.0,0.0,0.0,0.0,0.0,0.0,0.0,0.0,0.0,0.0,0.0,0.0,0.0,0.0,0.0,0.0,0.0,0.0,0.0,0.0,0.0,0.0,0.0,0.0,0.0,0.0,0.0,0.0,0.0,0.0,0.0,0.0,0.0,0.0,0.0,0.0,0.0,0.0,0.0,0.0,0.0,0.0,0.0,0.0,0.0,0.0,0.0,0.0,0.0,0.0,0.0,0.0598,-0.02,-0.058,-0.0501,-0.1905,-0.268,-0.2779,-0.2604,-0.224,0.0,0.0,0.0,0.0,0.0,0.0,0.0,0.0,0.0,0.0,0.0,0.0,0.0,0.0,0.0,0.0,0.0,0.0,0.0,0.0,0.0,0.0,0.0,0.0,0.0,0.0,0.0,0.0,0.0,0.0,0.0,0.0,0.0,0.0,0.0,0.0,0.0,0.0,0.0,0.0,-0.6165,-0.6441,-0.7801,0.0,0.0,0.0,0.0,0.0,0.0,-0.8036,-0.7667,0.0,0.0,0.0,0.0,0.0,0.0,0.0,0.0,0.0,0.0,0.0,0.0,0.0,0.0,0.0,0.0,0.0,0.0,0.0,0.0,0.0,0.0,0.0,0.0,0.0,0.0,0.0,0.0,0.0,0.0,0.0,0.0,0.0,0.0,0.0,0.0,0.0,0.0,0.0,0.0,0.0,0.0,0.0,0.0,0.0,0.0,0.0,0.0,0.0,0.0,0.0,0.0,0.0,0.0,0.0,0.0808,0.0278,0.0,0.0074,-0.1241,-0.1968,-0.1901,-0.2026,-0.1879,0.0,0.0,0.0,0.0,0.0,0.0,0.0,0.0,0.0,0.0,0.0,0.0,0.0,0.0,0.0,0.0,0.0,0.0,0.0,0.0,0.0,0.0,0.0,0.0,0.0,0.0,0.0,0.0,0.0,0.0,0.0,0.0,0.0,0.0,0.0,0.0,0.0,0.0,0.0,0.0,0.0,-0.7394,-0.8794,-0.8539,0.0,0.0,0.0,0.0,-0.8928,-0.8501,0.0,0.0,0.0,0.0,0.0,0.0,0.0,0.0,0.0,0.0,0.0,0.0,0.0,0.0,0.0,0.0,0.0,0.0,0.0,0.0,0.0,0.0,0.0,0.0,0.0,0.0,0.0,0.0,0.0,0.0,0.0,0.0,0.0,0.0,0.0,0.0,0.0,0.0,0.0,0.0,0.0,0.0,0.0,0.0,0.0,0.0,0.0,0.0,0.0,0.0,0.0,0.0,0.0,0.0,0.0,0.0,0.0615,0.0205,0.0,0.0075,-0.0736,-0.1102,-0.0975,-0.0582,-0.0464,0.0,0.0,0.0,0.0,0.0,0.0,0.0,0.0,0.0,0.0,0.0,0.0,0.0,0.0,0.0,0.0,0.0,0.0,0.0,0.0,0.0,0.0,0.0,0.0,0.0,0.0,0.0,0.0,0.0,0.0,0.0,0.0,0.0,0.0,0.0,0.0,0.0,0.0,0.0,0.0,0.0,-0.7903,-0.8885,-0.8539,-0.809,0.0,0.0,-0.953,-0.9375,-1.0067,0.0,0.0,0.0,0.0,0.0,0.0,0.0,0.0,0.0,0.0,0.0,0.0,0.0,0.0,0.0,0.0,0.0,0.0,0.0,0.0,0.0,0.0,0.0,0.0,0.0,0.0,0.0,0.0,0.0,0.0,0.0,0.0,0.0,0.0,0.0,0.0,0.0,0.0,0.0,0.0,0.0,0.0,0.0,0.0,0.0,0.0,0.0,0.0,0.0,0.0,0.0,0.0,0.0,0.0,0.0,0.092,0.0789,0.0768,0.077,0.0773,0.0076,-0.0229,-0.0154,-0.0065,-0.0116,0.0,0.0,0.0,0.0,0.0,0.0,0.0,0.0,0.0,0.0,0.0,0.0,0.0,0.0,0.0,0.0,0.0,0.0,0.0,0.0,0.0,0.0,0.0,0.0,0.0,0.0,0.0,0.0,0.0,0.0,0.0,0.0,0.0,0.0,0.0,0.0,0.0,0.0,0.0,0.0,0.0,0.0,-0.9106,-0.9516,0.0,0.0,0.0,-1.0146,-0.9323,0.0,0.0,0.0,0.0,0.0,0.0,0.0,0.0,0.0,0.0,0.0,0.0,0.0,0.0,0.0,0.0,0.0,0.0,0.0,0.0,0.0,0.0,0.0,0.0,0.0,0.0,0.0,0.0,0.0,0.0,0.0,0.0,0.0,0.0,0.0,0.0,0.0,0.0,0.0,0.0,0.0,0.0,0.0,0.0,0.0,0.0,0.0,0.0,0.0,0.0,0.0,0.0,0.0,0.0,0.0,0.0,0.0,0.09,0.1136,0.1336,0.1258,0.0784,0.0627,0.0704,0.0472,0.0,0.0,0.0,0.0,0.0,0.0,0.0,0.0,0.0,0.0,0.0,0.0,0.0,0.0,0.0,0.0,0.0,0.0,0.0,0.0,0.0,0.0,0.0,0.0,0.0,0.0,0.0,-0.1661,0.0,0.0,0.0,0.0,0.0,0.0,0.0,0.0,0.0,0.0,0.0,0.0,0.0,0.0,-0.8737,-0.9217,-1.0127,-1.0612,0.0,0.0,-1.0745,-0.9886,-1.0945,-1.1153,0.0,0.0,0.0,0.0,0.0,0.0,0.0,0.0,0.0,0.0,0.0,0.0,0.0,0.0,0.0,0.0,0.0,0.0,0.0,0.0,0.0,0.0,0.0,0.0,0.0,0.0,0.0,0.0,0.0,0.0,0.0,0.0,0.0,0.0,0.0,0.0,0.0,0.0,0.0,0.0,0.0,0.0,0.0,0.0,0.0,0.0,0.0,0.0,0.0,0.0,0.0,0.0,0.0,0.0,0.0,0.0905,0.1135,0.1336,0.1336,0.1257,0.1414,0.1805,0.1596,0.1433,0.0,0.0,0.0,0.0,0.0,0.0,0.0,0.0,0.0,0.0,0.0,0.0,0.0,0.0,0.0,0.0,0.0,0.0,0.0,0.0,0.0,0.0,0.0,0.0,0.0,0.0,0.0,0.0,0.0,0.0,0.0,0.0,0.0,0.0,0.0,0.0,0.0,0.0,0.0,0.0,0.0,-0.9182,-0.9056,-0.9757,-1.0413,0.0,0.0,-1.1234,-1.1733,-1.3047,-1.3151,-1.0386,0.0,0.0,0.0,0.0,0.0,0.0,0.0,0.0,0.0,0.0,0.0,0.0,0.0,0.0,0.0,0.0,0.0,0.0,0.0,0.0,0.0,0.0,0.0,0.0,0.0,0.0,0.0,0.0,0.0,0.0,0.0,0.0,0.0,0.0,0.0,0.0,0.0,0.0,0.0,0.0,0.0,0.0,0.0,0.0,0.0,0.0,0.0,0.0,0.0,0.0,0.0,0.0,0.0,0.129,0.1125,0.1277,0.1336,0.1336,0.1415,0.1573,0.1729,0.1754,0.1709,0.0,0.0,0.0,0.0,0.0,0.0,0.0,0.0,0.0,0.0,0.0,0.0,0.0,0.0,0.0,0.0,0.0,0.0,0.0,0.0,0.0,0.0,0.0,0.0,0.0,0.0,0.0,0.0,-0.4454,-0.4935,-0.4914,0.0,0.0,0.0,0.0,0.0,0.0,0.0,0.0,0.0,0.0,-0.9151,-0.9958,-1.0614,0.0,0.0,-1.1577,-1.178,-1.1422,-1.2261,-1.2194,-0.9953,-0.9499,0.0,0.0,0.0,0.0,0.0,0.0,0.0,0.0,0.0,0.0,0.0,0.0,0.0,0.0,0.0,0.0,0.0,0.0,0.0,0.0,0.0,0.0,0.0,0.0,0.0,0.0,0.0,0.0,0.0,0.0,0.0,0.0,0.0,0.0,0.0,0.0,0.0,0.0,0.0,0.0,0.0,0.0,0.0,0.0,0.0,0.0,0.0,0.0,0.0,0.0,0.0,0.0,0.1347,0.1292,0.1348,0.1336,0.1336,0.1415,0.1573,0.1649,0.1868,0.185,0.0,0.0,0.0,0.0,0.0,0.0,0.0,0.0,0.0,0.0,0.0,0.0,0.0,0.0,0.0,0.0,0.0,0.0,0.0,0.0,0.0,0.0,0.0,0.0,0.0,0.0,0.0,0.0,-0.4742,-0.5119,-0.5189,0.0,0.0,0.0,0.0,0.0,0.0,0.0,0.0,0.0,0.0,-0.9477,-1.0285,-1.083,-1.1086,-1.0973,-1.1414,-1.1631,-1.1392,-1.1868,-1.1787,-1.0362,0.0,0.0,0.0,0.0,0.0,0.0,0.0,0.0,0.0,0.0,0.0,0.0,0.0,0.0,0.0,0.0,0.0,0.0,0.0,0.0,0.0,0.0,0.0,0.0,0.0,0.0,0.0,0.0,0.0,0.0,0.5291,0.0,0.0,0.0,0.0,0.0,0.0,0.0,0.0,0.0,0.0,0.0,0.0,0.0,0.0,0.0,0.0,0.0,0.0,0.0,0.0,0.0,0.0,0.1347,0.1295,0.1277,0.1336,0.1336,0.1336,0.1493,0.1887,0.1883,0.2019,0.2149,0.0,0.0,0.0,0.0,0.0,0.0,0.0,0.0,0.0,0.0,0.0,0.0,0.0,0.0,0.0,0.0,0.0,0.0,0.0,0.0,0.0,0.0,0.0,0.0,0.0,0.0,-0.2317,-0.3706,-0.4821,0.0,0.0,0.0,0.0,0.0,0.0,0.0,0.0,0.0,0.0,-0.9112,-1.0337,-0.9819,-0.9972,-1.0262,-1.0454,-1.0397,-1.0728,-1.1991,-1.2447,-1.2549,0.0,0.0,0.0,0.0,0.0,0.0,0.0,0.0,0.0,0.0,0.0,0.0,0.0,0.0,0.0,0.0,0.0,0.0,0.0,0.0,0.0,0.0,0.0,0.0,0.0,0.0,0.0,0.5842,0.5721,0.0,0.0,0.0,0.0,0.0,0.0,0.0,0.0,0.0,0.0,0.0,0.5157,0.5118,0.0,0.0,0.0,0.0,0.0,0.0,0.0,0.0,0.0,0.0,0.0,0.0,0.1474,0.1636,0.143,0.1336,0.1493,0.1493,0.1573,0.173,0.1962,0.2099,0.2228,0.0,0.0,0.0,0.0,0.0,0.0,0.0,0.0,0.0,0.0,0.0,0.0,0.0,0.0,0.0,0.0,0.0,0.0,0.0,0.0,0.0,0.0,0.0,0.0,0.0,-0.3052,0.0,0.0,0.0,0.0,0.0,0.0,0.0,0.0,0.0,0.0,0.0,-0.7514,-0.8007,-0.8635,-0.9193,-0.9761,-1.0174,-1.0866,0.0,0.0,0.0,0.0,0.0,0.0,0.0,0.0,0.0,0.0,0.0,0.0,0.0,0.0,-1.2865,-1.0745,-1.115,-1.1886,-1.2082,0.0,0.0,0.0,0.0,0.0,0.0,0.0,0.0,0.0,0.0,0.0,0.0,0.0,0.0,0.7172,0.0,0.7019,0.0,0.0,0.0,0.0,0.0,0.0,0.0,0.0,0.595,0.599,0.5813,0.5763,0.5655,0.0,0.4944,0.4292,0.0,0.0,0.0,0.0,0.0,0.0,0.0,0.0,0.1671,0.1957,0.1581,0.1493,0.173,0.1651,0.1649,0.1806,0.2118,0.2285,0.2282,0.2045,0.1845,0.0,0.0,0.0,0.0,0.0,0.0,0.0,0.0,0.0,0.0,0.0,0.0,0.0,0.0,0.0,0.0,0.0,0.0,0.0,0.0,0.0,0.0,0.0,-0.3272,0.0,0.0,0.0,0.0,0.0,0.0,0.0,0.0,0.0,-0.6171,-0.7218,-0.8218,-0.881,-0.9321,-0.9692,-0.9774,0.0,0.0,0.0,0.0,0.0,0.0,0.0,-1.1104,-1.1516,-1.175,-1.2256,-1.3291,-1.4546,-1.5402,-1.541,0.0,0.0,-1.3643,-1.3932,-1.4688,-1.4923,-1.5159,-1.535,-1.5386,-1.5858,-1.6265,0.0,0.0,0.0,0.0,0.0,0.0,0.0,0.0,0.9349,0.9196,0.0,0.834,0.0,0.0,0.0,0.0,0.0,0.6161,0.0,0.0,0.6906,0.7126,0.6992,0.6517,0.6246,0.6222,0.5609,0.5049,0.4567,0.4632,0.0,0.0,0.0,0.0,0.0,0.0,0.1883,0.2144,0.1798,0.1727,0.1884,0.1729,0.1806,0.2195,0.2353,0.2508,0.25,0.2286,0.2092,0.1941,0.1293,0.0,0.0,0.0,0.0,0.0,0.0,0.0,0.0,0.0,0.0,0.0,0.0,0.0,0.0,0.0,0.0,0.0,0.0,0.0,0.0,-0.2958,0.0,0.0,0.0,0.0,0.0,0.0,0.0,0.0,0.0,0.0,-0.6373,-0.7779,-0.8993,-0.9289,0.0,0.0,0.0,0.0,-1.1425,-0.9658,-0.9477,-0.9902,-1.0894,-1.1762,-1.2833,-1.4413,0.0,0.0,-1.6654,-1.6312,-1.6164,-1.6102,-1.781,-1.8605,-1.7311,-1.6698,-1.6562,-1.6937,-1.7303,-1.7406,-1.7527,-1.8322,-1.891,1.1332,0.0,0.0,0.0,0.0,0.9646,1.0053,1.0784,1.05,1.0131,0.9794,0.9826,0.0,0.0,0.0,0.0,0.0,0.0,0.7795,0.8186,0.758,0.7334,0.7535,0.73,0.7179,0.7331,0.7138,0.6986,0.6733,0.6657,0.5385,0.3124,0.0,0.0,0.0,0.0,0.1885,0.1952,0.1669,0.1685,0.2069,0.2024,0.2196,0.2431,0.2352,0.2353,0.251,0.2444,0.2254,0.1889,0.1719,0.0,0.0,0.0,0.0,0.0,0.0,0.0,0.0,0.0,0.0,0.0,0.0,0.0,0.0,0.0,0.0,0.0,0.0,0.0,-0.2841,-0.3304,-0.3378,0.0,0.0,0.0,0.0,0.0,0.0,0.0,0.0,0.0,-0.7699,-0.7866,-0.8186,0.0,0.0,-0.8905,-0.8827,-1.0008,-1.12,-1.2058,0.0,0.0,0.0,-1.4323,-1.4286,-1.5082,-1.6857,-1.8304,-1.8598,-1.9738,-2.0696,-2.0722,-2.16,-2.2102,-2.1853,-2.0976,-2.0384,-2.0573,-2.0949,-2.1242,-2.1308,-2.1738,-2.2166,1.3453,1.2178,1.1335,1.1272,1.169,1.1312,1.1676,1.248,1.2078,1.1702,1.1414,1.1202,1.0815,1.0223,1.0004,0.0,0.0,0.0,0.8433,0.8426,0.7803,0.7571,0.7671,0.7476,0.7492,0.7643,0.7573,0.7549,0.7488,0.73,0.6235,0.4386,0.0,0.0,0.2583,0.2282,0.2068,0.1921,0.1651,0.1717,0.2091,0.2215,0.232,0.2322,0.2343,0.2353,0.251,0.251,0.2368,0.2156,0.1965,0.1772,0.0,0.0,0.0,0.0,0.0,0.0,0.0,0.0,0.0,0.0,0.0,-0.1042,-0.0849,0.0,0.0,0.0,-0.2463,-0.2986,-0.3231,-0.3482,0.0,0.0,0.0,0.0,0.0,0.0,0.0,-0.5415,-0.7072,-0.8445,-0.8746,-0.8601,-0.8849,-0.9811,-0.9878,-0.9815,-0.9748,0.0,-1.2833,-1.3484,-1.3806,-1.4556,-1.6232,-1.6293,-1.6428,-1.7456,-1.8727,-1.986,-2.0329,-2.1681,-2.2719,-2.3131,-2.364,-2.4059,-2.4118,-2.3583,-2.3112,-2.2989,-2.3359,-2.3702,-2.3755,-2.4051,-2.4376,1.5271,1.489,1.3061,1.2759,1.3497,1.2883,1.3338,1.4462,1.3908,1.3585,1.3479,1.2492,1.1857,1.1487,1.0516,0.0,0.8864,0.9062,0.8618,0.7806,0.7823,0.772,0.7562,0.7374,0.7387,0.7552,0.7343,0.7308,0.725,0.7153,0.6814,0.6338,0.5819,0.4794,0.3413,0.2951,0.2454,0.1942,0.1745,0.1743,0.2117,0.2311,0.2266,0.2121,0.2398,0.2504,0.251,0.251,0.251,0.2503,0.2155,0.1946,0.1934,0.0,0.0,0.0,0.0,0.0,0.0,0.0,0.0,0.0,0.0,0.0,0.0,0.0,0.0,0.0,-0.2736,0.0,-0.3837,-0.3611,0.0,0.0,0.0,-0.4505,-0.523,-0.6225,-0.7016,-0.7553,0.0,0.0,-0.965,-0.9862,-1.047,-1.1817,-1.2636,-1.2804,-1.1817,-1.3919,-1.5379,-1.4279,-1.5099,-1.6124,-1.703,-1.7877,-1.9011,-2.0568,-2.1166,-2.1267,-2.1762,-2.2291,-2.3004,-2.3709,-2.4326,-2.4699,-2.4716,-2.4822,-2.4906,-2.4334,-2.4605,-2.4958,-2.491,-2.5221,-2.547,1.5685,1.5551,1.4689,1.4456,1.4609,1.417,1.417,1.4482,1.4135,1.3854,1.3539,1.3347,1.318,1.312,1.3054,1.2975,1.2705,1.1348,1.0601,1.0317,0.9029,0.8332,0.8102,0.8028,0.8012,0.7919,0.7845,0.78,0.7757,0.7632,0.7156,0.6525,0.6212,0.5395,0.411,0.3886,0.3317,0.2394,0.2373,0.231,0.226,0.2201,0.2227,0.2343,0.2359,0.2463,0.2508,0.251,0.251,0.2508,0.2378,0.2337,0.2272,0.1637,0.0,0.0,0.0,0.0,0.0,0.0,0.0,0.0,0.0,-0.0991,-0.0809,0.0,-0.1494,0.0,-0.2816,-0.3942,-0.4557,-0.4666,0.0,0.0,-0.4348,-0.4638,-0.5296,-0.6787,-0.7716,-0.7599,-0.8931,-1.0136,-1.0895,-1.1013,-1.1647,-1.3268,-1.2522,-1.1857,-1.2035,-1.3895,-1.5451,-1.5802,-1.7015,-1.8283,-1.9101,-2.0053,-2.0974,-2.2138,-2.2272,-2.2464,-2.2926,-2.3163,-2.3567,-2.421,-2.4582,-2.4859,-2.5297,-2.5591,-2.55,-2.4965,-2.4922,-2.5005,-2.5005,-2.5317,-2.5654,1.6219,1.6192,1.5872,1.5518,1.513,1.4843,1.479,1.4883,1.4603,1.4382,1.4215,1.3955,1.3768,1.3647,1.3681,1.353,1.3112,1.214,1.1275,1.0422,0.9505,0.8793,0.8193,0.8205,0.818,0.8145,0.8008,0.807,0.8213,0.7979,0.7671,0.7468,0.7134,0.6533,0.5696,0.4582,0.3501,0.2685,0.2599,0.239,0.2112,0.2138,0.2212,0.2404,0.243,0.2506,0.2624,0.2624,0.2539,0.2512,0.251,0.243,0.2373,0.1949,0.1605,0.0,0.0,0.0,0.0,0.0,0.0,0.0,0.0,0.0,0.0,0.0,-0.1813,-0.2056,-0.3147,-0.4107,-0.4795,-0.5022,-0.514,-0.5189,-0.5187,-0.5471,-0.6236,-0.7639,-0.8626,-0.8793,-1.0239,-1.151,-1.2017,-1.2232,-1.2746,-1.3928,-1.3392,-1.2931,-1.3506,-1.5122,-1.6645,-1.7153,-1.8663,-2.0052,-2.0696,-2.1246,-2.1849,-2.2421,-2.2604,-2.28,-2.3163,-2.3625,-2.4171,-2.4791,-2.5299,-2.5696,-2.6012,-2.6191,-2.6091,-2.53,-2.5195,-2.5264,-2.5029,-2.5317,-2.5654,1.674,1.6707,1.6707,1.6266,1.5545,1.5297,1.5184,1.515,1.4863,1.4783,1.4823,1.4396,1.4055,1.3801,1.3547,1.3024,1.2369,1.2407,1.1532,0.9935,0.976,0.9158,0.8255,0.8061,0.8147,0.8255,0.8119,0.8191,0.8515,0.8207,0.8187,0.8446,0.8048,0.7698,0.7301,0.5203,0.3786,0.305,0.2761,0.2479,0.2153,0.2189,0.2294,0.2445,0.2497,0.2601,0.2714,0.2707,0.2677,0.255,0.2545,0.247,0.2364,0.2228,0.2029,0.0,0.1558,0.0,0.0,0.0,0.0,0.0,0.0,0.0,0.0,-0.1963,-0.2427,-0.3161,-0.37,-0.4211,-0.4922,-0.5168,-0.5591,-0.6182,-0.6339,-0.667,-0.7457,-0.841,-0.94,-1.0214,-1.1533,-1.2517,-1.2915,-1.331,-1.3663,-1.4144,-1.4478,-1.4658,-1.5134,-1.6618,-1.7896,-1.8131,-1.9823,-2.098,-2.1467,-2.1765,-2.1963,-2.2347,-2.2543,-2.2739,-2.3017,-2.3813,-2.4667,-2.5384,-2.6105,-2.6593,-2.6713,-2.6819,-2.6542,-2.5591,-2.5666,-2.5691,-2.5187,-2.5317,-2.5616,1.6927,1.6707,1.6707,1.6607,1.646,1.6393,1.5458,1.3955,1.3667,1.3808,1.4275,1.4636,1.4763,1.4716,1.4656,1.4542,1.4346,1.3374,1.2748,1.2337,1.0631,0.9716,0.936,0.8577,0.8142,0.8076,0.7987,0.8126,0.8337,0.8272,0.8042,0.7744,0.7627,0.7285,0.6676,0.0,0.0,0.0,0.366,0.3392,0.3413,0.2836,0.2575,0.2731,0.2746,0.0,0.2714,0.2713,0.2707,0.2694,0.2692,0.0,0.0,0.0,0.0,0.0,0.0,0.0,0.0,0.0,0.0,0.0,-0.1585,-0.164,-0.1484,-0.2151,-0.2931,-0.3822,-0.4457,-0.5133,-0.5862,-0.6262,-0.6508,-0.67,-0.6954,-0.7413,-0.7982,-0.8566,-0.9334,-1.0332,-1.1071,-1.1912,-1.2789,-1.3351,-1.3802,-1.443,-1.4889,-1.5232,-1.5523,-1.662,-1.7426,-1.7861,-1.9444,-2.0828,-2.1572,-2.1812,-2.1987,-2.2297,-2.2555,-2.2909,-2.3471,-2.393,-2.4794,-2.5851,-2.6351,-2.6759,-2.728,-2.7545,-2.7357,-2.6713,-2.6504,-2.61,-2.5194,-2.5349,-2.5675,1.7275,0.0,1.7141,1.6894,0.0,1.6493,1.5658,1.4309,1.4603,1.481,1.4957,1.511,1.5177,1.5157,1.4723,1.4529,1.4509,1.3555,1.3081,1.2892,1.1807,1.0845,1.0041,0.9542,0.8992,0.843,0.8368,0.8426,0.8666,0.8511,0.8377,0.8191,0.811,0.7851,0.7517,0.7426,0.6666,0.5129,0.4809,0.4496,0.425,0.3485,0.3107,0.321,0.0,0.0,0.0,0.0,0.0,0.0,0.0,0.0,0.0,0.0,0.0,0.1963,0.1832,0.1415,0.061,0.0418,-0.0181,-0.1343,-0.2029,-0.2284,-0.1986,-0.254,-0.3225,-0.3993,-0.4629,-0.5323,-0.6217,-0.663,-0.6935,-0.7213,-0.7395,-0.7568,-0.7853,-0.8444,-0.8989,-0.9591,-1.0395,-1.1226,-1.205,-1.2775,-1.3509,-1.4362,-1.4925,-1.536,-1.5781,-1.6542,-1.7413,-1.8556,-1.9628,-2.0764,-2.1423,-2.1675,-2.1874,-2.2123,-2.2359,-2.2726,-2.3198,-2.3754,-2.4496,-2.5563,-2.6122,-2.6721,-2.7321,-2.7625,-2.753,-2.7122,-2.6964,-2.653,-2.5613,-2.5393,-2.5524,1.7615,1.7662,1.7662,1.7255,1.6587,1.658,1.6119,1.5391,0.0,0.0,0.0,1.5678,1.5598,1.5498,1.4796,1.4449,1.4362,1.3848,1.3432,1.3163,1.2948,1.2186,1.0942,1.0612,0.9913,0.9087,0.8861,0.8796,0.9031,0.8783,0.8731,0.884,0.8698,0.8597,0.8572,0.8476,0.7602,0.6268,0.5977,0.5629,0.5113,0.4305,0.3847,0.3956,0.3057,0.2666,0.2747,0.2627,0.2576,0.253,0.253,0.2468,0.2339,0.2339,0.2358,0.2335,0.2277,0.1878,0.1096,0.0947,0.0208,-0.1504,-0.2511,-0.2988,-0.2762,-0.3122,-0.3511,-0.3964,-0.4573,-0.5366,-0.6241,-0.668,-0.7123,-0.7555,-0.7517,-0.7521,-0.7652,-0.8161,-0.8603,-0.8865,-0.9697,-1.0521,-1.1115,-1.2074,-1.304,-1.39,-1.4714,-1.5342,-1.5773,-1.6403,-1.7482,-1.9013,-1.9748,-2.0431,-2.121,-2.1537,-2.1686,-2.1862,-2.2173,-2.2482,-2.2896,-2.3458,-2.4253,-2.5273,-2.6,-2.6616,-2.7233,-2.7524,-2.7495,-2.7179,-2.7176,-2.6995,-2.6088,-2.562,-2.5486,1.7736,1.7983,1.7983,1.7909,1.7796,1.7796,1.7428,1.6901,1.6172,1.5872,1.5858,1.6326,1.6386,1.6146,1.6019,1.5825,1.5571,1.5244,1.504,0.0,1.3948,1.335,1.304,1.1389,1.0472,1.0084,0.9379,0.8962,0.8881,0.8974,0.9039,0.9035,0.8877,0.871,0.858,0.8568,0.8324,0.7931,0.7115,0.6601,0.6504,0.5655,0.511,0.4894,0.4133,0.3649,0.3439,0.2826,0.2516,0.2585,0.2589,0.2588,0.2567,0.2583,0.2527,0.2468,0.2484,0.2197,0.1533,0.1148,0.0076,-0.1811,-0.2883,-0.3367,-0.3305,-0.373,-0.4059,-0.4046,-0.5002,-0.5758,-0.5989,-0.666,-0.712,-0.7282,-0.7389,-0.7591,-0.7852,-0.8052,-0.8376,-0.9092,-0.9332,-0.9779,-1.0615,-1.16,-1.261,-1.3439,-1.4462,-1.5359,-1.57,-1.607,-1.6881,-1.8297,-1.89,-1.9694,-2.0933,-2.1388,-2.1537,-2.1874,-2.2061,-2.2482,-2.3185,-2.3518,-2.4253,-2.5659,-2.6,-2.6496,-2.7181,-2.7488,-2.758,-2.7549,-2.7364,-2.6932,-2.6392,-2.6036,-2.5735,1.8156,1.8277,1.8283,1.8283,1.8277,1.8116,1.7896,1.7589,1.7027,1.66,1.6339,1.6593,1.6633,1.648,1.6172,1.5959,1.5812,1.5364,1.5244,1.5391,1.4948,1.4433,1.3716,1.2596,1.1566,1.0782,0.9848,0.9388,0.9397,0.9393,0.9332,0.9226,0.8958,0.8779,0.8702,0.8613,0.8524,0.8438,0.793,0.7554,0.7358,0.643,0.5874,0.5651,0.4428,0.3682,0.3575,0.2799,0.2444,0.251,0.255,0.2559,0.2526,0.2534,0.2499,0.2503,0.251,0.2353,0.2117,0.1332,0.039,-0.0848,-0.2136,-0.2926,-0.3151,-0.3604,-0.3772,-0.3729,-0.4539,-0.5235,-0.5656,-0.6161,-0.6721,-0.7307,-0.7261,-0.7339,-0.7657,-0.7917,-0.8229,-0.8651,-0.8837,-0.9185,-1.0116,-1.0905,-1.1888,-1.2868,-1.4237,-1.5338,-1.5726,-1.5867,-1.6342,-1.7482,-1.8162,-1.9023,-2.0268,-2.073,-2.1071,-2.1526,-2.1862,-2.2223,-2.2763,-2.3065,-2.3695,-2.4597,-2.5106,-2.5728,-2.6616,-2.6945,-2.7255,-2.7725,-2.7644,-2.7185,-2.652,-2.5878,-2.5536,1.8531,1.8591,1.8591,1.8591,1.8557,1.827,1.8143,1.811,1.7816,1.7428,1.7034,1.6941,1.6867,1.676,1.6326,1.6092,1.5965,1.5565,1.5478,1.5705,1.5925,1.5512,1.4606,1.3964,1.3068,1.1947,1.0697,1.0171,1.0209,0.9825,0.9571,0.9348,0.9076,0.8901,0.8816,0.8742,0.866,0.8572,0.8476,0.8251,0.7894,0.7107,0.6608,0.6439,0.4942,0.4067,0.4035,0.3121,0.2648,0.2622,0.2533,0.2496,0.251,0.251,0.251,0.251,0.251,0.251,0.2431,0.1488,0.0705,0.0235,-0.1173,-0.2252,-0.2748,-0.3151,-0.3467,-0.3509,-0.4092,-0.4651,-0.522,-0.5751,-0.6291,-0.712,-0.7078,-0.7104,-0.7474,-0.7736,-0.7994,-0.8268,-0.8441,-0.8896,-0.9668,-1.0305,-1.1287,-1.2692,-1.4166,-1.5267,-1.5584,-1.5726,-1.614,-1.6673,-1.7423,-1.8422,-1.953,-2.0074,-2.0549,-2.125,-2.1663,-2.1937,-2.2247,-2.2494,-2.2969,-2.3754,-2.4221,-2.5007,-2.6014,-2.651,-2.6945,-2.7575,-2.773,-2.7436,-2.652,-2.5644,-2.5298,1.8651,1.8871,1.8885,1.8885,1.8851,1.8571,1.845,1.841,1.8136,1.7983,1.7849,1.7622,1.7341,1.7121,1.7136,1.6867,1.6627,1.6573,1.654,1.656,1.6613,1.66,1.627,1.5398,1.4867,1.4259,1.2603,1.1466,1.1203,1.0297,0.9689,0.9393,0.9319,0.9137,0.8848,0.8839,0.8752,0.8572,0.8568,0.8459,0.8243,0.791,0.7568,0.7383,0.6439,0.5781,0.5358,0.4158,0.3421,0.3289,0.2697,0.2455,0.2503,0.251,0.251,0.251,0.251,0.251,0.2431,0.1488,0.094,0.0705,-0.0627,-0.18,-0.226,-0.2804,-0.3213,-0.3487,-0.4168,-0.4595,-0.4753,-0.5538,-0.618,-0.6482,-0.6773,-0.7116,-0.7443,-0.754,-0.7831,-0.8468,-0.8568,-0.8754,-0.9319,-1.0059,-1.1206,-1.2811,-1.4124,-1.5133,-1.5355,-1.5576,-1.5805,-1.607,-1.6682,-1.7881,-1.9191,-1.9792,-2.0193,-2.1071,-2.1549,-2.1824,-2.2135,-2.2445,-2.2921,-2.3424,-2.3989,-2.4681,-2.5687,-2.6457,-2.6721,-2.7261,-2.7475,-2.747,-2.6595,-2.5639,-2.533,1.9078,1.9185,1.9185,1.9192,1.9145,1.8871,1.8744,1.8718,1.843,1.821,1.8043,1.7909,1.7689,1.7408,1.7408,1.7335,1.7228,1.7221,1.7128,1.6994,1.7141,1.7081,1.6645,1.5962,1.5427,1.5113,1.3724,1.263,1.1737,1.0565,0.9758,0.9527,0.9409,0.9279,0.9116,0.8943,0.8798,0.871,0.8621,0.8528,0.8438,0.8207,0.7939,0.758,0.6777,0.6207,0.5867,0.4507,0.3645,0.3501,0.2821,0.2484,0.2508,0.251,0.251,0.251,0.251,0.251,0.251,0.2117,0.1724,0.1332,0.047,-0.047,-0.1409,-0.2115,-0.2795,-0.322,-0.3766,-0.4248,-0.4624,-0.5022,-0.542,-0.6077,-0.6401,-0.6599,-0.7166,-0.7384,-0.77,-0.8092,-0.8441,-0.8765,-0.928,-1.0081,-1.1212,-1.2485,-1.3665,-1.4474,-1.5054,-1.5576,-1.5805,-1.5867,-1.6132,-1.6872,-1.8133,-1.888,-1.9552,-2.0409,-2.1146,-2.1612,-2.1886,-2.2197,-2.2616,-2.3078,-2.3424,-2.4002,-2.4851,-2.5632,-2.6176,-2.6709,-2.6673,-2.6408,-2.574,-2.5122,-2.5174,1.9366,1.9366,1.9366,1.9366,1.9345,1.9138,1.9045,1.9011,1.8738,1.8484,1.829,1.821,1.8003,1.7722,1.7622,1.7589,1.7589,1.7589,1.7475,1.7301,1.7488,1.7361,1.6919,1.6514,1.6293,1.5805,1.4943,1.3863,1.2605,1.1084,1.0322,1.0082,0.9714,0.9405,0.9419,0.9091,0.8935,0.8804,0.8742,0.866,0.8552,0.8438,0.8215,0.7918,0.7202,0.6703,0.6539,0.5173,0.4405,0.4302,0.34,0.2821,0.2821,0.2666,0.251,0.251,0.251,0.251,0.251,0.251,0.2273,0.1881,0.141,0.0627,-0.0313,-0.1252,-0.2036,-0.2663,-0.3295,-0.3839,-0.43,-0.4469,-0.4955,-0.5924,-0.6057,-0.6445,-0.7033,-0.7394,-0.7595,-0.7847,-0.8226,-0.8724,-0.9311,-1.0132,-1.1099,-1.1835,-1.2858,-1.3818,-1.4689,-1.5213,-1.5655,-1.5726,-1.5805,-1.6272,-1.7139,-1.7813,-1.8757,-1.9814,-2.0602,-2.1146,-2.1561,-2.2011,-2.2247,-2.2726,-2.2909,-2.3365,-2.4221,-2.4951,-2.5534,-2.5988,-2.612,-2.5892,-2.5531,-2.5017,-2.5113,1.9366,1.9366,1.9366,1.9366,1.9359,1.9345,1.9332,1.9292,1.9032,1.8885,1.8804,1.8584,1.831,1.8016,1.7736,1.7589,1.7589,1.7589,1.7575,1.7542,1.7575,1.7569,1.7549,1.7569,1.747,1.72,1.6343,1.5164,1.3787,1.223,1.1496,1.1372,1.0194,0.9531,0.9405,0.9368,0.912,0.8889,0.8763,0.8756,0.8664,0.856,0.845,0.8247,0.7935,0.7596,0.7346,0.6542,0.6017,0.5874,0.4474,0.3754,0.3677,0.2899,0.251,0.251,0.251,0.251,0.251,0.251,0.2431,0.2353,0.1881,0.1332,0.0705,-0.0235,-0.1096,-0.1645,-0.2588,-0.3294,-0.3841,-0.4292,-0.483,-0.5523,-0.6143,-0.667,-0.7363,-0.7327,-0.7685,-0.7918,-0.8116,-0.8491,-0.9236,-1.0218,-1.0663,-1.118,-1.2285,-1.3382,-1.3818,-1.4617,-1.5275,-1.5647,-1.5797,-1.614,-1.6872,-1.7345,-1.8075,-1.9212,-2.002,-2.056,-2.136,-2.1949,-2.2185,-2.242,-2.2665,-2.3138,-2.3813,-2.4363,-2.4861,-2.5431,-2.6159,-2.6083,-2.5228,-2.5433,-2.5509,1.9366,1.9366,1.9366,1.9366,1.9366,1.9366,1.9366,1.9352,1.9259,1.9092,1.8925,1.8811,1.8604,1.8317,1.8016,1.7769,1.7595,1.7589,1.7589,1.7589,1.7589,1.7589,1.7589,1.7589,1.7589,1.7582,1.7153,1.6262,1.4862,1.2997,1.1859,1.1423,1.0431,0.9701,0.9571,0.9489,0.936,0.9153,0.8968,0.8802,0.8706,0.8625,0.8532,0.8459,0.8231,0.8008,0.7825,0.6918,0.6359,0.6308,0.5179,0.43,0.3754,0.2976,0.251,0.251,0.251,0.251,0.251,0.251,0.251,0.251,0.2352,0.1959,0.141,0.0705,-0.0157,-0.1018,-0.1724,-0.243,-0.3217,-0.3843,-0.4387,-0.4929,-0.524,-0.586,-0.6633,-0.6945,-0.7099,-0.7638,-0.7944,-0.8408,-0.9094,-0.9625,-1.0067,-1.0738,-1.1552,-1.2358,-1.331,-1.4106,-1.4832,-1.5284,-1.5647,-1.5867,-1.614,-1.6811,-1.755,-1.868,-1.9617,-2.0409,-2.1135,-2.1624,-2.1874,-2.2235,-2.2494,-2.2787,-2.3412,-2.4456,-2.4833,-2.4911,-2.5624,-2.5974,-2.4731,-2.5271,-2.5461,1.9279,1.9359,1.9366,1.9366,1.9366,1.9366,1.9366,1.9366,1.9366,1.9245,1.9092,1.9065,1.8905,1.8637,1.8417,1.8096,1.7742,1.7635,1.7589,1.7589,1.7589,1.7589,1.7589,1.7589,1.7589,1.7589,1.7589,1.7049,1.6137,1.4256,1.3216,1.2837,1.1268,1.0431,1.0216,0.9751,0.9437,0.9311,0.9167,0.8915,0.8816,0.871,0.8621,0.856,0.8442,0.8292,0.8109,0.736,0.6998,0.6788,0.5975,0.4961,0.3915,0.2978,0.251,0.251,0.251,0.251,0.251,0.251,0.251,0.251,0.251,0.2273,0.1881,0.141,0.0627,-0.0235,-0.1019,-0.1724,-0.2588,-0.3215,-0.3843,-0.4545,-0.4701,-0.5243,-0.6405,-0.6563,-0.6868,-0.7407,-0.7868,-0.8327,-0.8784,-0.917,-0.962,-1.0293,-1.0812,-1.17,-1.2718,-1.352,-1.4243,-1.4911,-1.5355,-1.5505,-1.5718,-1.6193,-1.7079,-1.8152,-1.8875,-1.9781,-2.0816,-2.1233,-2.1647,-2.2011,-2.2309,-2.2543,-2.3233,-2.431,-2.4628,-2.4563,-2.5602,-2.6449,-2.5721,-2.5333,-2.5652,1.9112,1.9352,1.9366,1.9366,1.9366,1.9366,1.9366,1.9366,1.9366,1.9345,1.9305,1.9339,1.9172,1.8958,1.8851,1.8577,1.8116,1.7782,1.7609,1.7589,1.7589,1.7589,1.7589,1.7589,1.7589,1.7589,1.7589,1.7582,1.7325,1.6045,1.5267,1.4947,1.2837,1.1543,1.1491,1.0401,0.9739,0.9481,0.9444,0.9291,0.8869,0.8832,0.8751,0.8605,0.8572,0.8479,0.8296,0.803,0.7869,0.7656,0.6965,0.568,0.4093,0.3137,0.2588,0.251,0.251,0.251,0.251,0.251,0.251,0.251,0.251,0.251,0.2352,0.1881,0.1333,0.0549,-0.0235,-0.1096,-0.1803,-0.251,-0.3372,-0.4467,-0.4545,-0.5087,-0.6096,-0.6563,-0.6791,-0.7326,-0.7791,-0.8025,-0.8255,-0.8789,-0.9322,-0.9549,-1.0218,-1.118,-1.2131,-1.2858,-1.36,-1.441,-1.4919,-1.5213,-1.5355,-1.5638,-1.6603,-1.7569,-1.8115,-1.8869,-2.0172,-2.0896,-2.1325,-2.1694,-2.2123,-2.2371,-2.2775,-2.382,-2.4402,-2.4634,-2.5905,-2.6609,-2.615,-2.5736,-2.6236,1.9285,1.9366,1.9366,1.9366,1.9366,1.9366,1.9366,1.9366,1.9366,1.9366,1.9366,1.9366,1.9312,1.9192,1.9025,1.8824,1.8611,1.815,1.7796,1.7622,1.7589,1.7589,1.7589,1.7589,1.7589,1.7589,1.7589,1.7589,1.7351,1.6411,1.5767,1.5255,1.3964,1.2592,1.1817,1.1821,1.138,0.9824,1.0101,1.0059,0.9267,0.9072,0.8926,0.8763,0.8739,0.8658,0.8487,0.8304,0.8182,0.8117,0.7749,0.6711,0.5055,0.3944,0.3132,0.2588,0.251,0.251,0.2511,0.2511,0.2512,0.2511,0.2511,0.251,0.251,0.2352,0.1961,0.1334,0.094,0.0313,-0.094,-0.141,-0.22,-0.3452,-0.3921,-0.4394,-0.5341,-0.6109,-0.6637,-0.6868,-0.733,-0.7795,-0.8106,-0.8641,-0.8956,-0.9246,-0.9846,-1.0582,-1.162,-1.2285,-1.3011,-1.4042,-1.441,-1.4848,-1.5062,-1.5275,-1.5974,-1.6908,-1.7527,-1.8281,-1.9526,-2.0412,-2.0846,-2.1464,-2.1835,-2.2235,-2.2702,-2.3238,-2.3923,-2.445,-2.524,-2.559,-2.5804,-2.6132,-2.6534,1.9265,1.9366,1.9366,1.9366,1.9366,1.9366,1.9366,1.9366,1.9366,1.9366,1.9366,1.9366,1.9366,1.9325,1.9165,1.9025,1.8891,1.8524,1.815,1.7782,1.7615,1.7589,1.7589,1.7589,1.7589,1.7589,1.7589,1.7589,1.7582,1.6929,1.6523,1.6168,1.5106,1.4079,1.3036,1.2683,1.1831,1.0969,1.0563,1.0227,0.9905,0.9436,0.9108,0.8946,0.8857,0.8767,0.8658,0.8487,0.8361,0.8187,0.7859,0.6969,0.5891,0.4691,0.3696,0.3217,0.2737,0.2579,0.2575,0.2561,0.2544,0.2542,0.2525,0.2511,0.251,0.251,0.228,0.1745,0.159,0.1036,-0.0321,-0.0885,-0.1449,-0.2578,-0.3277,-0.3907,-0.4726,-0.5698,-0.642,-0.6752,-0.7066,-0.7493,-0.7918,-0.8358,-0.8702,-0.9042,-0.9392,-1.0067,-1.1105,-1.1768,-1.2579,-1.339,-1.4049,-1.4418,-1.4705,-1.5054,-1.5417,-1.6167,-1.6939,-1.792,-1.9019,-1.9613,-2.0129,-2.1035,-2.1612,-2.1999,-2.2469,-2.31,-2.3748,-2.4211,-2.4681,-2.5321,-2.5784,-2.6213,-2.6644,1.9118,1.9352,1.9366,1.9366,1.9482,1.9366,1.9482,1.9482,1.9366,1.9366,1.9366,1.9366,1.9482,1.9482,1.9325,1.9199,1.8978,1.8878,1.8591,1.815,1.7862,1.7695,1.7602,1.7589,1.7589,1.7589,1.7589,1.7589,1.7589,1.7477,1.7582,1.7318,1.6267,1.5591,1.5021,1.303,1.2635,1.2527,1.1086,1.0617,1.0924,1.004,0.9478,0.9299,0.9062,0.8861,0.8779,0.8629,0.8475,0.8227,0.756,0.7051,0.6533,0.5111,0.4336,0.4001,0.3271,0.2847,0.2756,0.2632,0.2608,0.2604,0.2565,0.252,0.2538,0.2546,0.2322,0.1949,0.1872,0.123,0.0083,-0.0501,-0.1087,-0.193,-0.2883,-0.3775,-0.4755,-0.5427,-0.5979,-0.6572,-0.6926,-0.7133,-0.7709,-0.8083,-0.8479,-0.8763,-0.9096,-0.9758,-1.0564,-1.1322,-1.1868,-1.2592,-1.347,-1.3912,-1.4194,-1.4561,-1.4991,-1.5576,-1.6272,-1.7065,-1.8259,-1.8916,-1.9756,-2.0669,-2.1285,-2.1737,-2.2235,-2.2798,-2.3433,-2.3922,-2.4523,-2.5343,-2.5821,-2.615,-2.6556,1.9292,1.9366,1.9366,1.9475,1.9591,1.9482,1.9475,1.9707,1.9482,1.9366,1.9366,1.9366,1.9482,1.9707,1.9482,1.9428,1.9422,1.9132,1.8991,1.9006,1.85,1.7983,1.7662,1.7589,1.7589,1.7589,1.7589,1.7589,1.7589,1.7589,1.7589,1.7582,1.718,1.6501,1.5573,1.553,1.4737,1.353,1.3435,1.2774,1.2088,1.1274,1.061,1.0337,0.9699,0.9161,0.884,0.8658,0.8552,0.8491,0.8142,0.7535,0.7017,0.6341,0.5463,0.4378,0.3869,0.3364,0.286,0.2679,0.2669,0.2669,0.2646,0.2644,0.2644,0.2644,0.257,0.2418,0.2417,0.1921,0.0756,0.0252,-0.0508,-0.1884,-0.2789,-0.3514,-0.4202,-0.4866,-0.5363,-0.561,-0.6373,-0.6933,-0.7394,-0.7943,-0.8486,-0.8653,-0.895,-0.9388,-1.0193,-1.0627,-1.1172,-1.2016,-1.2813,-1.3251,-1.3688,-1.4129,-1.4561,-1.5133,-1.5647,-1.6,-1.7276,-1.8327,-1.9462,-2.0688,-2.1008,-2.14,-2.18,-2.2285,-2.2871,-2.3446,-2.3962,-2.4526,-2.5329,-2.5821,-2.6212,1.9591,1.9591,1.9482,1.9482,1.9591,1.9591,1.9591,1.9597,1.9611,1.9495,1.9488,1.9366,1.9597,1.9815,1.9591,1.97,1.9903,1.9523,1.9373,1.9429,1.9147,1.8448,1.7883,1.7702,1.7589,1.7589,1.7589,1.7589,1.7589,1.7589,1.7589,1.7589,1.7589,1.7167,1.6501,1.6348,1.6005,1.4795,1.4447,1.3762,1.334,1.2344,1.1507,1.1087,1.035,0.9746,0.8952,0.8723,0.8645,0.8568,0.8467,0.8233,0.7703,0.7193,0.6452,0.5339,0.4653,0.3886,0.3447,0.3002,0.273,0.2723,0.2711,0.2695,0.2689,0.2694,0.2696,0.2726,0.2729,0.2228,0.1294,0.0691,-0.0435,-0.1843,-0.2524,-0.3111,-0.3716,-0.4151,-0.4658,-0.517,-0.5855,-0.6593,-0.6968,-0.7628,-0.8089,-0.8513,-0.8734,-0.919,-0.964,-0.9983,-1.0394,-1.1172,-1.188,-1.2311,-1.2806,-1.3237,-1.3977,-1.4553,-1.5275,-1.5551,-1.6446,-1.7755,-1.8757,-1.9824,-2.0409,-2.1008,-2.1336,-2.1737,-2.2297,-2.2823,-2.322,-2.38,-2.454,-2.5217,-2.5673,1.9815,1.9815,1.9591,1.9482,1.9591,1.97,1.97,1.9597,1.9741,1.9707,1.953,1.9414,1.9605,1.9883,1.9713,1.9883,2.027,2.0005,1.9867,1.9758,1.9487,1.9112,1.8323,1.7976,1.7768,1.7602,1.7589,1.7589,1.7589,1.7589,1.7582,1.7582,1.7589,1.7582,1.7285,1.6488,1.6228,1.6251,1.4977,1.4445,1.4413,1.3545,1.2512,1.1507,1.0665,0.9982,0.9171,0.8861,0.8779,0.8605,0.858,0.8552,0.8376,0.7665,0.7214,0.6753,0.5593,0.4716,0.4192,0.3424,0.2879,0.2872,0.2745,0.2713,0.2726,0.2733,0.2749,0.279,0.2792,0.2461,0.1688,0.0536,-0.0536,-0.1519,-0.1968,-0.2419,-0.3229,-0.3497,-0.4032,-0.5015,-0.5277,-0.6019,-0.6647,-0.7186,-0.7495,-0.8139,-0.845,-0.8841,-0.9223,-0.9513,-0.9813,-1.0171,-1.0738,-1.1222,-1.1787,-1.2271,-1.3237,-1.4049,-1.4911,-1.548,-1.6035,-1.707,-1.7949,-1.8757,-1.942,-2.015,-2.0752,-2.121,-2.1663,-2.2247,-2.2714,-2.3173,-2.3682,-2.431,-2.4824,2.0162,2.0155,1.9815,1.9815,2.0046,1.9924,1.9931,2.0046,2.019,2.0057,1.9721,1.9504,1.9751,2.0161,1.9735,1.9918,2.0587,2.0385,2.0221,2.0158,2.0188,1.9709,1.9135,1.8612,1.8036,1.7761,1.7589,1.7582,1.7687,1.7799,1.7799,1.7687,1.7799,1.7806,1.7562,1.7292,1.7244,1.7272,1.6553,1.6064,1.5765,1.4871,1.3613,1.2323,1.0702,0.9714,0.9333,0.9108,0.8954,0.8787,0.8658,0.8697,0.8572,0.8388,0.7852,0.7231,0.6786,0.5808,0.465,0.4101,0.365,0.2933,0.2832,0.2835,0.2835,0.2828,0.2837,0.2854,0.2856,0.2588,0.1792,0.0987,0.009,-0.0628,-0.0897,-0.1256,-0.2332,-0.3138,-0.3674,-0.4121,-0.4835,-0.5539,-0.5866,-0.6812,-0.7306,-0.7714,-0.8068,-0.8476,-0.8783,-0.9078,-0.9237,-0.9511,-0.9797,-1.0297,-1.0895,-1.1602,-1.262,-1.3433,-1.4297,-1.5295,-1.5848,-1.6385,-1.7198,-1.7881,-1.8499,-1.9233,-1.989,-2.0366,-2.0677,-2.1474,-2.2197,-2.2592,-2.304,-2.3564,-2.4034,2.0493,2.0493,2.0155,2.004,2.0046,2.0148,2.0155,2.0155,2.0399,2.0216,1.985,1.9633,1.9878,2.0279,1.9956,2.0217,2.0795,2.0852,2.0622,2.0573,2.0658,2.043,1.9883,1.9355,1.8784,1.8078,1.7793,1.7793,1.7799,1.7905,1.7911,1.7799,1.801,1.8016,1.7799,1.7799,1.7637,1.7606,1.7421,1.7234,1.6801,1.6216,1.4756,1.3033,1.1158,1.0118,0.9627,0.9556,0.9312,0.9163,0.9042,0.8906,0.8681,0.8572,0.83,0.794,0.7231,0.6517,0.5275,0.4476,0.3851,0.2963,0.2875,0.2875,0.2875,0.2875,0.2875,0.2875,0.2873,0.2604,0.1885,0.1525,0.0897,0.0269,-0.0179,-0.0718,-0.1345,-0.251,-0.3406,-0.3674,-0.4391,-0.4926,-0.5636,-0.6251,-0.6953,-0.7337,-0.7596,-0.8021,-0.8501,-0.873,-0.879,-0.8958,-0.9058,-0.9423,-1.0094,-1.0936,-1.2094,-1.2903,-1.3638,-1.4678,-1.5566,-1.5979,-1.6376,-1.707,-1.7696,-1.823,-1.8824,-1.9299,-1.989,-2.0741,-2.14,-2.1901,-2.2457,-2.2992,-2.3352,2.0838,2.0723,2.05,2.0155,2.004,2.0486,2.0378,2.0148,2.0493,2.0395,1.9893,1.9843,1.9884,2.0129,2.0165,2.0619,2.1016,2.1211,2.0967,2.0831,2.106,2.0787,2.0281,1.9918,1.9435,1.8597,1.8227,1.8122,1.8016,1.8016,1.8016,1.8016,1.822,1.822,1.8115,1.8003,1.8018,1.7922,1.7784,1.7604,1.7344,1.7058,1.5693,1.3727,1.193,1.0891,1.0312,0.9966,0.9697,0.9528,0.9605,0.9325,0.8926,0.8649,0.8625,0.8625,0.7908,0.7084,0.5991,0.5097,0.421,0.323,0.2963,0.2875,0.2875,0.2875,0.2875,0.2875,0.2875,0.2694,0.2064,0.1974,0.1615,0.0987,0.0269,-0.009,-0.0628,-0.1792,-0.2598,-0.3317,-0.3764,-0.4389,-0.4835,-0.5455,-0.6163,-0.6871,-0.7132,-0.7541,-0.8037,-0.8377,-0.8455,-0.8538,-0.8746,-0.9002,-0.9662,-0.9983,-1.1153,-1.2071,-1.2885,-1.3807,-1.4859,-1.5234,-1.5551,-1.6263,-1.6881,-1.7354,-1.7891,-1.8355,-1.9079,-1.9944,-2.0666,-2.125,-2.1827,-2.242,-2.2775,2.1089,2.1089,2.073,2.0608,2.0608,2.0723,2.0601,2.0608,2.0967,2.0747,2.0163,1.9974,1.9968,1.986,1.9888,2.0402,2.105,2.1189,2.1203,2.1081,2.1211,2.0945,2.0687,2.0344,1.9938,1.9462,1.8793,1.8366,1.8122,1.822,1.8227,1.8122,1.8325,1.8429,1.8325,1.8122,1.8318,1.8407,1.8142,1.7981,1.7992,1.7471,1.6539,1.4617,1.284,1.1726,1.1132,1.044,0.9888,0.981,0.988,0.9853,0.9617,0.9284,0.9025,0.8816,0.8595,0.7923,0.685,0.6008,0.5104,0.421,0.3422,0.2973,0.2973,0.2882,0.2892,0.288,0.2877,0.2785,0.2784,0.2604,0.2334,0.1795,0.1346,0.0807,-0.0179,-0.0986,-0.1792,-0.2422,-0.3138,-0.3853,-0.43,-0.4746,-0.5458,-0.5985,-0.6248,-0.6776,-0.7432,-0.7824,-0.8049,-0.8312,-0.8573,-0.8901,-0.9291,-0.9399,-1.0041,-1.103,-1.1847,-1.2674,-1.3568,-1.4179,-1.4792,-1.5581,-1.6114,-1.6542,-1.701,-1.7482,-1.821,-1.9013,-1.9803,-2.059,-2.1239,-2.1889,-2.2531,2.1539,2.1979,2.1303,2.1181,2.1509,2.1181,2.0845,2.0831,2.1623,2.1489,2.087,2.0726,2.0569,2.0133,1.9837,2.0237,2.0859,2.1159,2.1196,2.1211,2.1203,2.1081,2.0909,2.0572,2.0278,1.9918,1.935,1.8886,1.8562,1.8548,1.8548,1.8548,1.875,1.8855,1.8653,1.8548,1.866,1.8819,1.8615,1.8447,1.8469,1.7803,1.6704,1.5467,1.4142,1.3017,1.1955,1.157,1.0947,1.048,1.0457,1.0312,1.0158,0.9905,0.9626,0.9216,0.9058,0.8563,0.7657,0.6913,0.6096,0.4623,0.3972,0.3516,0.315,0.2967,0.2946,0.292,0.2883,0.2875,0.2875,0.2875,0.2694,0.2424,0.2064,0.1346,0.0359,-0.0359,-0.0987,-0.1705,-0.2869,-0.3496,-0.3676,-0.4212,-0.4748,-0.5102,-0.5364,-0.5983,-0.6779,-0.7204,-0.753,-0.8005,-0.8259,-0.8581,-0.8851,-0.8949,-0.9209,-1.0131,-1.075,-1.1575,-1.2477,-1.3173,-1.4088,-1.5,-1.5419,-1.5867,-1.6272,-1.6811,-1.7482,-1.8085,-1.8803,-1.953,-2.0515,-2.129,-2.1939,2.2199,2.3191,2.2093,2.1979,2.241,2.1866,2.141,2.1517,2.241,2.2448,2.1574,2.1736,2.1426,2.064,2.0349,2.052,2.084,2.1277,2.1531,2.1211,2.1211,2.1203,2.1123,2.083,2.0545,2.0104,1.9857,1.9495,1.8926,1.8869,1.8876,1.8869,1.9071,1.9175,1.8966,1.8862,1.8974,1.8974,1.8869,1.8833,1.8635,1.8039,1.7239,1.6337,1.5621,1.443,1.3307,1.2339,1.1858,1.1263,1.0974,1.0788,1.0605,1.0511,1.0268,0.9729,0.946,0.8757,0.8239,0.766,0.6879,0.5657,0.4834,0.4178,0.361,0.3308,0.3022,0.2978,0.2928,0.2898,0.2899,0.288,0.2876,0.2785,0.2334,0.1795,0.0987,0.0269,-0.0359,-0.1345,-0.2599,-0.3138,-0.3317,-0.3496,-0.3941,-0.4302,-0.4654,-0.5008,-0.5716,-0.6428,-0.6851,-0.7541,-0.7903,-0.8203,-0.8405,-0.8504,-0.8859,-0.9437,-0.9822,-1.0343,-1.1257,-1.2202,-1.3134,-1.4067,-1.4864,-1.5338,-1.5771,-1.6202,-1.6811,-1.7345,-1.7813,-1.8603,-1.9857,-2.0771,-2.1491,2.3407,2.4394,2.3311,2.2869,2.2974,2.2862,2.2757,2.2749,2.3087,2.3435,2.3578,2.2909,2.2137,2.1435,2.1668,2.1332,2.1249,2.1872,2.2055,2.1531,2.1325,2.1211,2.1167,2.0874,2.053,2.0271,1.9964,1.9488,1.9045,1.8981,1.8876,1.8974,1.8966,1.9078,1.9175,1.9078,1.9078,1.9175,1.8974,1.8851,1.8804,1.8607,1.8137,1.74,1.6504,1.5583,1.4629,1.3443,1.237,1.2052,1.1477,1.1194,1.1096,1.0904,1.06,1.0307,0.99,0.9543,0.8879,0.8302,0.7736,0.6786,0.5821,0.4757,0.4208,0.3539,0.3055,0.3041,0.2984,0.3036,0.2932,0.2902,0.2884,0.2875,0.2694,0.2244,0.1705,0.0718,0.0,-0.0718,-0.1883,-0.251,-0.2868,-0.3047,-0.3226,-0.3496,-0.3855,-0.4208,-0.4741,-0.5453,-0.6605,-0.7295,-0.7811,-0.8045,-0.8337,-0.8442,-0.8573,-0.8932,-0.9082,-0.9327,-1.0201,-1.1187,-1.2029,-1.2872,-1.3836,-1.4848,-1.5559,-1.5991,-1.6272,-1.6751,-1.7276,-1.821,-1.9333,-2.0182,-2.0962,2.5296,2.5626,2.4403,2.4403,2.4863,2.43,2.3958,2.4069,2.4744,2.4769,2.4571,2.4572,2.344,2.2128,2.2397,2.2312,2.1783,2.2316,2.2592,2.2078,2.1653,2.1211,2.1181,2.1035,2.0764,2.0325,2.0055,1.974,1.9357,1.9078,1.9071,1.9078,1.9175,1.9175,1.9272,1.9175,1.9175,1.9279,1.916,1.9102,1.9052,1.8877,1.8657,1.8372,1.7577,1.6828,1.5725,1.4582,1.3236,1.2678,1.1673,1.1194,1.1194,1.1096,1.09,1.0596,1.0436,1.0056,0.9417,0.8999,0.8497,0.7921,0.6946,0.6089,0.4999,0.3798,0.3198,0.31,0.3045,0.3003,0.3063,0.2937,0.2906,0.289,0.2884,0.2516,0.1975,0.1166,0.0359,-0.0448,-0.1076,-0.1704,-0.2331,-0.2689,-0.2868,-0.3047,-0.3227,-0.3494,-0.3939,-0.4561,-0.5891,-0.7397,-0.7742,-0.7979,-0.8305,-0.8533,-0.8521,-0.8717,-0.8594,-0.8959,-0.947,-1.028,-1.0971,-1.1889,-1.29,-1.3953,-1.5103,-1.5788,-1.6132,-1.6473,-1.6811,-1.7745,-1.8736,-1.953,-2.0504,2.6971,2.6853,2.5617,2.5735,2.6409,2.5507,2.5177,2.5287,2.6073,2.6182,2.5737,2.5756,2.4483,2.2934,2.3448,2.3593,2.2632,2.2985,2.2973,2.2767,2.2207,2.1546,2.131,2.1145,2.094,2.0332,2.0157,1.993,1.9557,1.933,1.9279,1.9272,1.9279,1.9272,1.9272,1.9286,1.9308,1.944,1.933,1.9316,1.9316,1.9081,1.8906,1.8723,1.8433,1.7966,1.6897,1.5752,1.4527,1.3854,1.237,1.177,1.1673,1.1385,1.1096,1.0801,1.0681,1.048,0.9968,0.9674,0.9316,0.8817,0.8018,0.6985,0.5007,0.3975,0.3259,0.3161,0.3108,0.3055,0.3015,0.2997,0.2954,0.2925,0.2903,0.2528,0.2158,0.144,0.0988,0.0538,-0.0179,-0.1076,-0.1704,-0.2331,-0.2599,-0.2689,-0.2689,-0.2778,-0.3224,-0.3848,-0.4914,-0.6422,-0.7044,-0.7394,-0.7921,-0.8277,-0.8384,-0.8452,-0.8336,-0.8508,-0.8989,-0.9354,-0.9933,-1.0908,-1.1936,-1.2905,-1.395,-1.5007,-1.5991,-1.6263,-1.6603,-1.7207,-1.7997,-1.8926,-2.0041,2.8184,2.8077,2.6853,2.6409,2.6527,2.6409,2.6418,2.6409,2.6518,2.7079,2.7454,2.6677,2.5477,2.4543,2.4738,2.4897,2.4093,2.5148,2.4502,2.3517,2.2877,2.2237,2.1919,2.1569,2.1137,2.0827,2.0626,2.0264,1.9711,1.9367,1.9308,1.9272,1.9272,1.9272,1.9272,1.9279,1.9389,1.9499,1.944,1.9455,1.9491,1.9345,1.9089,1.8869,1.876,1.8505,1.8086,1.6854,1.5993,1.5524,1.3757,1.2494,1.2314,1.1785,1.1389,1.0998,1.0904,1.0703,1.0408,1.0216,1.0314,0.9912,0.9015,0.7518,0.5727,0.4931,0.4221,0.3409,0.3258,0.3131,0.3102,0.3078,0.3019,0.2977,0.2951,0.2847,0.2464,0.1988,0.1534,0.1348,0.0628,-0.0359,-0.0987,-0.1614,-0.2063,-0.2152,-0.2242,-0.2242,-0.2868,-0.3492,-0.4113,-0.5179,-0.5983,-0.6602,-0.7309,-0.7577,-0.758,-0.7852,-0.7971,-0.8147,-0.8516,-0.8857,-0.9215,-0.9887,-1.0939,-1.1841,-1.2875,-1.3992,-1.5037,-1.5842,-1.6464,-1.7001,-1.7872,-1.8936,-1.9987,2.8301,2.8291,2.7745,2.7628,2.7628,2.7628,2.7628,2.7628,2.7628,2.7853,2.8281,2.7563,2.6695,2.5922,2.6225,2.6143,2.518,2.5521,2.5263,2.4562,2.3723,2.3222,2.2847,2.2573,2.2116,2.1775,2.146,2.0703,1.9854,1.9672,1.9316,1.9272,1.9272,1.9272,1.9272,1.9279,1.9374,1.9477,1.9437,1.9411,1.9396,1.9381,1.9213,1.9111,1.9089,1.8913,1.8434,1.7479,1.7,1.6289,1.4851,1.3952,1.3095,1.2428,1.179,1.1194,1.1096,1.0998,1.0806,1.0609,1.0413,1.0212,0.9312,0.812,0.6739,0.5932,0.4933,0.4219,0.3616,0.3396,0.3138,0.3116,0.3082,0.3035,0.3011,0.3001,0.2794,0.2308,0.2007,0.1822,0.1083,0.0179,-0.0359,-0.0807,-0.1256,-0.1615,-0.1705,-0.1884,-0.242,-0.2957,-0.358,-0.4113,-0.4914,-0.5628,-0.6331,-0.6511,-0.6688,-0.7224,-0.7672,-0.7964,-0.8147,-0.8394,-0.8752,-0.9356,-0.9922,-1.0912,-1.1971,-1.3046,-1.4171,-1.533,-1.6184,-1.6872,-1.7804,-1.887,-1.9727,2.8301,2.8301,2.8301,2.8301,2.8301,2.8301,2.8301,2.8301,2.8291,2.8301,2.8301,2.8281,2.7815,2.7121,2.7247,2.7323,2.6512,2.6321,2.6143,2.5559,2.4801,2.4269,2.4201,2.4006,2.3367,2.3055,2.2694,2.2033,2.0666,2.0197,1.9702,1.9413,1.9272,1.9272,1.9272,1.9279,1.9316,1.9371,1.9288,1.9341,1.9418,1.9323,1.9279,1.925,1.9242,1.9162,1.8833,1.8164,1.7806,1.7182,1.6156,1.5054,1.4138,1.333,1.2525,1.1893,1.1394,1.1198,1.111,1.0969,1.0663,1.0426,1.0091,0.9291,0.8382,0.708,0.6305,0.5029,0.4407,0.3864,0.3597,0.3497,0.347,0.3525,0.3216,0.3106,0.2975,0.2661,0.2525,0.2312,0.1555,0.0905,0.0359,-0.009,-0.0897,-0.1346,-0.1525,-0.1615,-0.1884,-0.2331,-0.2778,-0.3314,-0.3848,-0.4559,-0.5179,-0.5267,-0.5536,-0.6959,-0.7404,-0.7669,-0.7956,-0.8135,-0.8332,-0.8682,-0.9363,-1.0129,-1.0959,-1.1855,-1.3433,-1.5054,-1.5903,-1.6603,-1.7285,-1.822,-1.888,2.8301,2.8301,2.8301,2.8301,2.8301,2.8301,2.8301,2.8301,2.8301,2.8301,2.8301,2.8301,2.8291,2.8038,2.7881,2.7717,2.7602,2.711,2.6817,2.6421,2.5712,2.5305,2.5087,2.4829,2.4598,2.4637,2.4132,2.3335,2.1755,2.1262,2.0473,1.9747,1.9576,1.948,1.9272,1.9272,1.9433,1.9645,1.944,1.9572,1.9542,1.9418,1.9367,1.9272,1.9272,1.922,1.9044,1.8884,1.8542,1.8231,1.7445,1.6494,1.5894,1.4424,1.3391,1.2644,1.184,1.1437,1.1231,1.1406,1.1211,1.0888,1.0549,1.0365,0.9454,0.8551,0.776,0.6365,0.5779,0.5235,0.4679,0.4125,0.407,0.3849,0.353,0.32,0.3165,0.3008,0.2767,0.2615,0.2222,0.1744,0.1267,0.0628,-0.0448,-0.1076,-0.1346,-0.1436,-0.1615,-0.1794,-0.2242,-0.269,-0.3135,-0.3492,-0.4024,-0.3937,-0.4472,-0.6071,-0.6871,-0.6956,-0.7577,-0.8063,-0.8235,-0.8247,-0.8662,-0.9394,-0.9956,-1.0565,-1.2405,-1.4243,-1.5559,-1.6403,-1.695,-1.7491,-1.8152,2.8301,2.8301,2.8301,2.8301,2.8301,2.8301,2.8301,2.8301,2.8301,2.8301,2.8301,2.8301,2.8301,2.8232,2.8154,2.8018,2.7812,2.7754,2.7333,2.716,2.6402,2.6719,2.6564,2.6172,2.5892,2.5756,2.5415,2.4222,2.1902,2.1909,2.1338,2.0457,2.0285,1.9983,1.9472,1.9279,1.936,1.9491,1.9524,1.957,1.9506,1.9506,1.9477,1.9286,1.9272,1.9272,1.9272,1.9111,1.9081,1.9038,1.8245,1.7736,1.7055,1.5651,1.4778,1.3796,1.2697,1.2309,1.1962,1.1756,1.1564,1.14,1.1304,1.1137,1.0531,0.9792,0.882,0.7932,0.7026,0.6358,0.5581,0.4994,0.4644,0.4273,0.3844,0.36,0.3351,0.3169,0.3003,0.2928,0.2696,0.2195,0.1712,0.1166,0.0179,-0.0538,-0.0807,-0.1256,-0.1436,-0.1525,-0.1794,-0.2154,-0.2512,-0.269,-0.278,-0.2957,-0.3312,-0.4556,-0.5445,-0.5802,-0.6511,-0.7665,-0.8006,-0.7923,-0.8246,-0.8635,-0.9301,-1.0115,-1.1675,-1.3295,-1.4378,-1.5692,-1.6473,-1.689,-1.7304,2.8301,2.8301,2.8301,2.8301,2.8301,2.8301,2.8301,2.8301,2.8301,2.8301,2.8301,2.8301,2.8301,2.8301,2.8262,2.8203,2.7851,2.7529,2.7773,2.7639,2.6769,2.7189,2.7475,2.7511,2.7201,2.7031,2.6677,2.5557,2.3542,2.3068,2.2361,2.1706,2.1387,2.0885,2.0181,1.968,1.9286,1.9389,1.9451,1.9495,1.944,1.9411,1.9469,1.933,1.9272,1.9272,1.9272,1.9272,1.9272,1.9206,1.8986,1.8585,1.7932,1.7076,1.6276,1.5011,1.3755,1.3033,1.2147,1.1987,1.1831,1.1534,1.1765,1.1737,1.1461,1.0819,1.0164,0.925,0.8278,0.7402,0.6728,0.6008,0.5479,0.4998,0.4332,0.3974,0.3504,0.3318,0.3437,0.3351,0.3173,0.2748,0.2157,0.1616,0.0896,0.0269,-0.0269,-0.0717,-0.1166,-0.1346,-0.1436,-0.1795,-0.1974,-0.2154,-0.2153,-0.2153,-0.2598,-0.322,-0.3933,-0.4645,-0.5888,-0.7031,-0.7372,-0.7704,-0.7938,-0.8282,-0.8787,-0.9744,-1.0858,-1.1896,-1.2924,-1.4235,-1.57,-1.6342,-1.6682,2.8301,2.8301,2.8301,2.8301,2.8301,2.8301,2.8301,2.8301,2.8301,2.8301,2.8301,2.8301,2.8301,2.8301,2.8301,2.8232,2.8018,2.7383,2.7598,2.7754,2.7205,2.7649,2.796,2.8174,2.7921,2.8057,2.7806,2.6767,2.5399,2.4472,2.3679,2.284,2.2492,2.1887,2.0979,2.0117,1.9606,1.9449,1.9479,1.9403,1.9323,1.936,1.9381,1.9308,1.9272,1.9272,1.9272,1.9272,1.9272,1.9257,1.9242,1.9067,1.8614,1.7886,1.7279,1.6361,1.4812,1.3447,1.2705,1.2805,1.2288,1.2185,1.202,1.2115,1.1898,1.1663,1.1108,1.0513,0.9761,0.8845,0.7929,0.7226,0.6539,0.5672,0.479,0.4211,0.364,0.3568,0.3788,0.3793,0.3693,0.3331,0.2618,0.2062,0.1704,0.1165,0.0627,0.009,-0.0448,-0.1076,-0.1166,-0.1436,-0.1615,-0.1705,-0.1705,-0.1705,-0.1883,-0.2596,-0.3132,-0.3933,-0.5176,-0.6216,-0.6688,-0.7147,-0.7537,-0.7926,-0.8276,-0.877,-0.9523,-1.0559,-1.1668,-1.3281,-1.4816,-1.5683,-1.6245,2.8301,2.8301,2.8301,2.8301,2.8301,2.8301,2.8301,2.8301,2.8301,2.8301,2.8301,2.8301,2.8301,2.8301,2.8291,2.8115,2.7734,2.7412,2.7461,2.7432,2.7314,2.7676,2.8018,2.8301,2.8301,2.8281,2.8058,2.7381,2.5646,2.4988,2.4061,2.271,2.3393,2.2885,2.203,2.1012,2.0251,1.9613,1.9613,1.9398,1.9457,1.9447,1.9411,1.933,1.9279,1.9272,1.9272,1.9272,1.9272,1.9272,1.9272,1.9184,1.9169,1.9024,1.8787,1.7883,1.6367,1.5065,1.4753,1.3848,1.3218,1.3184,1.2842,1.2233,1.2121,1.2042,1.1928,1.1402,1.0937,0.9977,0.9151,0.8448,0.763,0.6613,0.5723,0.4932,0.4462,0.4422,0.4524,0.439,0.4371,0.3699,0.307,0.2871,0.2511,0.2061,0.1523,0.0986,0.0269,-0.0359,-0.0897,-0.1166,-0.1436,-0.1525,-0.1525,-0.1525,-0.1615,-0.1882,-0.2508,-0.3042,-0.3933,-0.4875,-0.5829,-0.6541,-0.6937,-0.7327,-0.7683,-0.8241,-0.8775,-0.9448,-1.0484,-1.2251,-1.3867,-1.4736,-1.5745,2.8301,2.8301,2.8301,2.8301,2.8301,2.8301,2.8301,2.8301,2.8301,2.8301,2.8301,2.8301,2.8301,2.8301,2.8271,2.8076,2.7656,2.7275,2.7275,2.75,2.7217,2.7656,2.8027,2.8301,2.8301,2.8262,2.8037,2.7323,2.5975,2.5186,2.4313,2.4016,2.451,2.3998,2.3203,2.2501,2.1412,2.0395,1.9702,1.9502,1.9479,1.9477,1.9389,1.933,1.9279,1.9272,1.9272,1.9272,1.9272,1.9272,1.9272,1.9272,1.9323,1.9564,1.9327,1.8448,1.7694,1.6677,1.6162,1.5371,1.4775,1.4223,1.3573,1.292,1.2454,1.2257,1.2186,1.1987,1.1576,1.1056,1.0341,0.9629,0.8676,0.7744,0.673,0.5733,0.5496,0.5368,0.5236,0.5076,0.4647,0.4058,0.3628,0.3515,0.332,0.2869,0.242,0.1883,0.0986,0.009,-0.0448,-0.0807,-0.1166,-0.1436,-0.1346,-0.1346,-0.1525,-0.1614,-0.1792,-0.2329,-0.2956,-0.3638,-0.4711,-0.5555,-0.6374,-0.6805,-0.7173,-0.7561,-0.8093,-0.877,-0.9448,-1.0777,-1.2471,-1.4011,-1.5029,2.8301,2.8301,2.8301,2.8301,2.8301,2.8301,2.8301,2.8301,2.8301,2.8301,2.8301,2.8301,2.8301,2.8281,2.8184,2.792,2.749,2.709,2.708,2.7578,2.7217,2.749,2.8066,2.8301,2.8301,2.8154,2.7871,2.7357,2.6865,2.5993,2.543,2.5742,2.5538,2.502,2.4295,2.3754,2.2772,2.1591,2.0426,1.9636,1.939,1.9286,1.9272,1.9279,1.9272,1.9272,1.9272,1.9272,1.9272,1.9272,1.9323,1.9338,1.9608,1.9762,1.9396,1.916,1.8741,1.8287,1.7552,1.6764,1.5987,1.527,1.4435,1.3666,1.3197,1.2526,1.2323,1.2304,1.1896,1.1617,1.101,1.0343,0.9482,0.8633,0.7707,0.7004,0.6628,0.6502,0.6326,0.6045,0.5407,0.4804,0.3934,0.3728,0.359,0.3408,0.3317,0.278,0.1973,0.0896,0.0269,-0.0179,-0.0718,-0.1076,-0.1166,-0.1166,-0.1346,-0.1436,-0.1524,-0.1704,-0.233,-0.2928,-0.3592,-0.4627,-0.5648,-0.6247,-0.6707,-0.7096,-0.7484,-0.8021,-0.8694,-0.9372,-1.0852,-1.2771,-1.4235,2.8301,2.8301,2.8301,2.8301,2.8301,2.8301,2.8301,2.8301,2.8301,2.8301,2.8301,2.8301,2.8271,2.8223,2.7959,2.7627,2.7158,2.6855,2.6855,2.707,2.7021,2.7432,2.8135,2.8271,2.8271,2.8154,2.7822,2.7207,2.6553,2.6025,2.5732,2.5732,2.5732,2.5421,2.5109,2.4617,2.3735,2.2785,2.1399,2.0178,1.9487,1.9376,1.9272,1.9272,1.9272,1.9272,1.9272,1.9272,1.9272,1.9286,1.9542,1.9879,2.0355,2.0428,2.0521,2.0471,1.9968,1.9577,1.9278,1.8384,1.7483,1.6618,1.5752,1.4641,1.3692,1.2896,1.2427,1.2389,1.2238,1.207,1.1763,1.0962,1.0402,0.9534,0.8769,0.8244,0.7733,0.7611,0.7387,0.6943,0.6372,0.543,0.4447,0.393,0.3785,0.3855,0.4032,0.3762,0.3136,0.224,0.1434,0.0807,-0.0179,-0.0538,-0.0718,-0.0987,-0.1076,-0.1256,-0.1346,-0.1614,-0.1793,-0.2367,-0.3002,-0.4018,-0.495,-0.5469,-0.5931,-0.6556,-0.6942,-0.7484,-0.8097,-0.8846,-0.982,-1.152,-1.3063,2.8125,2.8291,2.8301,2.8301,2.8301,2.8301,2.8301,2.8301,2.8301,2.8301,2.8301,2.8281,2.8203,2.8057,2.7754,2.7266,2.6816,2.6523,2.6562,2.6709,2.7002,2.7402,2.7822,2.8154,2.8086,2.7959,2.7344,2.6709,2.6162,2.5928,2.5732,2.5732,2.5732,2.5625,2.5606,2.5004,2.4478,2.3989,2.2367,2.1226,2.0101,1.968,1.9376,1.9272,1.9272,1.9272,1.9272,1.9272,1.9272,1.936,1.9572,1.993,2.0333,2.0559,2.0845,2.0998,2.0805,2.075,2.0489,1.9932,1.8913,1.7994,1.729,1.6157,1.4352,1.3541,1.2876,1.2729,1.2403,1.213,1.2028,1.1557,1.1366,1.0824,0.9925,0.9203,0.8962,0.8858,0.8881,0.877,0.7758,0.6233,0.5298,0.4173,0.403,0.3817,0.3989,0.4123,0.3583,0.3405,0.2688,0.1882,0.0986,0.0269,0.009,-0.0359,-0.0807,-0.0987,-0.1166,-0.1436,-0.1608,-0.1899,-0.243,-0.3228,-0.3982,-0.4423,-0.4996,-0.5699,-0.6402,-0.6942,-0.7638,-0.8327,-0.9372,-1.0196,-1.152,2.7783,2.8115,2.8184,2.8213,2.8232,2.8271,2.8301,2.8301,2.8301,2.8301,2.8262,2.8193,2.7959,2.7773,2.7559,2.7002,2.6553,2.6289,2.6299,2.6504,2.6748,2.7129,2.751,2.7861,2.7685,2.7353,2.6816,2.6318,2.582,2.5732,2.5732,2.5732,2.5732,2.5732,2.5732,2.5625,2.5226,2.443,2.33,2.2291,2.1232,1.9975,1.9472,1.9272,1.9272,1.9272,1.9272,1.9272,1.9272,1.944,1.9667,2.012,2.045,2.0764,2.0933,2.1108,2.1152,2.1094,2.1086,2.0776,2.004,1.9305,1.8646,1.7309,1.5499,1.4379,1.3707,1.3088,1.2758,1.2389,1.2285,1.2172,1.1986,1.1764,1.0901,1.0124,1.0029,1.0012,1.0054,1.0125,0.8821,0.7227,0.6154,0.5089,0.4553,0.4244,0.4019,0.3884,0.3853,0.3941,0.3671,0.3045,0.224,0.1613,0.0987,0.0359,-0.0269,-0.0628,-0.0897,-0.1166,-0.1423,-0.1637,-0.1854,-0.2252,-0.2858,-0.3396,-0.4142,-0.4841,-0.5622,-0.6247,-0.7019,-0.7638,-0.8318,-0.9145,-1.0051,2.7187,2.7285,2.7637,2.7783,2.7842,2.8135,2.8301,2.8291,2.8301,2.8301,2.8164,2.7927,2.7712,2.7627,2.7266,2.6787,2.6338,2.6074,2.6172,2.6396,2.6523,2.6807,2.707,2.7285,2.7002,2.6709,2.6445,2.6162,2.5791,2.5732,2.5732,2.5732,2.5732,2.5732,2.5732,2.5635,2.5538,2.4852,2.426,2.3373,2.2627,2.1285,1.9576,1.9272,1.9272,1.9272,1.9272,1.9272,1.9272,1.944,1.9806,2.0333,2.0684,2.0933,2.1108,2.1152,2.1211,2.1211,2.1137,2.1094,2.0515,2.021,1.9493,1.8514,1.6815,1.5488,1.4685,1.3779,1.3325,1.2654,1.2342,1.22,1.1995,1.1873,1.1303,1.1051,1.0878,1.0649,1.0668,1.0349,0.9551,0.8437,0.7601,0.6771,0.6241,0.5907,0.5466,0.523,0.4768,0.4667,0.4565,0.3941,0.3317,0.2601,0.1794,0.0987,0.0359,-0.009,-0.0538,-0.0718,-0.0975,-0.1295,-0.1524,-0.1844,-0.2037,-0.2439,-0.3207,-0.3986,-0.4611,-0.5312,-0.6247,-0.6945,-0.7476,-0.8084,-0.8993]}]]